[[{"header":{"parameterUnit":"m.s-1","parameterCategory":1,"la1":30.6,"la2":28.766,"lo1":-90.7593,"lo2":-88.6598,"dy":0.0162,"dx":0.0183,"nx":116,"ny":114,"refTime":"2023-07-25T06:00:00:Z","depth":0,"parameterNumber":2,"parameterNumberName":"U-component_of_WINDS"},"data":[0.0,0.0,0.0,0.0,0.0,0.0,0.0,0.0,0.0,0.0,0.0,0.0,0.0,0.0,0.0,0.0,0.0,0.0,0.0,0.0,0.0,0.0,0.0,0.0,0.0,0.0,0.0,0.0,0.0,0.0,0.0,0.0,0.0,0.0,0.0,0.0,0.0,0.0,0.0,0.0,0.0,0.0,0.0,0.0,0.0,0.0,0.0,0.0,0.0,0.0,0.0,0.0,0.0,0.0,0.0,0.0,0.0,0.0,0.0,0.0,0.0,0.0,0.0,0.0,0.0,0.0,0.0,0.0,0.0,0.0,0.0,0.0,0.0,0.0,0.0,0.0,0.0,0.0,0.0,0.0,0.0,0.0,0.0,0.0,0.0,0.0,0.0,0.0,0.0,0.0,0.0,0.0,0.0,0.0,0.0,0.0,0.0,0.0,0.0,0.0,0.0,0.0,0.0,0.0,0.0,0.0,0.0,0.0,0.0,0.0,0.0,0.0,0.0,0.0,0.0,0.0,0.0,0.0,0.0,0.0,0.0,0.0,0.0,0.0,0.0,0.0,0.0,0.0,0.0,0.0,0.0,0.0,0.0,0.0,0.0,0.0,0.0,0.0,0.0,0.0,0.0,0.0,0.0,0.0,0.0,0.0,0.0,0.0,0.0,0.0,0.0,0.0,0.0,0.0,0.0,0.0,0.0,0.0,0.0,0.0,0.0,0.0,0.0,0.0,0.0,0.0,0.0,0.0,0.0,0.0,0.0,0.0,0.0,0.0,0.0,0.0,0.0,0.0,0.0,0.0,0.0,0.0,0.0,0.0,0.0,0.0,0.0,0.0,0.0,0.0,0.0,0.0,0.0,0.0,0.0,0.0,0.0,0.0,0.0,0.0,0.0,0.0,0.0,0.0,0.0,0.0,0.0,0.0,0.0,0.0,0.0,0.0,0.0,0.0,0.0,0.0,0.0,0.0,0.0,0.0,0.0,0.0,0.0,0.0,0.0,0.0,0.0,0.0,0.0,0.0,0.0,0.0,0.0,0.0,0.0,0.0,0.0,0.0,0.0,0.0,0.0,0.0,0.0,0.0,0.0,0.0,0.0,0.0,0.0,0.0,0.0,0.0,0.0,0.0,0.0,0.0,0.0,0.0,0.0,0.0,0.0,0.0,0.0,0.0,0.0,0.0,0.0,0.0,0.0,0.0,0.0,0.0,0.0,0.0,0.0,0.0,0.0,0.0,0.0,0.0,0.0,0.0,0.0,0.0,0.0,0.0,0.0,0.0,0.0,0.0,0.0,0.0,0.0,0.0,0.0,0.0,0.0,0.0,0.0,0.0,0.0,0.0,0.0,0.0,0.0,0.0,0.0,0.0,0.0,0.0,0.0,0.0,0.0,0.0,0.0,0.0,0.0,0.0,0.0,0.0,0.0,0.0,0.0,0.0,0.0,0.0,0.0,0.0,0.0,0.0,0.0,0.0,0.0,0.0,0.0,0.0,0.0,0.0,0.0,0.0,0.0,0.0,0.0,0.0,0.0,0.0,0.0,0.0,0.0,0.0,0.0,0.0,0.0,0.0,0.0,0.0,0.0,0.0,0.0,0.0,0.0,0.0,0.0,0.0,0.0,0.0,0.0,0.0,0.0,0.0,0.0,0.0,0.0,0.0,0.0,0.0,0.0,0.0,0.0,0.0,0.0,0.0,0.0,0.0,0.0,0.0,0.0,0.0,0.0,0.0,0.0,0.0,0.0,0.0,0.0,0.0,0.0,0.0,0.0,0.0,0.0,0.0,0.0,0.0,0.0,0.0,0.0,0.0,0.0,0.0,0.0,0.0,0.0,0.0,0.0,0.0,0.0,0.0,0.0,0.0,0.0,0.0,0.0,0.0,0.0,0.0,0.0,0.0,0.0,0.0,0.0,0.0,0.0,0.0,0.0,0.0,0.0,0.0,0.0,0.0,0.0,0.0,0.0,0.0,0.0,0.0,0.0,0.0,0.0,0.0,0.0,0.0,0.0,0.0,0.0,0.0,0.0,0.0,0.0,0.0,0.0,0.0,0.0,0.0,0.0,0.0,0.0,0.0,0.0,0.0,0.0,0.0,0.0,0.0,0.0,0.0,0.0,0.0,0.0,0.0,0.0,0.0,0.0,0.0,0.0,0.0,0.0,0.0,0.0,0.0,0.0,0.0,0.0,0.0,0.0,0.0,0.0,0.0,0.0,0.0,0.0,0.0,0.0,0.0,0.0,0.0,0.0,0.0,0.0,0.0,0.0,0.0,0.0,0.0,0.0,0.0,0.0,0.0,0.0,0.0,0.0,0.0,0.0,0.0,0.0,0.0,0.0,0.0,0.0,0.0,0.0,0.0,0.0,0.0,0.0,0.0,0.0,0.0,0.0,0.0,0.0,0.0,0.0,0.0,0.0,0.0,0.0,0.0,0.0,0.0,0.0,0.0,0.0,0.0,0.0,0.0,0.0,0.0,0.0,0.0,0.0,0.0,0.0,0.0,0.0,0.0,0.0,0.0,0.0,0.0,0.0,0.0,0.0,0.0,0.0,0.0,0.0,0.0,0.0,0.0,0.0,0.0,0.0,0.0,0.0,0.0,0.0,0.0,0.0,0.0,0.0,0.0,0.0,0.0,0.0,0.0,0.0,0.0,0.0,0.0,0.0,0.0,0.0,0.0,0.0,0.0,0.0,0.0,0.0,0.0,0.0,0.0,0.0,0.0,0.0,0.0,0.0,0.0,0.0,0.0,0.0,0.0,0.0,0.0,0.0,0.0,0.0,0.0,0.0,0.0,0.0,0.0,0.0,0.0,0.0,0.0,0.0,0.0,0.0,0.0,0.0,0.0,0.0,0.0,0.0,0.0,0.0,0.0,0.0,0.0,0.0,0.0,0.0,0.0,0.0,0.0,0.0,0.0,0.0,0.0,0.0,0.0,0.0,0.0,0.0,0.0,0.0,0.0,0.0,0.0,0.0,0.0,0.0,0.0,0.0,0.0,0.0,0.0,0.0,0.0,0.0,0.0,0.0,0.0,0.0,0.0,0.0,0.0,0.0,0.0,0.0,0.0,0.0,0.0,0.0,0.0,0.0,0.0,0.0,0.0,0.0,0.0,0.0,0.0,0.0,0.0,0.0,0.0,0.0,0.0,0.0,0.0,0.0,0.0,0.0,0.0,0.0,0.0,0.0,0.0,0.0,0.0,0.0,0.0,0.0,0.0,0.0,0.0,0.0,0.0,0.0,0.0,0.0,0.0,0.0,0.0,0.0,0.0,0.0,0.0,0.0,0.0,0.0,0.0,0.0,0.0,0.0,0.0,0.0,0.0,0.0,0.0,0.0,0.0,0.0,0.0,0.0,0.0,0.0,0.0,0.0,0.0,0.0,0.0,0.0,0.0,0.0,0.0,0.0,0.0,0.0,0.0,0.0,0.0,0.0,0.0,0.0,0.0,0.0,0.0,0.0,0.0,0.0,0.0,0.0,0.0,0.0,0.0,0.0,0.0,0.0,0.0,0.0,0.0,0.0,0.0,0.0,0.0,0.0,0.0,0.0,0.0,0.0,0.0,0.0,0.0,0.0,0.0,0.0,0.0,0.0,0.0,0.0,0.0,0.0,0.0,0.0,0.0,0.0,0.0,0.0,0.0,0.0,0.0,0.0,0.0,0.0,0.0,0.0,0.0,0.0,0.0,0.0,0.0,0.0,0.0,0.0,0.0,0.0,0.0,0.0,0.0,0.0,0.0,0.0,0.0,0.0,0.0,0.0,0.0,0.0,0.0,0.0,0.0,0.0,0.0,0.0,0.0,0.0,0.0,0.0,0.0,0.0,0.0,0.0,0.0,0.0,0.0,0.0,0.0,0.0,0.0,0.0,0.0,0.0,0.0,0.0,0.0,0.0,0.0,0.0,0.0,0.0,0.0,0.0,0.0,0.0,0.0,0.0,0.0,0.0,0.0,0.0,0.0,0.0,0.0,0.0,0.0,0.0,0.0,0.0,0.0,0.0,0.0,0.0,0.0,0.0,0.0,0.0,0.0,0.0,0.0,0.0,0.0,0.0,0.0,0.0,0.0,0.0,0.0,0.0,0.0,0.0,0.0,0.0,0.0,0.0,0.0,0.0,0.0,0.0,0.0,0.0,0.0,0.0,0.0,0.0,0.0,0.0,0.0,0.0,0.0,0.0,0.0,0.0,0.0,0.0,0.0,0.0,0.0,0.0,0.0,0.0,0.0,0.0,0.0,0.0,0.0,0.0,0.0,0.0,0.0,0.0,0.0,0.0,0.0,0.0,0.0,0.0,0.0,0.0,0.0,0.0,0.0,0.0,0.0,0.0,0.0,0.0,0.0,0.0,0.0,0.0,0.0,0.0,0.0,0.0,0.0,0.0,0.0,0.0,0.0,0.0,0.0,0.0,0.0,0.0,0.0,0.0,0.0,0.0,0.0,0.0,0.0,0.0,0.0,0.0,0.0,0.0,0.0,0.0,0.0,0.0,0.0,0.0,0.0,0.0,0.0,0.0,0.0,0.0,0.0,0.0,0.0,0.0,0.0,0.0,0.0,0.0,0.0,0.0,0.0,0.0,0.0,0.0,0.0,0.0,0.0,0.0,0.0,0.0,0.0,0.0,0.0,0.0,0.0,0.0,0.0,0.0,0.0,0.0,0.0,0.0,0.0,0.0,0.0,0.0,0.0,0.0,0.0,0.0,0.0,0.0,0.0,0.0,0.0,0.0,0.0,0.0,0.0,0.0,0.0,0.0,0.0,0.0,0.0,0.0,0.0,0.0,0.0,0.0,0.0,0.0,0.0,0.0,0.0,0.0,0.0,0.0,0.0,0.0,0.0,0.0,0.0,0.0,0.0,0.0,0.0,0.0,0.0,0.0,0.0,0.0,0.0,0.0,0.0,0.0,0.0,0.0,0.0,0.0,0.0,0.0,0.0,0.0,0.0,0.0,0.0,0.0,0.0,0.0,0.0,0.0,0.0,0.0,0.0,0.0,0.0,0.0,0.0,0.0,0.0,0.0,0.0,0.0,0.0,0.0,0.0,0.0,0.0,0.0,0.0,0.0,0.0,0.0,0.0,0.0,0.0,0.0,0.0,0.0,0.0,0.0,0.0,0.0,0.0,0.0,0.0,0.0,0.0,0.0,0.0,0.0,0.0,0.0,0.0,0.0,0.0,0.0,0.0,0.0,0.0,0.0,0.0,0.0,0.0,0.0,0.0,0.0,0.0,0.0,0.0,0.0,0.0,0.0,0.0,0.0,0.0,0.0,0.0,0.0,0.0,0.0,0.0,0.0,0.0,0.0,0.0,0.0,0.0,0.0,0.0,0.0,0.0,0.0,0.0,0.0,0.0,0.0,0.0,0.0,0.0,0.0,0.0,0.0,0.0,0.0,0.0,0.0,0.0,0.0,0.0,0.0,0.0,0.0,0.0,0.0,0.0,0.0,0.0,0.0,0.0,0.0,0.0,0.0,0.0,0.0,0.0,0.0,0.0,0.0,0.0,0.0,0.0,0.0,0.0,0.0,0.0,0.0,0.0,0.0,0.0,0.0,0.0,0.0,0.0,0.0,0.0,0.0,0.0,0.0,0.0,0.0,0.0,0.0,0.0,0.0,0.0,0.0,0.0,0.0,0.0,0.0,0.0,0.0,0.0,0.0,0.0,0.0,0.0,0.0,0.0,0.0,0.0,0.0,0.0,0.0,0.0,0.0,0.0,0.0,0.0,0.0,0.0,0.0,0.0,0.0,0.0,0.0,0.0,0.0,0.0,0.0,0.0,0.0,0.0,0.0,0.0,0.0,0.0,0.0,0.0,0.0,0.0,0.0,0.0,0.0,0.0,0.0,0.0,0.0,0.0,0.0,0.0,0.0,0.0,0.0,0.0,0.0,0.0,0.0,0.0,0.0,0.0,0.0,0.0,0.0,0.0,0.0,0.0,0.0,0.0,0.0,0.0,0.0,0.0,0.0,0.0,0.0,0.0,0.0,0.0,0.0,0.0,0.0,0.0,0.0,0.0,0.0,0.0,0.0,0.0,0.0,0.0,0.0,0.0,0.0,0.0,0.0,0.0,0.0,0.0,0.0,0.0,0.0,0.0,0.0,0.0,0.0,0.0,-0.4378,0.0,0.0,0.0,0.0,0.0,0.0,0.0,0.0,0.0,0.0,0.0,0.0,0.0,0.0,0.0,0.0,0.0,0.0,0.0,0.0,0.0,0.0,0.0,0.0,0.0,0.0,0.0,0.0,0.0,0.0,0.0,0.0,0.0,0.0,0.0,0.0,0.0,0.0,0.0,0.0,0.0,0.0,0.0,0.0,0.0,0.0,0.0,0.0,0.0,0.0,0.0,0.0,0.0,0.0,0.0,0.0,0.0,0.0,0.0,0.0,0.0,0.0,0.0,0.0,0.0,0.0,0.0,0.0,0.0,0.0,0.0,0.0,0.0,0.0,0.0,0.0,0.0,0.0,0.0,0.0,0.0,0.0,0.0,0.0,0.0,0.0,0.0,0.0,0.0,0.0,0.0,0.0,0.0,0.0,0.0,0.0,0.0,0.0,0.0,0.0,0.0,0.0,0.0,0.0,0.0,0.0,0.0,0.0,0.0,0.0,0.0,0.0,0.0,0.0,0.0,0.0,-0.5056,0.0,0.0,0.0,0.0,0.0,0.0,0.0,0.0,0.0,0.0,0.0,0.0,0.0,0.0,0.0,0.0,0.0,0.0,0.0,0.0,0.0,0.0,0.0,0.0,0.0,0.0,0.0,0.0,0.0,0.0,0.0,0.0,0.0,0.0,0.0,0.0,0.0,0.0,0.0,0.0,0.0,0.0,0.0,0.0,0.0,0.0,0.0,0.0,0.0,0.0,0.0,0.0,0.0,0.0,0.0,0.0,0.0,0.0,0.0,0.0,0.0,0.0,0.0,0.0,0.0,0.0,0.0,0.0,0.0,0.0,0.0,0.0,0.0,0.0,0.0,0.0,0.0,0.0,0.0,0.0,0.0,0.0,0.0,0.0,0.0,0.0,0.0,0.0,0.0,0.0,0.0,0.0,0.0,0.0,0.0,0.0,0.0,0.0,0.0,0.0,0.0,0.0,0.0,0.0,0.0,0.0,0.0,0.0,-0.8321,-0.8568,-0.893,-0.8891,-0.8645,-0.8231,-0.7562,-0.6844,-0.6171,-0.6486,0.0,0.0,0.0,0.0,0.0,0.0,0.0,0.0,0.0,0.0,0.0,0.0,0.0,0.0,0.0,0.0,0.0,0.0,0.0,0.0,0.0,0.0,0.0,0.0,0.0,0.0,0.0,0.0,0.0,0.0,0.0,0.0,0.0,0.0,0.0,0.0,0.0,0.0,0.0,0.0,0.0,0.0,0.0,0.0,0.0,0.0,0.0,0.0,0.0,0.0,0.0,0.0,0.0,0.0,0.0,0.0,0.0,0.0,0.0,0.0,0.0,0.0,0.0,0.0,0.0,0.0,0.0,0.0,0.0,0.0,0.0,0.0,0.0,0.0,0.0,0.0,0.0,0.0,0.0,0.0,0.0,0.0,0.0,0.0,0.0,0.0,-0.8427,-0.8427,0.0,0.0,0.0,0.0,0.0,0.0,0.0,0.0,0.0,0.0,0.0,0.0,0.0,-0.6987,-0.8154,-0.8154,-0.8672,-0.967,-0.967,-1.0147,-1.1025,-1.0777,-1.0621,-1.0536,-1.0216,0.0,-0.6711,-0.6768,0.0,0.0,0.0,0.0,0.0,0.0,0.0,0.0,0.0,0.0,0.0,0.0,0.0,0.0,0.0,0.0,0.0,0.0,0.0,0.0,0.0,0.0,0.0,0.0,0.0,0.0,0.0,0.0,0.0,0.0,0.0,0.0,0.0,0.0,0.0,0.0,0.0,0.0,0.0,0.0,0.0,0.0,0.0,0.0,0.0,0.0,0.0,0.0,0.0,0.0,0.0,0.0,0.0,0.0,0.0,0.0,0.0,0.0,0.0,0.0,0.0,0.0,0.0,0.0,0.0,0.0,0.0,0.0,0.0,0.0,0.0,0.0,0.0,0.0,0.0,0.0,0.0,0.0,0.0,0.0,0.0,0.0,0.0,0.0,0.0,-0.8657,-0.8738,-0.8417,-0.8778,-0.8377,0.0,0.0,0.0,0.0,0.0,0.0,0.0,0.0,0.0,-0.7728,-0.8007,-0.8952,-1.0621,-1.0621,-1.1525,-1.3334,-1.3334,-1.3648,-1.4191,-1.3307,-1.2791,-1.2603,-1.169,-1.0477,-0.9132,-0.8622,-0.8373,-0.8315,0.0,0.0,0.0,0.0,-0.8911,-0.9051,0.0,0.0,0.0,0.0,0.0,0.0,0.0,0.0,0.0,0.0,0.0,0.0,0.0,0.0,0.0,-1.7694,0.0,0.0,0.0,0.0,0.0,0.0,0.0,0.0,0.0,0.0,0.0,0.0,0.0,0.0,0.0,0.0,0.0,0.0,0.0,0.0,0.0,0.0,0.0,0.0,0.0,0.0,0.0,0.0,0.0,0.0,0.0,0.0,0.0,0.0,0.0,0.0,0.0,0.0,0.0,0.0,0.0,0.0,0.0,0.0,0.0,0.0,0.0,0.0,0.0,0.0,0.0,0.0,0.0,0.0,0.0,0.0,0.0,0.0,0.0,0.0,0.0,-0.8765,-0.9025,-0.8444,-0.9085,-0.8909,0.0,0.0,0.0,0.0,0.0,0.0,-0.7362,-0.7758,-0.8434,-0.9539,-1.0053,-1.1238,-1.3135,-1.3338,-1.4237,-1.5822,-1.6113,-1.6078,-1.5794,-1.4919,-1.4373,-1.3969,-1.2639,-1.1823,-1.1482,-1.0471,-0.9673,-0.9145,-0.9145,-0.9098,-0.9031,-0.9031,-0.9165,-0.9352,0.0,0.0,0.0,0.0,0.0,0.0,0.0,0.0,0.0,0.0,0.0,0.0,0.0,0.0,-1.824,-1.8618,-1.8667,-1.8412,0.0,0.0,0.0,0.0,0.0,0.0,0.0,0.0,0.0,0.0,0.0,0.0,0.0,0.0,0.0,0.0,0.0,0.0,0.0,0.0,0.0,0.0,0.0,0.0,0.0,0.0,0.0,0.0,0.0,0.0,0.0,0.0,0.0,0.0,0.0,0.0,0.0,0.0,0.0,0.0,0.0,0.0,0.0,0.0,0.0,0.0,0.0,0.0,0.0,0.0,0.0,0.0,0.0,0.0,0.0,0.0,0.0,0.0,0.0,0.0,0.0,-0.8444,-0.9684,0.0,0.0,0.0,0.0,-0.8626,-0.8911,-0.912,-0.92,-0.9583,-1.0321,-1.1554,-1.2711,-1.3867,-1.5113,-1.5859,-1.5883,-1.5325,-1.641,-1.5966,-1.4266,-1.4605,-1.4687,-1.4488,-1.2968,-1.2604,-1.3093,-1.157,-1.0581,-1.0053,-1.0053,-0.988,-0.9639,-0.9639,-0.9646,-0.9659,0.0,0.0,0.0,0.0,0.0,0.0,0.0,0.0,0.0,0.0,0.0,0.0,0.0,-1.7678,-1.8497,-2.036,-1.9936,-1.942,-1.9022,0.0,0.0,0.0,0.0,0.0,0.0,0.0,0.0,0.0,0.0,0.0,0.0,0.0,0.0,0.0,0.0,0.0,0.0,0.0,0.0,0.0,0.0,0.0,0.0,0.0,0.0,0.0,0.0,0.0,0.0,0.0,0.0,0.0,0.0,0.0,0.0,0.0,0.0,0.0,0.0,0.0,0.0,0.0,0.0,0.0,0.0,0.0,0.0,0.0,0.0,0.0,0.0,0.0,0.0,0.0,0.0,0.0,0.0,0.0,0.0,-1.0321,-1.1136,0.0,-1.0335,-1.1,-1.1037,-0.9881,-1.0425,-1.1312,-1.2382,-1.284,-1.3757,-1.5389,-1.6324,-1.704,-1.7704,-1.8196,-1.8514,-1.8731,-1.8417,-1.7931,-1.7236,-1.58,-1.4997,-1.4617,-1.321,-1.2634,-1.2632,-1.206,-1.1376,-1.0661,-1.0474,-1.0341,-1.0221,-1.0033,-1.008,-1.0221,0.0,0.0,0.0,0.0,0.0,0.0,0.0,0.0,0.0,0.0,0.0,-1.5948,-1.765,-1.827,-1.939,-2.1482,-2.1082,-2.0465,-1.9993,0.0,0.0,0.0,0.0,0.0,0.0,0.0,0.0,0.0,0.0,0.0,0.0,0.0,0.0,0.0,0.0,0.0,0.0,0.0,0.0,0.0,0.0,0.0,-1.6113,0.0,0.0,0.0,0.0,0.0,0.0,0.0,0.0,0.0,0.0,0.0,0.0,0.0,0.0,0.0,0.0,0.0,0.0,0.0,0.0,0.0,0.0,0.0,0.0,0.0,0.0,0.0,0.0,0.0,0.0,0.0,0.0,0.0,0.0,0.0,-1.1289,-1.1677,-1.2425,-1.2665,-1.1929,-1.2929,-1.3328,-1.2475,-1.3398,-1.455,-1.5651,-1.6082,-1.6799,-1.7971,-1.8735,-1.8946,-1.8784,-1.9182,-1.946,-1.9511,-1.8789,-1.816,-1.7704,-1.5905,-1.4945,-1.4537,-1.3168,-1.2702,-1.2732,-1.2445,-1.1957,-1.1396,-1.1002,-1.0788,-1.0675,-1.0374,-1.0388,-1.0598,0.0,0.0,0.0,0.0,0.0,0.0,0.0,0.0,0.0,0.0,-1.5181,-1.5437,-1.6966,-1.9248,-2.1051,-2.1981,-2.1966,-2.1499,-2.0471,-1.831,0.0,0.0,0.0,0.0,0.0,0.0,0.0,0.0,0.0,0.0,0.0,0.0,0.0,0.0,0.0,0.0,0.0,0.0,0.0,0.0,0.0,0.0,-1.7783,0.0,0.0,0.0,0.0,0.0,0.0,0.0,0.0,0.0,0.0,0.0,0.0,0.0,0.0,0.0,0.0,0.0,0.0,0.0,0.0,0.0,0.0,0.0,0.0,0.0,0.0,0.0,0.0,0.0,0.0,0.0,0.0,0.0,-1.0678,-1.161,-1.2358,-1.2452,-1.3494,-1.3991,-1.342,-1.5191,-1.639,-1.639,-1.7814,-1.8621,-1.8707,-1.8962,-1.9154,-1.9137,-1.9747,-1.9545,-1.8415,-1.8792,-1.8425,-1.735,-1.7261,-1.6581,-1.5363,-1.496,-1.4552,-1.4074,-1.2878,-1.2813,-1.36,-1.2659,-1.2305,-1.2245,-1.1677,-1.1276,-1.0989,-1.0695,-1.0638,-1.0624,0.0,0.0,0.0,0.0,0.0,0.0,0.0,0.0,0.0,0.0,-1.5448,-1.6138,-1.824,-1.9521,-2.0906,-2.2651,-2.1404,-2.0555,-2.0588,0.0,0.0,0.0,0.0,0.0,0.0,0.0,0.0,0.0,0.0,0.0,0.0,0.0,0.0,0.0,0.0,0.0,0.0,0.0,0.0,0.0,0.0,0.0,-1.7842,0.0,0.0,0.0,0.0,0.0,0.0,0.0,0.0,0.0,0.0,0.0,0.0,0.0,0.0,0.0,0.0,0.0,0.0,0.0,0.0,0.0,0.0,0.0,0.0,0.0,0.0,0.0,0.0,0.0,0.0,0.0,0.0,-1.1824,-1.1824,-1.2659,-1.3824,-1.5369,-1.6052,-1.6699,-1.7642,-1.8249,-1.8596,-1.8596,-1.9052,-1.9639,-2.0527,-2.0633,-2.0563,-2.0289,-2.0703,-2.0079,-1.8251,-1.8472,-1.8656,-1.8792,-1.6966,-1.6249,-1.6379,-1.4729,-1.3622,-1.3196,-1.281,-1.2648,-1.2659,-1.2445,-1.2305,-1.2285,-1.2124,-1.1884,-1.159,-1.1296,-1.0922,-1.0624,0.0,0.0,0.0,0.0,0.0,0.0,0.0,0.0,0.0,0.0,-1.5453,-1.6232,-1.8147,-1.9111,-2.0251,-2.1938,-2.0753,-1.9703,-1.9288,0.0,0.0,0.0,0.0,0.0,0.0,0.0,0.0,0.0,0.0,0.0,0.0,0.0,0.0,0.0,0.0,0.0,0.0,0.0,0.0,0.0,0.0,0.0,-1.9697,-1.7852,-1.7061,-1.687,-1.6257,-1.6218,-1.6404,-1.6581,0.0,0.0,0.0,0.0,0.0,0.0,0.0,0.0,0.0,0.0,0.0,0.0,0.0,0.0,0.0,0.0,0.0,0.0,0.0,0.0,0.0,0.0,0.0,0.0,-1.2788,-1.3889,-1.4151,-1.4578,-1.564,-1.7694,-1.8057,-1.8533,-1.9381,-1.9943,-2.0215,-2.0215,-2.0764,-2.1311,-2.2031,-2.2031,-2.1929,-2.1696,-2.1295,-2.021,-1.8559,-1.7969,-1.787,-1.817,-1.6147,-1.5816,-1.6995,-1.4976,-1.381,-1.3485,-1.3283,-1.2831,-1.2305,-1.2305,-1.2305,0.0,0.0,0.0,0.0,0.0,-1.0955,-1.0624,0.0,0.0,0.0,0.0,0.0,0.0,0.0,0.0,0.0,0.0,0.0,-1.6021,-1.7092,-1.8179,-1.9258,-2.03,-1.9861,-1.882,0.0,0.0,0.0,0.0,0.0,0.0,0.0,0.0,0.0,0.0,0.0,0.0,0.0,0.0,0.0,0.0,0.0,0.0,0.0,0.0,0.0,0.0,0.0,0.0,-2.2335,-1.9964,-1.9442,-1.9861,-1.8407,-1.7585,-1.7318,-1.7748,0.0,0.0,0.0,0.0,0.0,0.0,0.0,0.0,0.0,0.0,0.0,0.0,0.0,0.0,0.0,0.0,0.0,0.0,0.0,0.0,0.0,0.0,0.0,0.0,-1.4874,-1.6454,-1.7208,-1.7309,-1.788,-1.9505,-1.967,-1.9761,-1.9852,-2.0845,-2.148,-2.148,-2.2492,-2.3135,-2.3135,0.0,0.0,0.0,0.0,-1.9991,-1.875,-1.7336,-1.6647,-1.6639,-1.5385,-1.5646,-1.7236,-1.5495,-1.4689,-1.4515,-1.4144,-1.3339,-1.2445,-1.2445,-1.2372,-1.2271,-1.1984,-1.185,-1.175,-1.1196,-1.0808,-1.0624,0.0,0.0,0.0,0.0,0.0,0.0,0.0,0.0,0.0,-1.4976,-1.5295,-1.57,-1.6015,-1.7024,-1.7965,-1.8618,-1.8166,-1.7398,0.0,0.0,0.0,0.0,0.0,0.0,0.0,0.0,0.0,0.0,0.0,0.0,0.0,0.0,0.0,0.0,0.0,0.0,0.0,0.0,0.0,0.0,0.0,0.0,-2.3223,-2.2408,-2.148,-2.0655,-2.0851,-2.0744,-2.0377,-1.9834,-1.9765,-1.9745,-1.8157,0.0,0.0,0.0,0.0,0.0,0.0,0.0,0.0,0.0,0.0,0.0,0.0,0.0,0.0,0.0,0.0,0.0,0.0,0.0,0.0,-1.516,-1.6849,-1.8621,-2.0236,-2.0429,-2.058,-2.0917,-2.0935,-2.1302,-2.2315,-2.2589,-2.2765,-2.2765,-2.296,-2.3135,-2.3135,-2.3135,-2.2227,-2.0223,-1.9875,-1.8661,-1.6476,-1.6872,-1.7064,-1.6884,0.0,0.0,-1.7253,-1.606,-1.5504,-1.5544,-1.5397,-1.4629,-1.3455,-1.3455,-1.2952,-1.2271,-1.1984,-1.1724,-1.147,-1.1122,-1.0808,-1.0624,0.0,0.0,0.0,0.0,0.0,0.0,0.0,0.0,0.0,0.0,-1.5731,-1.604,-1.609,-1.6609,-1.7174,-1.7739,-1.6706,0.0,0.0,0.0,0.0,0.0,0.0,0.0,0.0,0.0,0.0,0.0,0.0,0.0,0.0,0.0,0.0,0.0,0.0,0.0,0.0,0.0,0.0,0.0,0.0,0.0,-2.5206,-2.372,-2.3033,-2.2815,-2.2405,-2.1728,-2.1018,-2.0485,-2.0072,-1.9593,-1.8595,-1.8115,-1.7574,0.0,0.0,0.0,0.0,0.0,0.0,0.0,0.0,0.0,0.0,0.0,0.0,0.0,0.0,-1.3316,0.0,0.0,-1.6895,-1.7427,-1.9104,-2.0553,-2.1176,-2.1845,-2.2217,-2.2217,-2.2217,-2.2403,-2.3047,-2.3135,-2.3135,-2.3135,-2.3135,-2.3135,-2.3135,-2.3135,-2.2589,-2.1311,-2.0764,-1.9844,-1.8564,-1.8399,-1.8047,-1.7331,-1.7079,-1.7272,-1.7695,-1.6841,-1.6373,-1.6371,-1.6727,-1.547,-1.3245,-1.3089,-1.2732,-1.2285,-1.2144,-1.1904,-1.163,-1.1483,-1.1243,-1.0969,0.0,0.0,0.0,0.0,0.0,0.0,0.0,0.0,0.0,0.0,0.0,-1.6321,-1.6208,-1.6195,-1.6391,0.0,0.0,0.0,0.0,0.0,0.0,0.0,0.0,0.0,0.0,0.0,0.0,0.0,0.0,0.0,0.0,0.0,0.0,0.0,0.0,0.0,0.0,0.0,0.0,0.0,0.0,0.0,-2.7329,-2.4736,-2.4292,-2.4975,-2.3712,-2.228,-2.0989,-2.0892,-1.9889,-1.8752,-1.8936,-1.8721,-1.8037,-1.6299,-1.5859,0.0,0.0,0.0,0.0,0.0,0.0,0.0,0.0,0.0,-1.3917,-1.4466,-1.4965,-1.5801,-1.7242,-1.8471,-1.9246,-1.9453,-2.1095,-2.2153,-2.1722,-2.2568,-2.3232,-2.3154,-2.3135,-2.3135,-2.3135,-2.3135,-2.3135,-2.3135,-2.3135,-2.3135,-2.3135,-2.3135,-2.296,-2.2765,-2.1845,-2.1203,-2.0935,-2.0215,-1.9222,-1.8048,-1.8016,-1.8233,-1.8671,-1.8012,-1.7624,-1.764,-1.7823,-1.6196,-1.332,-1.3068,-1.2788,-1.2592,-1.2592,-1.2303,-1.1944,-1.1891,-1.1683,-1.1396,0.0,0.0,0.0,0.0,0.0,0.0,0.0,0.0,0.0,0.0,0.0,0.0,0.0,0.0,0.0,0.0,0.0,0.0,0.0,0.0,0.0,0.0,0.0,0.0,0.0,0.0,0.0,0.0,0.0,0.0,0.0,0.0,0.0,0.0,0.0,0.0,0.0,0.0,0.0,0.0,0.0,0.0,-2.8487,-2.6229,-2.5405,-2.5486,-2.5375,-2.3663,-2.1591,-2.1688,-2.0647,-1.9465,-2.0131,-2.0049,-1.9365,-1.7666,0.0,-1.5352,-1.4736,-1.4678,-1.4811,-1.4934,-1.5024,-1.553,0.0,0.0,-1.701,-1.7538,-1.7921,-1.8219,-1.8387,-1.9634,-2.0779,-2.1016,-2.2466,-2.3454,-2.292,-2.3378,-2.3574,-2.3184,-2.3135,-2.3135,-2.3135,-2.3135,-2.3135,-2.3135,-2.3135,-2.3135,-2.3135,-2.3135,-2.2589,-2.1569,-2.1382,-2.0755,-1.967,-2.0657,-2.0477,-1.9314,-2.0344,-2.066,-2.0374,-1.9929,-1.9834,-2.012,-1.8563,-1.6942,-1.5323,-1.5348,-1.4652,-1.3528,-1.3528,-1.3004,-1.2225,-1.1964,-1.1683,-1.1423,0.0,0.0,0.0,0.0,0.0,0.0,0.0,0.0,0.0,0.0,0.0,0.0,0.0,0.0,0.0,0.0,0.0,0.0,0.0,0.0,0.0,0.0,0.0,0.0,0.0,0.0,0.0,0.0,0.0,0.0,0.0,0.0,0.0,0.0,0.0,0.0,0.0,0.0,0.0,0.0,0.0,0.0,-2.7773,-2.6202,-2.4988,-2.4071,-2.3766,-2.2213,0.0,0.0,-1.9094,-1.8309,-1.8899,-1.8955,-1.8516,-1.7041,-1.6592,0.0,-1.6348,-1.6475,0.0,0.0,-1.7697,-1.8685,-1.8913,-1.888,-1.9112,-1.9989,-2.0184,-2.0386,-2.1085,-2.1961,-2.2577,0.0,-2.314,-2.3633,-2.3203,-2.3301,-2.3252,-2.2822,-2.2773,-2.2871,-2.3115,-2.3135,-2.3135,-2.3135,-2.3135,-2.3135,-2.3135,-2.3135,-2.2862,-2.2403,-2.2306,-2.2129,-2.1587,-2.2129,-2.1756,-2.0567,-2.1025,-2.0968,-2.0278,-2.0108,-2.019,-2.045,-1.7648,-1.6275,-1.5988,-1.4599,-1.3592,-1.2879,-1.2879,-1.2666,-1.2265,-1.1977,-1.1897,-1.1884,0.0,0.0,0.0,0.0,0.0,0.0,0.0,0.0,0.0,0.0,0.0,0.0,0.0,0.0,0.0,0.0,0.0,0.0,0.0,0.0,0.0,0.0,0.0,0.0,0.0,0.0,0.0,0.0,0.0,0.0,0.0,0.0,0.0,0.0,0.0,0.0,0.0,0.0,0.0,0.0,0.0,0.0,-2.6465,-2.5184,-2.3665,-2.2184,-2.1945,-2.0609,0.0,0.0,-1.761,-1.7081,-1.7581,-1.7691,-1.7471,-1.6523,-1.6699,-1.7148,-1.6904,0.0,0.0,-1.8232,-1.984,-2.114,-2.0328,-2.0592,-2.1194,-2.1859,-2.212,-2.2473,-2.296,-2.3653,-2.384,-2.3184,-2.3506,-2.3633,-2.3203,-2.3135,-2.2988,-2.2568,-2.2412,-2.251,-2.293,-2.2969,-2.3018,-2.3125,-2.3135,-2.3135,-2.3135,-2.3135,-2.3135,-2.3135,-2.3135,-2.3135,-2.3135,-2.3135,-2.2677,-2.1756,-2.1756,-2.1388,-2.0716,-2.0402,-2.0261,-2.006,-1.7768,-1.6801,-1.6809,-1.4942,-1.3797,-1.3212,-1.284,-1.2519,-1.2265,-1.1977,-1.2051,-1.2238,0.0,0.0,0.0,0.0,0.0,0.0,0.0,0.0,0.0,0.0,0.0,0.0,0.0,0.0,0.0,0.0,0.0,0.0,0.0,0.0,0.0,0.0,0.0,0.0,0.0,0.0,0.0,0.0,0.0,0.0,0.0,0.0,0.0,0.0,0.0,0.0,0.0,0.0,0.0,0.0,0.0,0.0,-2.4707,-2.305,-2.1368,-1.9974,-2.0514,0.0,0.0,0.0,-1.6905,-1.5994,-1.6796,-1.69,0.0,-1.6719,-1.6665,0.0,0.0,0.0,-1.8189,-1.8815,-2.0438,-2.182,-2.1465,-2.2598,-2.3524,-2.3135,-2.3963,-2.4372,-2.3299,-2.3973,-2.4392,-2.3309,-2.3506,-2.3633,-2.3203,-2.3135,-2.2988,-2.2568,-2.2158,-2.207,0.0,-2.2529,-2.2705,-2.3105,-2.3135,-2.3135,-2.3135,-2.3135,-2.3135,-2.3135,-2.3135,-2.3135,-2.3135,-2.3135,-2.3047,-2.3047,-2.3047,-2.2823,-2.2376,-2.1549,-2.0429,-1.9116,-2.007,-1.958,-1.8231,-1.7845,-1.6915,-1.5569,-1.4221,-1.3098,-1.2265,-1.1977,-1.2051,-1.2298,0.0,0.0,0.0,0.0,0.0,0.0,0.0,0.0,0.0,0.0,0.0,0.0,0.0,0.0,0.0,0.0,0.0,0.0,0.0,0.0,0.0,0.0,0.0,0.0,0.0,0.0,0.0,0.0,0.0,0.0,0.0,0.0,0.0,0.0,0.0,0.0,0.0,0.0,0.0,0.0,0.0,0.0,-2.2975,-2.1292,-1.9849,-1.8719,0.0,0.0,0.0,0.0,0.0,0.0,-1.5185,0.0,0.0,-1.5605,-1.6064,-1.6533,0.0,0.0,-2.0343,-2.1154,-2.2244,-2.3203,-2.3386,-2.3606,-2.3662,-2.3232,-2.3096,-2.2948,-2.2271,-2.273,-2.303,-2.2625,-2.3021,-2.3307,-2.3163,-2.3135,-2.2881,-2.2178,-2.2217,0.0,0.0,0.0,0.0,-2.3105,-2.3135,-2.3135,-2.3135,-2.3135,-2.3135,-2.3135,-2.3135,-2.3135,-2.3135,-2.3135,-2.3135,-2.3135,-2.2578,-2.208,-2.165,-2.1055,-2.0546,-2.0001,-1.9678,-1.8722,-1.7294,-1.6239,-1.5111,-1.4007,-1.3388,-1.2893,-1.2605,-1.2719,-1.2692,-1.2538,0.0,0.0,0.0,0.0,0.0,0.0,0.0,0.0,0.0,0.0,0.0,0.0,0.0,0.0,0.0,0.0,0.0,0.0,0.0,0.0,0.0,0.0,0.0,0.0,0.0,0.0,0.0,0.0,0.0,0.0,0.0,0.0,0.0,0.0,0.0,0.0,0.0,0.0,0.0,0.0,0.0,0.0,-2.0978,-1.9497,-1.8236,0.0,0.0,0.0,0.0,0.0,0.0,0.0,0.0,-1.4408,-1.4551,-1.5215,-1.6162,-1.7353,0.0,-2.0469,-2.1709,-2.2715,-2.3496,-2.4043,-2.417,-2.3867,-2.3438,-2.2928,-2.2551,-2.2252,-2.1734,-2.1827,-2.2103,-2.2295,-2.2278,-2.2541,-2.3028,-2.2847,-2.2549,-2.2158,-2.2217,-2.2236,0.0,0.0,0.0,-2.3105,-2.3135,-2.3135,-2.3135,-2.3135,-2.3135,-2.3135,-2.3135,-2.3135,-2.3135,-2.3135,-2.3066,-2.291,-2.2217,-2.165,-2.1221,-2.0771,-2.0566,-2.0566,-1.9441,-1.8488,-1.7499,-1.5732,-1.4596,-1.3877,-1.3182,-1.2913,-1.2933,-1.3133,-1.3086,-1.2859,0.0,0.0,0.0,0.0,0.0,0.0,0.0,0.0,0.0,0.0,0.0,0.0,0.0,0.0,0.0,0.0,0.0,0.0,0.0,0.0,0.0,0.0,0.0,0.0,0.0,0.0,0.0,0.0,0.0,0.0,0.0,0.0,0.0,0.0,0.0,0.0,0.0,0.0,0.0,0.0,0.0,0.0,-1.8783,-1.7693,0.0,0.0,0.0,0.0,0.0,0.0,0.0,0.0,0.0,0.0,-1.6056,-1.5674,-1.7061,-1.8896,-1.9775,-2.0977,-2.2275,-2.3486,-2.4102,-2.4307,-2.3857,-2.3398,-2.2932,-2.2308,-2.2274,-2.2114,0.0,0.0,-2.1585,-2.2088,-2.1491,-2.146,-2.2886,-2.2399,-2.209,0.0,0.0,0.0,0.0,0.0,0.0,-2.3105,0.0,-2.3135,-2.3135,-2.3135,-2.3135,-2.3135,-2.3135,-2.3135,-2.3135,-2.3047,-2.2843,-2.251,-2.1997,-2.1568,-2.1221,-2.0771,-2.0566,-2.0566,-1.9441,-1.8957,-1.8762,-1.6309,-1.5305,-1.513,-1.3732,-1.3233,-1.3233,-1.3253,-1.3247,-1.3233,0.0,0.0,0.0,0.0,0.0,0.0,0.0,0.0,0.0,0.0,0.0,0.0,0.0,0.0,0.0,0.0,0.0,0.0,0.0,0.0,0.0,0.0,0.0,0.0,0.0,0.0,0.0,0.0,0.0,0.0,0.0,0.0,0.0,0.0,0.0,0.0,0.0,0.0,0.0,0.0,0.0,0.0,-1.7668,0.0,0.0,0.0,0.0,0.0,0.0,0.0,0.0,0.0,0.0,0.0,-1.6289,-1.7471,-1.8652,-1.9853,-2.1055,-2.2324,-2.3379,-2.3711,-2.4102,-2.4228,-2.3486,-2.2894,-2.2109,-2.0984,-2.0302,-1.9767,0.0,0.0,0.0,-2.0643,-2.1659,0.0,-2.2639,-2.2703,0.0,0.0,0.0,-2.2744,-2.2539,-2.2793,0.0,0.0,-2.3135,-2.3135,-2.3135,-2.3135,-2.3135,-2.3135,-2.3135,-2.3135,-2.3135,-2.2217,-2.2011,-2.251,-2.1109,-2.078,-2.1221,-2.0771,-2.0566,-2.0566,-1.9441,-1.8559,-1.7632,-1.5989,-1.4969,-1.4345,-1.3722,-1.3534,-1.3561,-1.3781,-1.3721,-1.3567,0.0,0.0,0.0,0.0,0.0,0.0,0.0,0.0,0.0,0.0,0.0,0.0,0.0,0.0,0.0,0.0,0.0,0.0,0.0,0.0,0.0,0.0,0.0,0.0,0.0,0.0,0.0,0.0,0.0,0.0,0.0,0.0,0.0,0.0,0.0,0.0,0.0,0.0,0.0,0.0,0.0,0.0,0.0,0.0,0.0,0.0,0.0,0.0,0.0,0.0,0.0,-1.5532,-1.5327,-1.6421,-1.7978,-1.9141,0.0,-2.125,-2.2187,-2.3369,-2.4258,-2.3887,-2.3965,-2.3859,-2.2671,-2.1857,-2.0968,-1.9852,-1.8988,0.0,0.0,0.0,0.0,0.0,0.0,0.0,-2.219,-2.2438,-2.2637,0.0,-2.2998,0.0,-2.2812,-2.2998,-2.3135,0.0,-2.3135,-2.3135,-2.3135,-2.3135,-2.3135,-2.3135,-2.3135,-2.2862,-2.2306,-2.1658,-2.1465,-2.1702,-2.1287,-2.1229,-2.1504,-2.1064,-2.0613,-2.0099,0.0,-1.7658,-1.6503,-1.5271,-1.4504,-1.4075,-1.3901,-1.3915,-1.4035,-1.4068,-1.4062,-1.4035,0.0,0.0,0.0,0.0,0.0,0.0,0.0,0.0,0.0,0.0,0.0,0.0,0.0,0.0,0.0,0.0,0.0,0.0,0.0,0.0,0.0,0.0,0.0,0.0,0.0,0.0,0.0,0.0,0.0,0.0,0.0,0.0,0.0,0.0,0.0,0.0,0.0,0.0,0.0,0.0,0.0,0.0,0.0,0.0,0.0,0.0,0.0,0.0,0.0,0.0,-1.4893,-1.6185,-1.6326,-1.8071,-2.0185,-2.0684,-2.1621,-2.2607,-2.3027,-2.3994,-2.48,-2.4077,-2.3742,-2.324,-2.1947,-2.0751,-1.9765,-1.8942,0.0,-1.7502,-1.7912,0.0,-1.7881,-1.9014,0.0,-1.9943,-2.1499,-2.173,-2.2109,-2.2959,-2.3105,-2.3135,-2.3135,-2.3135,-2.3135,-2.3135,-2.3135,-2.3135,-2.3135,-2.3135,-2.3135,-2.3135,-2.3135,-2.2589,-2.1569,-2.1382,-2.1219,-2.1058,-2.176,-2.2058,-2.1865,-2.1377,-2.0633,-1.9607,-1.8044,-1.6764,-1.5786,-1.4614,-1.4142,-1.4148,-1.4188,-1.4355,-1.4549,-1.4295,-1.4335,-1.4482,0.0,0.0,0.0,0.0,0.0,0.0,0.0,0.0,0.0,0.0,0.0,0.0,0.0,0.0,0.0,0.0,0.0,0.0,0.0,0.0,0.0,0.0,0.0,0.0,0.0,0.0,0.0,0.0,0.0,0.0,0.0,0.0,0.0,0.0,0.0,0.0,0.0,0.0,0.0,0.0,0.0,0.0,0.0,0.0,0.0,0.0,0.0,0.0,0.0,0.0,-1.5144,-1.6821,-1.8238,-1.9742,-2.1162,-2.1943,-2.2334,-2.2607,-2.3027,-2.3564,-2.4147,-2.4543,-2.3649,-2.2665,-2.2424,-2.0552,0.0,0.0,0.0,-1.669,-1.6779,-1.7501,0.0,-1.8126,0.0,0.0,0.0,0.0,-2.167,0.0,0.0,0.0,0.0,0.0,0.0,0.0,0.0,-2.3135,-2.3135,-2.3135,-2.3135,-2.3135,-2.3135,-2.296,-2.2775,-2.1756,-2.1808,-2.2659,-2.1154,-2.0978,-2.1855,-2.1055,-2.0596,-2.0341,-1.8175,0.0,-1.687,-1.5177,-1.4442,-1.4469,-1.4716,-1.4843,-1.4877,-1.483,-1.4689,-1.4509,0.0,0.0,0.0,0.0,0.0,0.0,0.0,0.0,0.0,0.0,0.0,0.0,0.0,0.0,0.0,0.0,0.0,0.0,0.0,0.0,0.0,0.0,0.0,0.0,0.0,0.0,0.0,0.0,0.0,0.0,0.0,0.0,0.0,0.0,0.0,0.0,0.0,0.0,0.0,0.0,0.0,0.0,0.0,0.0,0.0,0.0,0.0,0.0,0.0,0.0,-1.4896,-1.634,-1.8275,-2.011,-2.1699,-2.2324,-2.2666,-2.293,-2.3359,-2.3789,-2.4094,-2.4263,-2.3297,-2.2168,-2.1301,0.0,0.0,0.0,0.0,-1.6522,-1.6522,0.0,0.0,0.0,0.0,0.0,0.0,0.0,0.0,0.0,0.0,0.0,0.0,0.0,0.0,0.0,0.0,-2.3135,-2.3135,-2.3135,-2.3135,-2.3135,-2.2492,-2.2129,-2.2129,-2.1569,-2.1469,-2.1811,-2.1504,-2.1588,-2.2187,-2.1543,-2.0989,-2.0295,-1.8439,-1.7179,-1.6386,-1.5063,-1.4522,-1.4549,-1.485,-1.5057,-1.517,-1.5017,-1.4877,-1.473,0.0,0.0,0.0,0.0,0.0,0.0,0.0,0.0,0.0,0.0,0.0,0.0,0.0,0.0,0.0,0.0,0.0,0.0,0.0,0.0,0.0,0.0,0.0,0.0,0.0,0.0,0.0,0.0,0.0,0.0,0.0,0.0,0.0,0.0,0.0,0.0,0.0,0.0,0.0,0.0,0.0,0.0,0.0,0.0,0.0,0.0,0.0,0.0,0.0,0.0,-1.4537,-1.5596,-1.7399,-1.943,-2.1289,-2.1807,-2.2324,-2.2842,-2.3379,-2.3828,-2.4062,-2.3989,-2.2938,-2.1551,-2.04,-1.9064,0.0,0.0,-1.638,-1.6293,-1.6293,0.0,0.0,0.0,0.0,0.0,0.0,0.0,0.0,0.0,0.0,0.0,0.0,0.0,0.0,0.0,0.0,0.0,-2.3135,-2.3135,-2.3135,-2.3135,-2.2217,-2.1667,-2.1667,-2.1667,-2.1511,-2.12,-2.2102,-2.251,-2.25,-2.181,-2.1172,-2.0448,-1.8456,-1.7088,-1.6179,-1.5109,-1.4649,-1.4736,-1.5037,-1.5291,-1.5464,-1.5237,-1.507,-1.493,0.0,0.0,0.0,0.0,0.0,0.0,0.0,0.0,0.0,0.0,0.0,0.0,0.0,0.0,0.0,0.0,0.0,0.0,0.0,0.0,0.0,0.0,0.0,0.0,0.0,0.0,0.0,0.0,0.0,0.0,0.0,0.0,0.0,0.0,0.0,0.0,0.0,0.0,0.0,0.0,0.0,0.0,0.0,0.0,0.0,0.0,0.0,0.0,0.0,0.0,0.0,-1.509,-1.6017,-1.7502,-1.9092,-1.9912,0.0,0.0,-2.2402,-2.2939,-2.3495,-2.4444,-2.2542,-2.0589,-2.1213,0.0,0.0,0.0,-1.6051,-1.5676,-1.5676,-1.5232,0.0,0.0,0.0,0.0,0.0,0.0,0.0,0.0,0.0,0.0,0.0,0.0,0.0,0.0,0.0,0.0,-2.3135,-2.3135,-2.3135,-2.3135,-2.296,-2.295,-2.295,-2.295,-2.294,-2.2892,-2.26,-2.251,-2.2415,-2.0912,-2.0736,-2.1505,-1.785,-1.7017,0.0,-1.586,-1.5077,-1.5344,-1.5638,-1.5765,-1.5785,-1.5758,-1.5418,-1.4963,0.0,0.0,0.0,0.0,0.0,0.0,0.0,0.0,0.0,0.0,0.0,0.0,0.0,0.0,0.0,0.0,0.0,0.0,0.0,0.0,0.0,0.0,0.0,0.0,0.0,0.0,0.0,0.0,0.0,0.0,0.0,0.0,0.0,0.0,0.0,0.0,0.0,0.0,0.0,0.0,0.0,0.0,0.0,0.0,0.0,0.0,0.0,0.0,0.0,0.0,0.0,0.0,-1.3738,-1.458,0.0,0.0,-2.0066,-2.1609,-2.251,-2.339,-2.431,-2.5096,-2.2897,-2.0557,-2.0945,0.0,0.0,-1.6122,-1.5776,-1.5499,-1.5152,-1.456,-1.4178,0.0,0.0,0.0,0.0,0.0,0.0,0.0,0.0,0.0,0.0,0.0,0.0,0.0,0.0,0.0,-2.3135,-2.3135,-2.3135,-2.3135,-2.3135,-2.3135,-2.3135,-2.2891,-2.2764,-2.2754,-2.207,-2.1885,-2.2129,-2.0633,-2.0298,-2.0568,-1.7953,-1.6991,0.0,-1.5854,-1.519,-1.5164,-1.5451,-1.5464,-1.5311,-1.5311,-1.505,-1.4696,0.0,0.0,0.0,0.0,0.0,0.0,0.0,0.0,0.0,0.0,0.0,0.0,0.0,0.0,0.0,0.0,0.0,0.0,0.0,0.0,0.0,0.0,0.0,0.0,0.0,0.0,0.0,0.0,0.0,0.0,0.0,0.0,0.0,0.0,0.0,0.0,0.0,0.0,0.0,0.0,0.0,0.0,0.0,0.0,0.0,0.0,0.0,0.0,0.0,0.0,0.0,0.0,0.0,0.0,0.0,0.0,-1.869,-2.0448,-2.1945,-2.2981,-2.3847,-2.4469,-2.2528,-2.0392,0.0,0.0,-1.6866,-1.5804,-1.5454,-1.5141,-1.456,-1.392,-1.3552,0.0,0.0,0.0,0.0,0.0,0.0,0.0,0.0,0.0,0.0,0.0,0.0,0.0,0.0,0.0,-2.3135,-2.3018,-2.2949,-2.2949,-2.2949,-2.2949,-2.2949,-2.2539,-2.2383,-2.25,-2.1777,-2.165,-2.207,-2.0743,-2.0269,-2.03,-1.816,-1.7086,0.0,-1.5789,-1.5277,-1.511,-1.5317,-1.5217,-1.4963,-1.4963,-1.4776,-1.4522,0.0,0.0,0.0,0.0,0.0,0.0,0.0,0.0,0.0,0.0,0.0,0.0,0.0,0.0,0.0,0.0,0.0,0.0,0.0,0.0,0.0,0.0,0.0,0.0,0.0,0.0,0.0,0.0,0.0,0.0,0.0,0.0,0.0,0.0,0.0,0.0,0.0,0.0,0.0,0.0,0.0,0.0,0.0,0.0,0.0,0.0,0.0,0.0,0.0,0.0,0.0,0.0,0.0,0.0,0.0,0.0,-1.6195,-1.7352,-2.0191,-2.1107,-2.1376,-2.2176,-2.1025,-1.9645,0.0,0.0,-1.6337,-1.5732,-1.5152,-1.4514,-1.3909,-1.3334,-1.2929,-1.2929,0.0,0.0,0.0,0.0,0.0,0.0,0.0,0.0,0.0,0.0,0.0,0.0,0.0,0.0,-2.3135,-2.2744,-2.2519,-2.2519,-2.2519,-2.2519,-2.2519,-2.21,-2.21,-2.251,-2.208,-2.21,-2.2415,-2.1244,-2.0923,-2.1167,-1.8367,-1.7355,0.0,-1.6061,-1.5398,-1.5391,-1.5398,-1.5217,-1.4963,-1.4963,-1.4776,-1.4522,0.0,0.0,0.0,0.0,0.0,0.0,0.0,0.0,0.0,0.0,0.0,0.0,0.0,0.0,0.0,0.0,0.0,0.0,0.0,0.0,0.0,0.0,0.0,0.0,0.0,0.0,0.0,0.0,0.0,0.0,0.0,0.0,0.0,0.0,0.0,0.0,0.0,0.0,0.0,0.0,0.0,0.0,0.0,0.0,0.0,0.0,0.0,0.0,0.0,0.0,0.0,0.0,0.0,0.0,0.0,0.0,0.0,0.0,-1.9007,-2.0317,-2.1567,-2.2151,-2.0511,-1.8768,-1.8964,-1.7684,-1.6324,-1.572,-1.5096,-1.4514,-1.3909,-1.3334,-1.2881,-1.2881,0.0,0.0,0.0,0.0,0.0,0.0,0.0,0.0,0.0,0.0,0.0,0.0,0.0,0.0,-2.2725,-2.2588,-2.251,-2.251,-2.2236,-2.209,-2.209,-2.166,-2.166,-2.208,-2.165,-2.1514,-2.1568,-2.0624,-2.0287,0.0,-1.8079,-1.7221,-1.7227,-1.5971,-1.5157,-1.4796,-1.4796,-1.4623,-1.4362,-1.4362,-1.4309,-1.4195,0.0,0.0,0.0,0.0,0.0,0.0,0.0,0.0,0.0,0.0,0.0,0.0,0.0,0.0,0.0,0.0,0.0,0.0,0.0,0.0,0.0,0.0,0.0,0.0,0.0,0.0,0.0,0.0,0.0,0.0,0.0,0.0,0.0,0.0,0.0,0.0,0.0,0.0,0.0,0.0,0.0,0.0,-0.9145,0.0,0.0,0.0,0.0,0.0,0.0,0.0,0.0,0.0,0.0,0.0,0.0,0.0,0.0,0.0,0.0,-1.8959,-2.0046,-2.0871,-1.9638,0.0,0.0,-1.7275,-1.6033,-1.5374,-1.4663,-1.3993,-1.3538,-1.3012,-1.2686,-1.2852,0.0,0.0,0.0,0.0,0.0,0.0,0.0,0.0,0.0,0.0,0.0,0.0,0.0,0.0,-2.2295,-2.2119,-2.2031,-2.2031,-2.1777,-2.1641,-2.1641,-2.1201,-2.1201,-2.1641,-2.1191,-2.1074,-2.116,-2.0649,-2.0078,-1.9366,-1.8026,-1.7071,0.0,-1.5581,-1.495,-1.4522,-1.4522,-1.4342,-1.4088,-1.4088,-1.4015,-1.3895,0.0,0.0,0.0,0.0,0.0,0.0,0.0,0.0,0.0,0.0,0.0,0.0,0.0,0.0,0.0,0.0,0.0,0.0,0.0,0.0,0.0,0.0,0.0,0.0,0.0,0.0,0.0,-0.7704,-0.6689,-0.6227,-0.6184,0.0,0.0,0.0,0.0,0.0,0.0,-0.6505,-0.651,-0.6354,-0.7113,-0.7787,0.0,0.0,0.0,0.0,0.0,0.0,0.0,0.0,0.0,0.0,0.0,0.0,0.0,0.0,0.0,0.0,0.0,0.0,0.0,0.0,0.0,0.0,0.0,-1.6421,0.0,-1.4901,-1.3935,-1.314,-1.3,-1.2547,-1.2373,-1.2812,0.0,0.0,0.0,0.0,0.0,0.0,0.0,0.0,0.0,0.0,0.0,0.0,0.0,0.0,-2.1748,-2.1357,-2.1123,-2.1094,-2.1123,-2.1152,-2.1182,-2.0771,-2.0781,-2.1182,-2.0801,-2.081,-2.1021,-2.105,-2.009,0.0,-1.8288,-1.7003,-1.5102,-1.5019,-1.4756,-1.4489,-1.4489,-1.4322,-1.4082,-1.4062,-1.3895,-1.3667,0.0,0.0,0.0,0.0,0.0,0.0,0.0,0.0,0.0,0.0,0.0,0.0,0.0,0.0,0.0,0.0,0.0,0.0,0.0,0.0,0.0,0.0,0.0,0.0,0.0,0.0,0.0,-0.5905,-0.6209,-0.6307,-0.619,-0.6527,0.0,0.0,0.0,-0.5597,-0.5879,-0.6718,-0.7078,-0.7166,-0.7671,-0.8403,0.0,0.0,0.0,0.0,-1.1774,-1.1884,0.0,0.0,0.0,0.0,0.0,0.0,0.0,0.0,-1.2477,-1.2994,-1.4487,0.0,-1.5504,-1.5765,0.0,0.0,0.0,0.0,0.0,0.0,0.0,0.0,0.0,0.0,0.0,0.0,0.0,0.0,0.0,0.0,0.0,0.0,0.0,0.0,0.0,0.0,0.0,0.0,0.0,-2.1094,-2.041,-2.0283,-2.0078,-1.9756,-2.0059,-2.0381,-2.0723,-2.0615,-2.0615,-2.0723,-2.0967,-2.0541,-1.9519,-1.9823,-1.9259,-1.8011,-1.7063,-1.6387,-1.5878,-1.4959,-1.4456,-1.4188,-1.4188,-1.4148,-1.4062,-1.3834,-1.3848,-1.3888,0.0,0.0,0.0,0.0,0.0,0.0,0.0,0.0,0.0,0.0,0.0,0.0,0.0,0.0,0.0,0.0,0.0,0.0,0.0,0.0,0.0,0.0,0.0,0.0,0.0,0.0,0.0,0.0,0.0,-0.5867,0.0,0.0,0.0,0.0,0.0,-0.5776,-0.5745,-0.6433,-0.6713,-0.6651,-0.7051,0.0,0.0,0.0,0.0,0.0,-1.17,-1.1957,0.0,-1.1884,-1.1811,-1.174,0.0,0.0,0.0,0.0,-1.214,-1.2375,-1.3415,-1.4299,-1.4966,-1.523,-1.5254,-1.5329,0.0,0.0,0.0,0.0,0.0,0.0,0.0,0.0,0.0,0.0,0.0,0.0,0.0,0.0,0.0,0.0,0.0,0.0,0.0,0.0,0.0,0.0,0.0,-2.0137,-1.9648,-1.9629,-1.9521,-1.9297,-1.9512,-1.9834,-2.0264,-2.0469,-2.0566,-2.0566,-2.081,-2.0229,-1.9045,-1.9254,-1.8452,-1.6885,-1.6209,-1.5712,-1.5227,-1.4566,-1.4229,-1.4088,-1.4088,-1.4001,-1.3868,-1.3701,-1.3661,-1.3594,0.0,0.0,0.0,0.0,0.0,0.0,0.0,0.0,0.0,0.0,0.0,0.0,0.0,0.0,0.0,0.0,0.0,0.0,0.0,0.0,0.0,0.0,0.0,0.0,0.0,0.0,0.0,0.0,0.0,0.0,0.0,0.0,-0.6242,0.0,0.0,-0.6079,-0.5847,-0.6114,-0.6108,-0.5944,-0.6289,0.0,0.0,0.0,0.0,0.0,0.0,0.0,0.0,-1.1872,-1.181,-1.1788,-1.1206,0.0,0.0,0.0,0.0,0.0,-1.2846,-1.391,-1.4878,-1.5229,-1.5442,-1.5567,0.0,0.0,0.0,0.0,0.0,0.0,0.0,0.0,0.0,0.0,0.0,0.0,0.0,0.0,0.0,0.0,0.0,0.0,0.0,0.0,0.0,0.0,0.0,-1.916,-1.9092,-1.9092,-1.9092,-1.9092,-1.915,-1.9355,-1.9717,-2.0156,-2.04,-2.0469,-2.04,-1.9839,-1.8867,-1.8813,-1.7649,-1.571,0.0,0.0,-1.426,-1.4052,-1.3981,-1.4015,-1.3968,-1.3801,-1.3492,-1.3527,-1.338,-1.3166,0.0,0.0,0.0,0.0,0.0,0.0,0.0,0.0,0.0,0.0,0.0,0.0,0.0,0.0,0.0,0.0,0.0,0.0,0.0,0.0,0.0,0.0,0.0,0.0,0.0,0.0,0.0,0.0,0.0,0.0,-0.5682,-0.6698,-0.6804,-0.6164,-0.6381,-0.6435,-0.6357,-0.6307,-0.6473,-0.6792,-0.6947,0.0,0.0,0.0,0.0,0.0,0.0,0.0,0.0,-1.1504,-1.1918,-1.2201,-1.1647,0.0,0.0,0.0,0.0,0.0,-1.2484,-1.3333,-1.4123,-1.3709,-1.4312,-1.5029,0.0,0.0,0.0,0.0,0.0,0.0,0.0,0.0,0.0,0.0,0.0,0.0,0.0,0.0,0.0,0.0,0.0,0.0,0.0,0.0,0.0,0.0,0.0,-1.8584,-1.8223,-1.8203,-1.8203,-1.8203,-1.8545,-1.8769,-1.8838,-1.9268,-1.9658,-2.001,-1.9658,-1.9136,-1.8366,-1.8033,-1.7182,-1.5931,0.0,-1.48,-1.4881,-1.3755,-1.3487,-1.3687,-1.344,-1.332,-1.324,-1.2986,-1.3019,-1.3166,0.0,0.0,0.0,0.0,0.0,0.0,0.0,0.0,0.0,0.0,0.0,0.0,0.0,0.0,0.0,0.0,0.0,0.0,0.0,0.0,0.0,0.0,0.0,0.0,0.0,0.0,0.0,0.0,0.0,-0.5991,-0.5996,-0.6843,-0.7227,-0.7174,-0.6816,-0.6553,-0.6306,-0.6096,-0.6089,-0.6299,0.0,0.0,0.0,0.0,0.0,0.0,0.0,0.0,0.0,0.0,-1.1751,-1.1864,-1.1299,0.0,0.0,0.0,0.0,0.0,-1.1876,-1.2768,-1.3408,-1.2554,-1.3396,-1.4387,0.0,0.0,0.0,0.0,0.0,0.0,0.0,0.0,0.0,0.0,0.0,0.0,0.0,0.0,0.0,0.0,0.0,0.0,0.0,0.0,0.0,0.0,0.0,0.0,-1.7334,-1.7549,-1.7559,-1.7324,-1.7293,-1.733,-1.7541,-1.7598,-1.8014,-1.8807,-1.8072,-1.7238,-1.6415,-1.625,-1.5565,-1.4499,0.0,-1.4202,-1.4784,-1.365,-1.3598,-1.4085,-1.3412,-1.3106,-1.2946,-1.2876,-1.2732,-1.2719,0.0,0.0,0.0,0.0,0.0,0.0,0.0,0.0,0.0,0.0,0.0,0.0,0.0,0.0,0.0,0.0,0.0,0.0,0.0,0.0,0.0,0.0,0.0,0.0,0.0,0.0,-0.392,-0.4387,-0.5353,-0.6125,-0.6692,-0.7261,-0.7691,0.0,-0.728,-0.6723,-0.6249,-0.5875,-0.5671,-0.5625,0.0,0.0,0.0,0.0,0.0,0.0,0.0,0.0,0.0,0.0,0.0,0.0,0.0,0.0,0.0,-1.0543,-1.0593,-1.0794,-1.1261,-1.219,-1.2735,0.0,0.0,0.0,0.0,0.0,0.0,0.0,0.0,0.0,0.0,0.0,0.0,0.0,0.0,0.0,0.0,0.0,0.0,0.0,0.0,0.0,0.0,0.0,0.0,0.0,0.0,0.0,-1.6665,-1.7051,-1.708,-1.6685,-1.643,-1.6374,-1.6675,-1.5964,-1.6396,-1.788,-1.6954,-1.6096,-1.5363,-1.4971,-1.4305,-1.3571,-1.3348,-1.3683,-1.4347,-1.3374,-1.3445,-1.3964,-1.3297,-1.2852,-1.2721,-1.2721,-1.2498,-1.2338,0.0,0.0,0.0,0.0,0.0,0.0,0.0,0.0,0.0,0.0,0.0,0.0,0.0,0.0,0.0,0.0,0.0,0.0,0.0,0.0,0.0,0.0,0.0,0.0,0.0,-0.4208,-0.4639,-0.4387,-0.6352,-0.7613,-0.8136,-0.831,-0.831,-0.8155,-0.7731,-0.7153,-0.6432,-0.5916,-0.5558,-0.5342,-0.5354,0.0,0.0,0.0,0.0,0.0,0.0,0.0,0.0,0.0,0.0,0.0,0.0,0.0,-1.0593,-1.0106,-1.032,-1.0706,-1.0744,-1.1583,-1.2203,-1.1044,0.0,0.0,0.0,0.0,0.0,0.0,0.0,0.0,0.0,0.0,0.0,0.0,0.0,0.0,0.0,0.0,0.0,0.0,0.0,0.0,0.0,0.0,0.0,0.0,0.0,0.0,-1.6665,-1.6758,-1.6758,-1.6665,-1.6694,-1.6694,-1.6665,-1.5041,-1.5521,-1.7959,-1.7014,-1.6705,-1.6973,-1.539,-1.4665,-1.4527,-1.3637,-1.3465,-1.3667,-1.2728,-1.2365,-1.2439,-1.2365,-1.2351,-1.2338,-1.2338,-1.2318,-1.2305,0.0,0.0,0.0,0.0,0.0,0.0,0.0,0.0,0.0,0.0,0.0,0.0,0.0,0.0,0.0,0.0,0.0,0.0,0.0,0.0,0.0,0.0,0.0,-0.2926,-0.3419,-0.4014,-0.4545,-0.4957,-0.6821,-0.8007,-0.854,-0.8311,0.0,0.0,-0.7134,-0.6495,-0.5997,-0.5617,-0.5484,-0.5531,-0.5351,-0.5309,0.0,0.0,0.0,0.0,0.0,0.0,0.0,0.0,-1.0353,-1.047,0.0,0.0,-1.0169,-0.9956,-1.0044,-1.0207,-1.0207,-1.1035,-1.1713,-1.0894,0.0,0.0,0.0,0.0,0.0,0.0,0.0,0.0,0.0,0.0,0.0,0.0,0.0,0.0,0.0,0.0,0.0,0.0,0.0,0.0,0.0,0.0,0.0,0.0,0.0,0.0,-1.5898,-1.5908,-1.5908,-1.5908,-1.5157,-1.4917,-1.5172,-1.3772,-1.3762,-1.5216,-1.3966,-1.3738,-1.4356,-1.3187,-1.2945,-1.3429,-1.2474,-1.2546,-1.3162,-1.2379,-1.2274,-1.2613,-1.2244,-1.2144,-1.2305,-1.2305,-1.2305,-1.2305,0.0,0.0,0.0,0.0,0.0,0.0,0.0,0.0,0.0,0.0,0.0,0.0,0.0,0.0,0.0,0.0,0.0,0.0,0.0,0.0,0.0,0.0,0.0,-0.2897,-0.3365,-0.3884,-0.4563,-0.5413,-0.7099,-0.8003,-0.8172,0.0,0.0,0.0,0.0,0.0,-0.5698,-0.5498,-0.5569,-0.575,-0.5575,-0.5554,0.0,0.0,0.0,0.0,0.0,0.0,0.0,0.0,-1.0616,0.0,0.0,0.0,0.0,0.0,-1.0187,-1.0085,-1.0145,-1.0721,-1.1144,0.0,0.0,0.0,0.0,0.0,0.0,0.0,0.0,0.0,0.0,0.0,0.0,0.0,0.0,0.0,0.0,0.0,0.0,0.0,0.0,0.0,0.0,0.0,0.0,0.0,0.0,0.0,0.0,-1.485,-1.4659,-1.4659,-1.3795,-1.3449,-1.367,-1.2583,-1.2328,-1.2889,-1.161,-1.1622,-1.2714,-1.1736,-1.1755,-1.2484,-1.1875,-1.2009,-1.2639,-1.2296,-1.229,-1.2535,-1.1963,-1.1964,-1.2305,-1.2305,-1.2245,-1.2164,0.0,0.0,0.0,0.0,0.0,0.0,0.0,0.0,0.0,0.0,0.0,0.0,0.0,0.0,0.0,0.0,0.0,0.0,0.0,0.0,0.0,0.0,0.0,-0.2764,-0.2903,-0.3894,-0.4834,-0.5711,-0.7161,-0.7598,-0.7006,-0.7696,0.0,0.0,0.0,0.0,0.0,0.0,-0.5795,-0.5921,-0.5913,-0.616,-0.6601,0.0,0.0,0.0,0.0,0.0,0.0,0.0,-1.1089,0.0,0.0,0.0,0.0,0.0,-1.082,-1.0428,-1.0653,-1.0694,0.0,0.0,0.0,0.0,0.0,0.0,0.0,0.0,0.0,0.0,0.0,0.0,0.0,0.0,0.0,0.0,0.0,0.0,0.0,0.0,0.0,0.0,0.0,0.0,0.0,0.0,0.0,0.0,0.0,-1.37,-1.3086,-1.3086,-1.2797,-1.2589,-1.2589,-1.1744,-1.1264,-1.1271,-1.0463,-1.1066,-1.2818,-1.1574,-1.1428,-1.2178,-1.2186,-1.2186,-1.2208,-1.2565,-1.2351,-1.1908,-1.1536,-1.1777,-1.2291,-1.2291,-1.2111,-1.1864,0.0,0.0,0.0,0.0,0.0,0.0,0.0,0.0,0.0,0.0,0.0,0.0,0.0,0.0,0.0,0.0,0.0,0.0,0.0,0.0,0.0,0.0,0.0,0.0,0.0,0.0,-0.5294,-0.6053,-0.6852,-0.7167,0.0,0.0,0.0,-0.697,0.0,0.0,0.0,-0.6036,-0.6139,-0.6578,-0.6401,-0.6532,-0.6925,0.0,0.0,0.0,0.0,0.0,0.0,0.0,0.0,0.0,0.0,0.0,0.0,-1.0986,-1.0664,-1.0428,-1.0653,0.0,0.0,0.0,0.0,0.0,0.0,0.0,0.0,0.0,0.0,0.0,0.0,0.0,0.0,0.0,0.0,0.0,0.0,0.0,0.0,0.0,0.0,0.0,0.0,0.0,0.0,0.0,0.0,0.0,0.0,-1.3705,-1.3284,-1.3132,-1.2466,-1.1898,-1.1402,-1.0603,-1.0151,-1.0151,-0.9924,-1.052,-1.172,-1.1066,-1.1495,-1.2725,-1.2165,-1.2227,-1.2733,-1.2279,-1.2211,-1.2355,-1.1505,-1.1349,-1.1683,-1.1683,-1.163,-1.1557,0.0,0.0,0.0,0.0,0.0,0.0,0.0,0.0,0.0,0.0,0.0,0.0,0.0,0.0,0.0,0.0,0.0,0.0,0.0,0.0,0.0,0.0,0.0,0.0,0.0,-0.3803,-0.4762,0.0,0.0,0.0,0.0,0.0,0.0,-0.6702,0.0,-0.6579,0.0,0.0,-0.6457,-0.6975,-0.6815,-0.7041,-0.7579,0.0,0.0,0.0,0.0,0.0,0.0,0.0,0.0,0.0,0.0,0.0,0.0,-1.1376,-1.0973,-1.0616,-1.068,0.0,0.0,0.0,0.0,0.0,0.0,0.0,0.0,0.0,0.0,0.0,0.0,0.0,0.0,0.0,0.0,0.0,0.0,0.0,0.0,0.0,0.0,0.0,0.0,0.0,0.0,0.0,0.0,0.0,0.0,-1.3202,-1.2772,-1.2597,-1.1984,-1.1469,-1.1091,-1.0599,-1.0333,-1.0333,-1.0059,-1.0428,-1.129,-1.0541,-1.0988,-1.2305,-1.2265,-1.2757,-1.3425,-1.2634,-1.253,-1.2887,-1.2217,-1.1954,-1.1901,-1.1901,-1.1621,-1.1249,0.0,0.0,0.0,0.0,0.0,0.0,0.0,0.0,0.0,0.0,0.0,0.0,0.0,0.0,0.0,0.0,0.0,0.0,0.0,0.0,0.0,0.0,0.0,0.0,0.0,0.0,0.0,0.0,0.0,0.0,0.0,0.0,-0.6966,-0.6316,0.0,-0.6885,0.0,-0.6667,-0.679,-0.7148,-0.7207,-0.7676,-0.8421,-0.9097,0.0,0.0,0.0,0.0,0.0,0.0,0.0,0.0,0.0,0.0,0.0,-1.2165,-1.1561,-1.0924,0.0,0.0,0.0,0.0,0.0,0.0,0.0,0.0,0.0,0.0,0.0,0.0,0.0,0.0,0.0,0.0,0.0,0.0,0.0,0.0,0.0,0.0,0.0,0.0,0.0,0.0,0.0,0.0,0.0,0.0,-1.3428,-1.2442,-1.1864,-1.1814,-1.1498,-1.1317,-1.1264,-1.1264,-1.1264,-1.1264,-1.0632,-1.0632,-1.1219,-1.0193,-1.0333,-1.1419,-1.2574,-1.3502,-1.4105,-1.3271,-1.3055,-1.332,-1.3123,-1.284,-1.2498,-1.2498,-1.1843,-1.0955,0.0,0.0,0.0,0.0,0.0,0.0,0.0,0.0,0.0,0.0,0.0,0.0,0.0,0.0,0.0,0.0,0.0,0.0,0.0,0.0,0.0,0.0,0.0,0.0,0.0,0.0,0.0,0.0,0.0,0.0,0.0,0.0,0.0,-0.6349,0.0,-0.7388,-0.7343,-0.7077,-0.7216,-0.7598,-0.7898,-0.8298,-0.8761,-0.9429,-1.0268,0.0,0.0,0.0,0.0,0.0,0.0,0.0,-1.3582,-1.336,-1.2965,-1.2487,-1.1803,0.0,0.0,0.0,0.0,0.0,0.0,0.0,0.0,0.0,0.0,0.0,0.0,0.0,0.0,0.0,0.0,0.0,0.0,0.0,0.0,0.0,0.0,0.0,0.0,0.0,0.0,0.0,0.0,0.0,0.0,0.0,-1.3008,-1.2822,-1.2393,-1.1814,-1.1746,-1.1437,-1.0937,-1.0937,-1.0937,-1.0937,-1.0783,-1.0783,-1.0902,-1.0093,-1.0444,-1.1841,-1.3239,-1.3957,-1.4012,-1.2698,-1.2299,-1.2465,-1.126,-1.0913,-1.107,-1.107,-1.09,-1.0719,0.0,0.0,0.0,0.0,0.0,0.0,0.0,0.0,0.0,0.0,0.0,0.0,0.0,0.0,0.0,0.0,0.0,0.0,0.0,0.0,0.0,0.0,0.0,0.0,0.0,0.0,0.0,0.0,0.0,0.0,0.0,0.0,0.0,-0.6434,0.0,-0.7389,-0.7599,-0.7636,-0.7782,-0.8033,-0.8557,-0.8973,-0.9363,-1.0168,-1.0977,-1.1764,-1.2313,0.0,0.0,0.0,0.0,0.0,0.0,0.0,-1.3276,-1.2747,-1.2144,-1.1542,0.0,0.0,0.0,0.0,0.0,0.0,0.0,0.0,0.0,0.0,0.0,0.0,0.0,0.0,0.0,0.0,0.0,0.0,0.0,0.0,0.0,0.0,0.0,0.0,0.0,0.0,0.0,0.0,0.0,-1.2881,-1.2881,-1.2881,-1.2715,-1.2344,-1.2344,-1.2147,-1.1792,-1.1792,-1.1792,-1.1792,-1.1475,-1.1116,-1.0779,-1.0547,-1.1107,-1.226,-1.3167,-1.3746,-1.4024,-1.2905,-1.2586,-1.2632,-1.1639,-1.107,-1.0739,-1.0887,-1.0615,-1.016,0.0,0.0,0.0,0.0,0.0,0.0,0.0,0.0,0.0,0.0,0.0,0.0,0.0,0.0,0.0,0.0,0.0,0.0,0.0,0.0,0.0,0.0,0.0,0.0,0.0,0.0,0.0,0.0,0.0,0.0,0.0,0.0,0.0,-0.6708,0.0,0.0,-0.7918,-0.8251,-0.8393,-0.8449,-0.9123,-0.9574,-0.997,-1.0925,-1.1662,-1.2242,-1.2799,-1.3173,-1.343,-1.3539,0.0,0.0,0.0,0.0,-1.3526,-1.3059,-1.2514,-1.1908,0.0,0.0,0.0,0.0,0.0,0.0,0.0,0.0,0.0,0.0,0.0,0.0,0.0,0.0,0.0,0.0,0.0,0.0,0.0,0.0,0.0,0.0,0.0,0.0,0.0,0.0,0.0,0.0,0.0,-1.2881,-1.2881,-1.2881,-1.2881,-1.2881,-1.2881,-1.2881,-1.2881,-1.2881,-1.2881,-1.2881,-1.2286,-1.1674,-1.1183,-1.1447,-1.1861,-1.2416,-1.2742,-1.3271,-1.3863,-1.3155,-1.286,-1.2742,-1.2337,-1.1563,-1.0709,-1.0916,-1.0455,-0.9719,0.0,0.0,0.0,0.0,0.0,0.0,0.0,0.0,0.0,0.0,0.0,0.0,0.0,0.0,0.0,0.0,0.0,0.0,0.2576,0.0,0.0,-0.0334,-0.1854,0.0,0.0,0.0,0.0,0.0,0.0,0.0,0.0,0.0,0.0,-0.7579,0.0,0.0,0.0,-0.8706,-0.8734,-0.8789,-0.9456,-0.9906,-1.0264,-1.1248,-1.1969,-1.2495,-1.2873,-1.3173,-1.343,-1.3539,-1.3724,0.0,0.0,0.0,-1.4002,-1.3541,-1.2906,0.0,0.0,0.0,0.0,0.0,0.0,0.0,0.0,0.0,0.0,0.0,0.0,0.0,0.0,0.0,0.0,0.0,0.0,0.0,0.0,0.0,0.0,0.0,0.0,0.0,0.0,0.0,0.0,0.0,-1.3238,-1.2881,-1.2881,-1.2881,-1.2881,-1.2881,-1.2881,-1.2881,-1.2881,-1.2881,-1.2881,-1.2881,-1.2774,-1.2725,-1.2618,-1.2675,-1.2379,-1.1954,-1.2603,-1.2948,-1.2998,-1.2295,-1.1816,-1.1494,-1.0857,-1.0319,-0.9853,-0.9894,-0.9829,-0.9693,0.0,0.0,0.0,0.0,0.0,0.0,0.0,0.0,0.0,0.0,0.0,0.0,0.0,0.0,0.0,-0.0435,0.0736,0.1847,0.2636,0.1957,0.0906,-0.0434,-0.1921,-0.28,0.0,0.0,0.0,0.0,0.0,0.0,0.0,-0.7354,-0.7963,0.0,0.0,0.0,0.0,0.0,-0.9363,-0.9442,-1.0294,-1.0514,0.0,0.0,-1.1896,-1.1888,-1.2706,-1.2979,-1.3034,-1.3442,-1.3644,-1.3742,-1.4092,0.0,0.0,0.0,0.0,0.0,0.0,0.0,0.0,0.0,0.0,0.0,0.0,0.0,0.0,0.0,0.0,0.0,0.0,0.0,0.0,0.0,0.0,0.0,0.0,0.0,0.0,0.0,0.0,0.0,0.0,0.0,0.0,0.0,-1.3742,-1.3238,-1.2929,-1.2881,-1.2881,-1.2881,-1.2881,-1.2881,-1.2881,-1.2881,-1.2881,-1.2881,-1.2881,-1.2881,-1.2881,-1.2881,-1.2715,-1.2452,-1.2774,-1.2881,-1.2822,-1.208,-1.1462,-1.0973,-1.0501,-0.9864,-0.9212,-0.9372,-0.9332,-0.9218,0.0,0.0,0.0,0.0,0.0,0.0,0.0,0.0,0.0,0.0,0.0,0.0,0.0,0.0,0.0,0.0,0.2573,0.3022,0.2726,0.2703,0.1682,-0.0568,-0.2393,-0.3444,-0.3565,0.0,0.0,0.0,0.0,0.0,-0.737,-0.7998,-0.9085,0.0,-0.9567,0.0,0.0,0.0,0.0,0.0,0.0,0.0,0.0,0.0,0.0,0.0,0.0,-1.2557,-1.2539,-1.3227,0.0,0.0,0.0,0.0,0.0,0.0,0.0,0.0,0.0,0.0,0.0,0.0,0.0,0.0,0.0,0.0,0.0,0.0,0.0,0.0,0.0,0.0,0.0,0.0,0.0,0.0,0.0,0.0,0.0,0.0,0.0,0.0,0.0,0.0,0.0,0.0,-1.3786,-1.3424,-1.2982,-1.2835,-1.2872,-1.3172,-1.2872,-1.2775,-1.2775,-1.2752,-1.2773,-1.2881,-1.2881,-1.2881,-1.2881,-1.2881,-1.2881,-1.2881,-1.2881,-1.2881,-1.2881,-1.2295,-1.1674,-1.099,-1.0604,-0.9879,-0.9036,-0.9099,-0.8991,-0.8838,0.0,0.0,0.0,0.0,0.0,0.0,0.0,0.0,0.0,0.0,0.0,0.0,0.0,0.5028,0.435,0.2766,0.3672,0.3858,0.2782,0.2693,0.1878,0.0033,-0.3344,0.0,-0.4345,0.0,0.0,0.0,0.0,0.0,-0.8358,-0.9469,-1.0652,-1.1845,-1.0399,-0.997,-1.0386,0.0,0.0,0.0,0.0,0.0,0.0,0.0,0.0,0.0,0.0,0.0,0.0,0.0,0.0,0.0,0.0,0.0,0.0,0.0,0.0,0.0,0.0,0.0,0.0,0.0,0.0,0.0,0.0,0.0,0.0,0.0,0.0,0.0,0.0,0.0,0.0,0.0,0.0,0.0,0.0,0.0,0.0,0.0,0.0,0.0,0.0,0.0,0.0,0.0,-1.2812,-1.3107,-1.3107,-1.2611,-1.2796,-1.3817,-1.2861,-1.2339,-1.2339,-1.2268,-1.2471,-1.2881,-1.2881,-1.2881,-1.2881,-1.2881,-1.2881,-1.2881,-1.2881,-1.2881,-1.2881,-1.2881,-1.2403,-1.1665,-1.1032,-1.0328,-0.9666,-0.9022,-0.8824,-0.8811,0.0,0.0,0.0,0.0,0.0,0.0,0.0,0.0,0.0,0.0,0.0,0.0,0.0,0.5004,0.496,0.4368,0.4355,0.3928,0.2789,0.1607,0.0365,-0.1015,-0.3421,-0.5023,-0.5676,-0.5571,0.0,0.0,0.0,-0.7244,-0.8282,-0.9163,-1.018,-1.121,-1.1081,-1.1195,-1.1479,-1.1259,0.0,0.0,0.0,0.0,0.0,0.0,0.0,0.0,0.0,0.0,0.0,0.0,0.0,0.0,0.0,0.0,0.0,0.0,0.0,0.0,0.0,0.0,0.0,0.0,0.0,0.0,0.0,0.0,0.0,0.0,0.0,0.0,0.0,0.0,0.0,0.0,0.0,0.0,0.0,0.0,0.0,0.0,0.0,0.0,0.0,0.0,0.0,0.0,0.0,-1.3362,-1.2635,-1.2392,-1.2339,-1.2428,-1.2057,-1.1847,-1.1847,-1.2093,-1.2258,-1.2461,-1.2744,-1.2881,-1.2881,-1.2881,-1.2881,-1.2881,-1.2881,-1.2881,-1.2881,-1.2881,-1.2452,-1.1715,-1.1065,-1.0415,-0.971,-0.9061,-0.8804,-0.8804,0.0,0.0,0.0,0.0,0.0,0.0,0.0,0.0,0.0,0.0,0.0,0.0,0.0,0.0,0.5242,0.596,0.4115,0.2589,0.1857,0.0301,-0.1048,-0.2127,-0.4305,-0.5805,-0.6551,-0.6315,0.0,0.0,0.0,0.0,0.0,0.0,-1.0266,-1.1139,-1.1722,-1.2027,0.0,0.0,0.0,-1.1858,0.0,0.0,-0.9112,0.0,0.0,0.0,0.0,0.0,0.0,0.0,0.0,0.0,0.0,0.0,0.0,0.0,0.0,0.0,0.0,0.0,0.0,0.0,0.0,0.0,0.0,0.0,0.0,0.0,0.0,0.0,0.0,0.0,0.0,0.0,0.0,0.0,0.0,0.0,0.0,0.0,0.0,0.0,0.0,0.0,0.0,0.0,0.0,0.0,-1.2688,-1.2332,-1.1891,-1.1406,-1.1406,-1.1402,-1.1381,-1.1641,-1.1888,-1.219,-1.2529,-1.2744,-1.2881,-1.2881,-1.2881,-1.2881,-1.2881,-1.2881,-1.2881,-1.2881,-1.2608,-1.208,-1.1166,-1.0669,-1.0364,-0.9211,-0.8962,-0.9113,0.0,0.0,0.0,0.0,0.0,0.0,0.0,0.0,0.0,0.0,0.0,0.0,0.0,0.0,0.0,0.7311,0.2931,-0.0,-0.0108,-0.1146,-0.2226,-0.3192,-0.6014,-0.739,-0.6984,-0.7788,0.0,0.0,0.0,0.0,0.0,0.0,-1.1062,0.0,-1.2364,-1.2443,-1.2162,0.0,-1.2435,-1.2205,0.0,-1.0249,-0.8109,0.0,0.0,0.0,-0.9994,-0.9992,0.0,-1.0185,0.0,0.0,0.0,0.0,0.0,0.0,0.0,0.0,0.0,0.0,0.0,0.0,0.0,0.0,0.0,0.0,0.0,0.0,0.0,0.0,0.0,0.0,0.0,0.0,0.0,0.0,0.0,0.0,0.0,0.0,0.0,0.0,0.0,0.0,0.0,0.0,-1.298,-1.3295,-1.3257,-1.233,-1.1542,-1.1019,-1.0981,-1.0958,-1.0889,-1.0898,-1.1338,-1.2141,-1.2171,-1.2451,-1.2861,-1.2871,-1.2881,-1.2881,-1.2881,-1.2881,-1.2881,-1.2881,-1.2881,-1.2774,-1.1375,-1.1216,-1.1516,-0.9562,-0.9211,-0.9666,0.0,0.0,0.0,0.0,0.0,0.0,0.0,0.0,0.0,0.0,0.0,0.0,0.0,0.0,0.0,0.3128,0.197,0.0071,-0.2711,-0.3382,-0.4448,-0.6267,-0.6883,-0.7656,-0.8684,-0.8364,0.0,0.0,0.0,0.0,0.0,0.0,0.0,0.0,-1.2767,-1.3073,-1.3373,-1.2824,0.0,0.0,-1.1982,-1.0802,0.0,0.0,0.0,0.0,0.0,-0.9208,-0.9352,0.0,-1.0776,-1.1712,0.0,0.0,0.0,0.0,0.0,0.0,-1.2719,0.0,0.0,0.0,0.0,0.0,0.0,0.0,0.0,0.0,0.0,0.0,0.0,0.0,0.0,0.0,0.0,0.0,0.0,0.0,0.0,0.0,0.0,0.0,0.0,0.0,0.0,0.0,-1.3129,-1.3093,-1.2758,-1.1767,-1.1159,-1.1019,-1.0687,-1.0488,-1.0459,-1.0752,-1.1025,-1.1279,-1.1879,-1.2248,-1.2422,-1.2744,-1.2881,-1.2881,-1.2881,-1.2881,-1.2881,-1.2881,-1.2881,-1.2832,-1.1882,-1.1366,-1.0965,-0.9917,-0.9309,-0.9061,0.0,0.0,0.0,0.0,0.0,0.0,0.0,0.0,0.0,0.0,0.0,0.0,0.0,0.0,0.0,-0.1326,-0.1506,-0.2537,-0.4893,-0.5175,-0.6075,-0.7945,-0.7998,-0.8693,-1.0158,-0.9363,0.0,0.0,0.0,0.0,0.0,0.0,0.0,0.0,0.0,0.0,0.0,0.0,0.0,0.0,-1.234,0.0,0.0,-0.9223,-0.8574,0.0,0.0,0.0,-0.9295,-0.9213,-1.0238,0.0,0.0,0.0,0.0,0.0,0.0,0.0,0.0,0.0,0.0,0.0,0.0,0.0,-1.2178,-1.1281,-1.02,0.0,0.0,0.0,0.0,0.0,0.0,0.0,0.0,0.0,0.0,0.0,0.0,0.0,0.0,0.0,0.0,-1.2534,-1.286,-1.286,-1.3073,-1.299,-1.2544,-1.1763,-1.1244,-1.1019,-1.0544,-1.0283,-1.0283,-1.0527,-1.0732,-1.0918,-1.1611,-1.2051,-1.22,-1.2686,-1.2881,-1.2881,-1.2881,-1.2881,-1.2871,-1.2686,-1.2715,-1.2774,-1.1783,-1.1316,-1.1065,-0.9814,-0.9309,-0.9159,0.0,0.0,0.0,0.0,0.0,0.0,0.0,0.0,0.0,0.0,0.0,0.0,0.0,0.0,0.0,0.0,-0.5966,-0.6345,-0.66,-0.6594,0.0,-0.8813,-0.93,-1.0159,-1.1444,-1.0567,-1.043,0.0,0.0,0.0,0.0,0.0,0.0,0.0,0.0,0.0,0.0,0.0,0.0,-1.3295,-1.2836,-1.245,0.0,0.0,-0.8259,-0.9038,-0.886,-0.9175,-0.9553,-0.85,-0.9367,0.0,0.0,0.0,0.0,0.0,-1.244,0.0,0.0,0.0,0.0,0.0,0.0,0.0,-1.2338,-1.2002,-1.0657,-0.7326,0.0,0.0,0.0,0.0,0.0,0.0,0.0,0.0,0.0,0.0,0.0,0.0,0.0,0.0,-1.1487,-1.1989,-1.2341,-1.2404,-1.2885,-1.299,-1.2544,-1.2066,-1.1542,-1.1019,-1.0544,-1.0283,-1.0283,-1.0283,-1.0469,-1.085,-1.1279,-1.1699,-1.2054,-1.2539,-1.2782,-1.2782,-1.2782,-1.2782,-1.2705,-1.2314,-1.2394,-1.2666,-1.1332,-1.1132,-1.1366,-0.9562,-0.9263,-0.9614,-0.8129,0.0,0.0,0.0,0.0,0.0,0.0,0.0,0.0,0.0,0.0,0.0,0.0,0.0,0.0,0.0,0.0,-0.7162,-0.7361,-0.7588,-0.8585,-1.0586,-1.0534,-1.1094,-1.2479,-1.1689,-1.13,0.0,0.0,0.0,0.0,0.0,0.0,0.0,0.0,0.0,0.0,0.0,0.0,-1.3586,-1.3052,0.0,-1.0894,-0.7557,-0.7077,-0.8154,-0.8109,-0.8286,-0.8657,-0.9404,-0.8481,-0.7626,0.0,0.0,0.0,0.0,0.0,0.0,0.0,0.0,0.0,0.0,0.0,0.0,-1.1179,-1.0814,-0.9821,0.0,0.0,0.0,0.0,0.0,0.0,0.0,0.0,0.0,0.0,0.0,0.0,0.0,0.0,0.0,-1.0869,-1.1412,-1.1939,-1.2379,-1.2885,-1.299,-1.2544,-1.2066,-1.1542,-1.1019,-1.0544,-1.0283,-1.0283,-1.0283,-1.0322,-1.041,-1.083,-1.1084,-1.1182,-1.1665,-1.1861,-1.1861,-1.1861,-1.1861,-1.1861,-1.1763,-1.1807,-1.1944,-1.1375,-1.0754,-1.0167,-0.9769,-0.9361,-0.8956,-0.9206,0.0,0.0,0.0,0.0,0.0,0.0,0.0,0.0,0.0,0.0,0.0,0.0,0.0,0.0,0.0,0.0,0.0,0.0,0.0,0.0,-1.1719,-1.1966,-1.2426,-1.3227,-1.3301,0.0,0.0,0.0,0.0,0.0,0.0,0.0,0.0,0.0,0.0,0.0,0.0,-1.3706,-1.3632,-1.3278,0.0,-1.1695,-0.6981,-0.5614,-0.6244,-0.6621,-0.7421,-0.8564,-1.0345,-0.8399,0.0,0.0,-1.1028,-1.1729,0.0,-1.126,-1.082,0.0,0.0,0.0,-1.0503,0.0,0.0,0.0,-1.0881,-1.0033,0.0,0.0,0.0,0.0,0.0,0.0,0.0,0.0,0.0,0.0,0.0,0.0,0.0,0.0,0.0,-1.0307,-1.0822,-1.1387,-1.1964,-1.2253,-1.232,-1.2104,-1.1605,-1.1253,-1.1008,-1.0544,-1.0283,-1.0283,-1.0283,-1.0283,-1.0283,-1.0713,-1.0908,-1.0928,-1.14,-1.1606,-1.1606,-1.1606,-1.1606,-1.1543,-1.1061,-1.0795,-1.0738,-1.0548,-0.9977,-0.9328,-0.899,-0.8753,-0.8591,-1.0247,0.0,0.0,0.0,0.0,0.0,0.0,0.0,0.0,0.0,0.0,0.0,0.0,0.0,0.0,0.0,0.0,0.0,0.0,0.0,0.0,0.0,-1.3546,-1.4024,-1.4486,-1.4937,-1.5225,0.0,0.0,0.0,0.0,0.0,0.0,0.0,0.0,0.0,0.0,0.0,0.0,-1.3556,0.0,-1.3057,-1.1889,-0.5903,-0.4347,-0.5426,-0.6029,-0.6474,-0.7287,-1.0561,-0.8503,-0.5098,-0.8241,-1.0139,0.0,0.0,0.0,0.0,0.0,0.0,0.0,0.0,0.0,-1.0267,0.0,0.0,0.0,0.0,0.0,0.0,0.0,0.0,0.0,0.0,0.0,0.0,0.0,0.0,0.0,0.0,0.0,0.0,-0.9805,-1.0232,-1.0741,-1.1285,-1.1323,-1.1314,-1.1314,-1.0912,-1.0683,-1.0723,-1.0376,-1.0195,-1.0283,-1.0283,-1.0283,-1.0283,-1.0625,-1.0791,-1.0801,-1.1194,-1.1361,-1.1361,-1.1361,-1.1361,-1.1289,-1.0377,-0.9787,-0.9497,-0.9428,-0.9135,-0.8655,-0.8112,-0.8083,-0.829,-1.133,0.0,0.0,0.0,0.0,0.0,0.0,0.0,0.0,0.0,0.0,0.0,0.0,0.0,0.0,0.0,0.0,0.0,-1.2899,0.0,0.0,0.0,0.0,0.0,-1.73,-1.6048,-1.5148,0.0,0.0,0.0,0.0,0.0,0.0,0.0,-1.4458,0.0,0.0,0.0,-1.383,0.0,-1.3413,-1.1804,0.0,-0.2777,-0.3794,-0.8417,-0.8497,-0.5261,-0.1998,0.0,-0.8319,-0.543,0.0,-1.0101,-0.9879,-1.0566,0.0,0.0,0.0,0.0,0.0,0.0,-0.9724,0.0,0.0,0.0,-0.9541,-0.9297,0.0,0.0,0.0,0.0,0.0,0.0,0.0,0.0,0.0,0.0,0.0,0.0,0.0,0.0,0.0,-0.9792,-1.0086,-1.0358,-1.0365,-1.0223,-0.9928,-0.9883,-0.9801,-0.9761,-0.9707,-0.9893,-1.0312,-1.0283,-1.0283,-1.0283,-1.0371,-1.0352,-1.0352,-1.04,-1.0469,-1.0469,-1.0469,-1.0469,-1.038,-0.9808,-0.9287,-0.8791,-0.855,-0.8278,-0.8024,-0.7929,-0.7902,-0.7935,-1.235,0.0,0.0,0.0,0.0,0.0,0.0,0.0,0.0,0.0,0.0,0.0,0.0,0.0,0.0,0.0,0.0,-1.4095,0.0,0.0,0.0,0.0,0.0,0.0,0.0,-1.71,-1.6816,0.0,-1.569,0.0,0.0,0.0,0.0,0.0,-1.459,0.0,-1.4464,0.0,0.0,0.0,0.0,0.0,0.0,-0.877,-0.6097,-0.4183,-0.7655,-0.7282,-0.5115,0.0,-0.7069,0.0,0.0,0.0,0.0,0.0,0.0,0.0,0.0,0.0,0.0,0.0,0.0,0.0,-1.0164,0.0,-0.9493,0.0,0.0,0.0,0.0,0.0,0.0,0.0,-0.8956,0.0,0.0,0.0,0.0,0.0,0.0,0.0,0.0,0.0,-0.9385,-0.912,-0.9491,-0.9533,-0.9017,-0.9388,-0.9488,-0.9248,-0.9466,-0.968,-0.9902,-0.9677,-0.9791,-1.0283,-0.9791,-0.9801,-1.0283,-1.0283,-1.0283,-1.0283,-1.0283,-1.0283,-1.0244,-0.9716,-0.9359,-0.9096,-0.8357,-0.7773,-0.7357,-0.7357,-0.7508,-0.7616,0.0,0.0,0.0,0.0,0.0,0.0,0.0,0.0,0.0,0.0,0.0,0.0,-1.6635,-1.6978,0.0,0.0,-1.5132,-1.4857,0.0,0.0,-1.521,0.0,0.0,0.0,0.0,0.0,-1.7938,-1.6411,-1.6433,0.0,0.0,0.0,0.0,0.0,0.0,-1.4803,-1.4841,0.0,0.0,-1.4175,-1.3768,-1.3619,-1.3603,-1.3462,-0.7824,-0.0559,-0.4901,-0.6461,-0.5792,-0.1456,-0.4496,0.0,-1.073,0.0,0.0,0.0,0.0,0.0,-1.1426,0.0,0.0,0.0,0.0,0.0,0.0,0.0,0.0,0.0,0.0,0.0,0.0,0.0,0.0,0.0,0.0,0.0,0.0,0.0,0.0,0.0,0.0,0.0,0.0,-0.8782,-0.8756,-0.838,-0.8664,-0.8754,-0.8512,-0.884,-0.8952,-0.8852,-0.9238,-0.9485,-0.9592,-0.945,-0.9658,-1.0283,-0.9497,-0.9544,-1.0283,-1.0166,-1.0079,-1.0088,-1.0244,-1.0205,-1.004,-0.9677,-0.9399,-0.9199,-0.8275,-0.753,-0.6979,-0.6979,-0.7161,-0.7297,0.0,-1.6021,0.0,0.0,0.0,0.0,0.0,0.0,0.0,0.0,0.0,0.0,0.0,0.0,0.0,0.0,0.0,-1.3769,-1.4444,0.0,-1.6678,0.0,0.0,-1.8771,0.0,0.0,-1.7696,-1.6214,-1.6268,0.0,0.0,0.0,0.0,0.0,0.0,-1.4881,-1.4681,-1.4423,-1.4389,-1.4429,-1.37,-1.3413,-1.3413,0.0,-0.7824,-0.0017,-0.022,0.0,0.0,-0.0068,-0.0195,0.0,0.0,0.0,0.0,0.0,0.0,0.0,0.0,0.0,0.0,-0.9525,0.0,0.0,0.0,0.0,-0.8336,0.0,0.0,0.0,0.0,0.0,0.0,0.0,0.0,0.0,0.0,0.0,0.0,0.0,0.0,0.0,0.0,-0.8131,-0.8233,-0.8469,-0.7839,-0.776,-0.8452,-0.8025,-0.7949,-0.842,-0.8809,-0.9219,-0.9592,-1.0049,-1.0264,-1.0283,-0.9746,-0.9785,-1.0283,-0.9765,-0.9518,-0.9558,-1.0079,-1.0,-0.9518,-0.9518,-0.9199,-0.8675,-0.8118,-0.753,-0.6979,-0.6979,-0.6985,-0.6992,0.0,0.0,0.0,0.0,0.0,0.0,0.0,-1.9327,0.0,0.0,0.0,0.0,0.0,-1.7511,-1.6727,0.0,0.0,-1.4566,-1.4693,-1.5401,0.0,0.0,0.0,-1.7542,0.0,0.0,-1.6467,-1.6138,-1.5708,-1.5376,0.0,0.0,0.0,0.0,0.0,-1.5101,0.0,0.0,0.0,0.0,0.0,-1.3833,-1.2753,0.0,-0.2642,0.0,0.0,0.0,0.0,0.0,0.0,-0.0556,-0.3765,-0.7736,-1.0967,-0.9698,-1.1618,-1.3989,0.0,0.0,-1.1328,-1.0349,0.0,0.0,0.0,0.0,0.0,0.0,0.0,0.0,0.0,0.0,0.0,0.0,0.0,0.0,0.0,0.0,0.0,0.0,0.0,0.0,0.0,0.0,0.0,-0.81,-0.6229,-0.4441,-0.295,-0.6275,-0.8327,-0.8538,-0.8838,-0.9209,-0.9592,-0.9506,-0.9725,-1.0283,-0.9525,-0.9572,-1.0283,-1.0118,-1.004,-1.004,-1.0205,-1.0205,-1.0,-0.9637,-0.9399,-0.9159,-0.8242,-0.7787,-0.753,-0.7147,-0.6979,-0.6963,-1.9355,0.0,0.0,0.0,0.0,0.0,0.0,0.0,0.0,0.0,-1.9822,0.0,-1.9122,0.0,-1.7694,0.0,-1.5675,-1.5002,-1.4813,-1.5047,0.0,-1.5341,-1.6226,0.0,0.0,0.0,0.0,-1.6111,-1.5614,-1.5264,0.0,0.0,0.0,0.0,0.0,0.0,0.0,0.0,-1.1159,0.0,0.0,-1.406,0.0,0.0,-0.2777,0.0,0.0,0.0,0.0,0.0,0.0,0.0,0.0,-0.4291,-0.9195,-0.8382,-1.1235,-1.4452,-1.3565,-1.2853,0.0,-1.1052,-1.0755,0.0,-0.9395,0.0,-0.9022,0.0,0.0,0.0,0.0,0.0,0.0,0.0,0.0,0.0,0.0,-0.8456,0.0,0.0,0.0,0.0,0.0,0.0,-0.8272,-0.7928,-0.5416,-0.2758,0.0,-0.4612,-0.7659,-0.8587,-0.8991,-0.9338,-0.9592,-0.9516,-0.9734,-1.0283,-0.9534,-0.9581,-1.0283,-1.0079,-1.0,-1.004,-1.0205,-1.0196,-1.0,-0.9637,-0.9399,-0.9119,-0.8234,-0.7787,-0.753,-0.7147,-0.6979,-0.6921,0.0,0.0,0.0,0.0,-1.9433,0.0,0.0,0.0,-2.025,0.0,-1.9993,-1.9122,-1.9274,-1.8574,-1.7713,-1.6769,-1.5711,-1.5053,-1.4882,-1.4639,0.0,0.0,-1.5553,-1.6046,-1.6315,0.0,0.0,0.0,0.0,0.0,0.0,0.0,0.0,0.0,-1.5302,0.0,-1.4874,-0.9759,-0.4658,-0.0807,-1.005,-1.3364,-1.2787,-1.3227,-0.8095,-0.061,-0.0152,0.0,0.0,0.0,0.0,0.0,0.0,0.0,-0.1212,-0.7402,-1.1728,-1.4299,-1.3328,-1.2955,-1.2631,-1.1668,-1.1288,0.0,0.0,0.0,-0.9845,0.0,0.0,0.0,0.0,0.0,0.0,0.0,0.0,0.0,0.0,0.0,0.0,0.0,0.0,0.0,0.0,-0.8151,-0.8235,-0.797,-0.5496,0.0,0.0,-0.3369,-0.6351,-0.8676,-0.9342,-0.9644,-0.9658,-1.0078,-1.0283,-1.0283,-0.9804,-0.9804,-1.0283,-0.9755,-0.9558,-0.9558,-1.0079,-1.0,-0.9518,-0.9518,-0.9199,-0.8675,-0.8118,-0.753,-0.6979,-0.6979,-0.6979,-0.6937,-1.9953,-1.9953,-2.0017,0.0,-2.0463,-2.084,0.0,0.0,0.0,0.0,-2.059,-1.9685,-1.9347,-1.8574,-1.8009,-1.7746,-1.6106,0.0,0.0,0.0,0.0,-1.4614,-1.4771,-1.502,-1.5274,-1.5382,0.0,-1.5735,0.0,0.0,-1.5099,0.0,0.0,0.0,0.0,0.0,-1.495,-0.9784,-0.4658,-0.022,-0.2714,-0.3604,-0.4166,0.0,-1.1974,-0.9095,-0.2405,0.0,0.0,0.0,0.0,0.0,0.0,0.0,-0.0331,-0.2002,-0.8186,-1.4451,-1.4196,-1.3805,-1.3432,-1.3282,-1.2683,-1.2012,0.0,0.0,0.0,0.0,0.0,0.0,0.0,0.0,0.0,0.0,0.0,0.0,0.0,0.0,0.0,-0.8144,0.0,0.0,-0.8447,-0.7967,-0.7928,-0.8594,-0.6615,0.0,0.0,0.0,-0.9823,-1.0803,-1.041,-1.0354,-1.0654,-1.0407,-1.0283,-1.0283,-1.0157,-1.0166,-1.0283,-1.0157,-1.0079,-1.0079,-1.0244,-1.0205,-1.004,-0.9677,-0.9399,-0.9199,-0.8275,-0.753,-0.6979,-0.6979,-0.6979,-0.6979,-2.0575,0.0,0.0,-2.1519,0.0,0.0,-2.1767,-2.215,0.0,-2.1861,-2.0914,0.0,-1.9861,-1.9106,-1.8482,-1.8133,-1.6986,0.0,-1.6763,0.0,0.0,-1.5443,-1.5155,-1.4738,-1.4245,-1.4742,0.0,-1.5766,0.0,0.0,-1.5669,0.0,0.0,0.0,0.0,-1.5241,0.0,-0.7369,-0.2618,0.0,0.0,0.0,0.0,-0.5623,-0.9975,-1.2228,-0.3218,0.0,0.0,0.0,0.0,0.0,0.0,0.0,-0.0423,-0.2557,-0.5547,-0.9048,-1.3129,-1.3025,-1.2087,-1.3365,-1.3277,-1.2742,-1.2194,-1.157,-1.0936,0.0,-1.0362,-1.0431,0.0,0.0,0.0,0.0,0.0,0.0,0.0,0.0,0.0,0.0,-0.8071,0.0,-0.8967,-0.8432,-0.8734,-1.0394,-0.8873,0.0,0.0,0.0,-1.1235,-1.2266,-1.0935,-1.0584,-1.1345,-1.0819,-1.0569,-1.0611,-1.0611,-1.0505,-1.0283,-1.0283,-1.0283,-1.0283,-1.0283,-1.0283,-1.0244,-0.9716,-0.9518,-0.9399,-0.8316,-0.753,-0.6979,-0.6979,-0.6979,-0.6979,0.0,0.0,0.0,0.0,0.0,0.0,0.0,-2.2334,0.0,-2.1729,0.0,-2.0338,-2.0338,-1.9711,-1.9014,-1.8317,0.0,-1.7743,-1.7559,-1.6588,-1.621,-1.6665,-1.5984,-1.4971,-1.3599,-1.4569,-1.5377,0.0,0.0,0.0,0.0,0.0,0.0,0.0,0.0,0.0,0.0,-0.5622,-0.1155,0.0,0.0,0.0,0.0,0.0,-0.4844,-1.0619,-0.2794,0.0,0.0,0.0,0.0,0.0,0.0,0.0,-0.0828,-0.5096,-0.4228,-0.3386,-1.0224,-1.101,-1.0474,-1.2815,-1.3345,-1.3141,-1.2583,-1.1823,-1.1205,-1.1061,-1.0849,-1.0843,-1.1369,0.0,0.0,0.0,0.0,0.0,0.0,0.0,0.0,0.0,0.0,0.0,-0.9289,-0.9159,-0.9802,-1.1697,0.0,0.0,0.0,0.0,-1.1426,-1.2743,-1.124,-1.0813,-1.1669,-1.1235,-1.1009,-1.0999,-1.0987,-1.0791,-1.04,-1.0322,-1.0283,-1.0283,-1.0283,-1.0283,-1.0244,-0.9716,-0.9399,-0.9199,-0.8275,-0.753,-0.6979,-0.6979,-0.6979,-0.6979,0.0,0.0,0.0,0.0,0.0,-2.2214,-2.1995,-2.1525,-2.1078,-2.0774,-2.0023,-1.951,-1.951,-1.9381,-1.9234,-1.9087,-1.8294,0.0,0.0,0.0,0.0,-1.6665,-1.5984,-1.5265,-1.4572,-1.5539,-1.5986,0.0,0.0,0.0,0.0,0.0,0.0,0.0,0.0,0.0,-1.4799,-1.2789,0.0,0.0,0.0,0.0,0.0,0.0,-0.0982,-0.2134,-0.0559,0.0,0.0,0.0,0.0,0.0,0.0,0.0,-0.0166,-0.103,-0.635,-1.0573,-0.4168,-0.7647,-1.3145,-1.3342,-1.3032,-1.2749,-1.3124,-1.2618,-1.2016,-1.1777,-1.2,-1.1914,-1.095,0.0,0.0,0.0,0.0,0.0,0.0,0.0,0.0,0.0,0.0,-0.8591,0.0,-0.9458,0.0,0.0,0.0,0.0,0.0,0.0,-1.1533,0.0,-1.1883,-1.2106,0.0,0.0,-1.14,-1.0937,-1.0978,-1.0943,-1.0867,-1.0467,-1.0283,-1.0283,-1.0283,-1.0283,-1.0244,-0.9716,-0.8999,-0.816,-0.7953,-0.753,-0.6979,-0.6979,-0.6979,-0.6979,0.0,0.0,0.0,0.0,0.0,0.0,0.0,-2.104,-2.0255,-2.0462,-2.017,-1.9932,-1.9932,-1.9546,-1.9305,-1.9305,-1.8861,-1.8631,-1.8807,-1.7895,-1.7406,-1.747,-1.6999,-1.6305,-1.5383,-1.6288,-1.6634,-1.6372,0.0,0.0,0.0,0.0,0.0,0.0,0.0,-1.5005,0.0,0.0,0.0,-0.7079,-0.2036,0.0,0.0,0.0,0.0,0.0,0.0,0.0,0.0,0.0,0.0,0.0,0.0,0.0,0.0,0.0,-0.3319,-0.6699,-0.5382,-0.7546,-1.0696,-1.2942,-1.3236,-1.3034,-1.3328,-1.2723,-1.2024,-1.1793,-1.1502,-1.1088,-1.0374,-0.9979,0.0,0.0,0.0,0.0,0.0,0.0,0.0,0.0,0.0,0.0,0.0,0.0,0.0,0.0,0.0,0.0,0.0,0.0,-1.1121,0.0,0.0,0.0,-1.1631,0.0,-1.1147,-1.138,-1.1137,-1.0867,-1.0649,-1.039,-1.0283,-1.0283,-1.0283,-1.0283,-1.0244,-0.9716,-0.9039,-0.8275,-0.7995,-0.753,-0.6979,-0.6979,-0.6979,-0.6979,0.0,-2.4638,0.0,0.0,-2.3501,0.0,-2.2029,-2.0591,-1.9707,-2.0186,-2.0228,-2.0228,-2.0228,-1.9675,-1.9305,-1.9305,-1.9305,-1.9196,-1.9001,-1.8807,-1.8528,-1.8208,-1.7992,-1.736,-1.6252,-1.6905,-1.7227,0.0,0.0,0.0,0.0,0.0,0.0,0.0,0.0,0.0,0.0,0.0,-1.237,-1.0746,-0.3081,0.0,0.0,0.0,0.0,0.0,0.0,0.0,0.0,0.0,0.0,0.0,0.0,0.0,0.0,0.0,0.0,-0.1531,-0.8574,-0.938,-0.9091,-1.266,-1.3373,-1.3242,-1.3362,-1.2623,-1.1876,-1.1816,-1.0992,-1.0141,-0.9709,-0.9666,0.0,0.0,0.0,0.0,0.0,0.0,0.0,0.0,0.0,0.0,-0.8892,0.0,0.0,0.0,0.0,0.0,-1.1031,0.0,0.0,0.0,0.0,-1.0079,-1.1775,0.0,-1.0844,-1.1606,-1.1191,-1.0802,-1.0428,-1.0361,-1.0283,-1.0283,-1.0283,-1.0244,-1.0088,-0.9558,-0.8999,-0.848,-0.7904,-0.7405,-0.6979,-0.6852,-0.681,-0.681,0.0,0.0,0.0,0.0,0.0,0.0,-2.1073,-2.0004,-1.9357,-1.9415,-1.9399,-1.9399,-1.9399,-1.9344,-1.9305,-1.9305,-1.9305,-1.9196,-1.9001,-1.8984,-1.8734,-1.8229,-1.8166,-1.787,-1.7276,-1.7329,-1.7684,0.0,0.0,-1.9054,0.0,0.0,0.0,0.0,0.0,0.0,0.0,-0.9933,-0.5404,-0.1284,-0.0367,0.0,0.0,0.0,0.0,0.0,0.0,0.0,0.0,0.0,0.0,0.0,0.0,0.0,0.0,0.0,0.0,-0.1909,-1.0685,-1.3129,-1.3271,-1.3393,-1.2997,-1.2729,-1.3277,-1.2623,-1.2023,-1.2424,-1.161,-1.0422,-0.9067,-0.9398,-0.9365,0.0,0.0,0.0,0.0,0.0,-0.8009,0.0,0.0,0.0,0.0,-0.8997,0.0,0.0,-1.0709,0.0,0.0,0.0,0.0,-1.0344,-0.986,-0.9633,-0.9762,-1.0607,-1.1001,-1.0976,-1.0993,-1.0981,-1.0905,-1.0505,-1.0283,-1.0283,-1.0283,-1.0,-0.9518,-0.8999,-0.848,-0.7912,-0.7321,-0.7063,-0.6937,-0.6477,-0.6264,-0.6179,0.0,0.0,0.0,0.0,0.0,0.0,0.0,-1.9952,-1.9305,-1.9305,-1.9305,-1.9305,-1.9305,-1.9305,-1.9305,-1.9305,-1.9305,-1.9259,-1.9182,-1.9069,-1.8825,-1.845,-1.829,-1.7944,-1.7418,-1.7878,-1.8159,0.0,0.0,0.0,0.0,0.0,0.0,0.0,0.0,-1.3871,-1.4644,-1.2684,-0.9037,-0.4562,-0.4562,-0.2733,0.0,0.0,0.0,0.0,0.0,0.0,0.0,0.0,0.0,0.0,0.0,0.0,0.0,0.0,0.0,-0.137,-0.7679,-1.1442,-1.3589,-1.3542,-1.3174,-1.2874,-1.3107,-1.2604,-1.2123,-1.2329,-1.1717,-1.079,-0.9643,-0.9854,-0.9916,-0.9037,0.0,0.0,0.0,0.0,0.0,0.0,0.0,0.0,0.0,0.0,0.0,0.0,0.0,0.0,0.0,0.0,0.0,-0.942,0.0,-0.9298,-0.9973,-1.0148,-1.0463,-1.0944,-1.0432,-1.0311,-1.0562,-1.0085,-1.0029,-1.0283,-1.0283,-1.0166,-0.9922,-0.9039,-0.8553,-0.8275,-0.7356,-0.6979,-0.6979,-0.6768,-0.6477,-0.6179,-2.2466,0.0,-2.2575,0.0,-2.1407,-2.0923,-2.0434,-1.976,-1.9305,-1.9305,-1.9305,-1.9305,-1.9305,-1.9305,-1.9305,-1.9305,-1.9305,-1.9305,-1.9305,-1.9101,-1.8878,-1.8604,-1.8351,0.0,-1.7642,-1.8265,-1.8521,-1.8359,-1.9136,0.0,0.0,0.0,0.0,0.0,-1.5142,-1.4139,-1.5149,-1.5008,-1.3123,-1.0291,-1.0498,-0.812,-0.4309,-0.2809,-0.2233,-0.2233,-0.2233,-0.127,-0.0231,-0.1732,-0.1232,0.0,0.0,0.0,0.0,0.0,0.0,-0.0979,-0.5483,-0.998,-1.3396,-1.3428,-1.321,-1.2995,-1.2906,-1.2455,-1.2009,-1.1839,-1.149,-1.0943,-1.0076,-1.0201,-1.0217,-0.9624,0.0,0.0,0.0,-0.9579,0.0,0.0,-0.934,-0.9246,-1.0892,-1.1037,0.0,0.0,0.0,0.0,0.0,0.0,0.0,0.0,0.0,0.0,-0.961,-0.931,-0.961,-1.0552,-0.975,-0.9704,-1.0273,-0.9961,-0.999,-1.0283,-1.0283,-1.0283,-1.0244,-0.9319,-0.8918,-0.8837,-0.769,-0.728,-0.7238,-0.6894,-0.6428,-0.5916,-2.1677,-2.2216,-2.2173,-2.018,-2.055,-2.0696,-1.9494,-1.9323,-1.9305,-1.9305,-1.9305,-1.9305,-1.9305,-1.9305,-1.9305,-1.9305,-1.9305,-1.9305,-1.9305,-1.9101,-1.8878,0.0,0.0,-1.8208,-1.8191,-1.8469,-1.8734,-1.9001,0.0,0.0,-1.9596,0.0,-1.9712,-1.9544,-1.8696,-1.7564,-1.6223,-1.5363,-1.5605,-1.6658,-1.7315,-1.6542,-1.4464,-0.9428,-0.7507,-0.7507,-0.7507,-0.4273,-0.077,-0.5813,-0.4158,0.0,0.0,0.0,0.0,0.0,0.0,-0.0979,-0.5483,-0.998,-1.3346,-1.3067,-1.2997,-1.2924,-1.2668,-1.2133,-1.1564,-1.1024,-1.0897,-1.0727,-1.0112,-1.0211,-1.0026,-0.8896,0.0,0.0,0.0,-0.8826,0.0,-1.1349,-0.8022,-0.7086,-1.1017,-1.1096,0.0,0.0,0.0,0.0,0.0,0.0,0.0,-0.9541,-0.8192,0.0,-0.8008,-0.8016,-0.8506,-0.9518,-0.9035,-0.9318,-1.0283,-1.0273,-1.0273,-1.0283,-1.0283,-1.0283,-1.0244,-0.9716,-0.9478,-0.9399,-0.8316,-0.787,-0.7746,-0.6605,-0.583,-0.5216,-2.0735,-2.0908,-2.0821,-1.9941,-2.0028,-2.0014,-1.9402,-1.9305,-1.9305,-1.9305,-1.9305,-1.9305,-1.9305,-1.9305,-1.9305,0.0,-1.9305,-1.9305,0.0,-1.9227,-1.9016,-1.8604,-1.8697,-1.8566,-1.8208,-1.8642,-1.8914,-1.9002,0.0,0.0,0.0,-1.9577,-1.9688,-1.9712,-1.9363,-1.8821,-1.8103,-1.7606,-1.7063,-1.6572,-1.6798,-1.6676,-1.6093,-1.3695,-1.2772,-1.2772,-1.2772,-1.1733,-1.0079,-0.8219,-0.8832,-0.9152,-0.2192,0.0,0.0,0.0,-0.4695,-0.9484,-0.761,-1.0294,-1.3572,-1.3443,-1.3072,-1.2687,-1.261,-1.1984,-1.1371,-1.1219,-1.1173,-1.107,-1.068,-1.0824,-1.0754,-0.9977,-1.0061,0.0,-0.9604,0.0,-0.8085,-1.0194,-0.901,-0.8526,-0.978,-0.9378,0.0,0.0,0.0,0.0,0.0,0.0,0.0,0.0,-0.7571,0.0,-0.7739,-0.8007,-0.8328,-0.8748,-0.8314,-0.8434,-0.9028,-0.9277,-0.957,-0.9834,-0.9834,-1.001,-1.0244,-0.9716,-0.9518,-0.9399,-0.8316,-0.7919,-0.7787,-0.7027,-0.6386,-0.583,-2.0312,-2.0312,-2.018,-1.9866,-1.979,-1.9682,-1.9365,-1.9305,-1.9305,-1.9305,-1.9305,-1.9305,-1.9305,-1.9305,0.0,-1.9305,-1.9305,-1.9305,-1.9305,-1.9246,-1.9067,-1.877,-1.8807,-1.8659,-1.8208,-1.8734,0.0,-1.8843,-1.9148,-1.9305,-1.9305,-1.9442,-1.9577,-1.9713,-1.955,-1.9287,-1.8915,-1.8619,-1.8089,-1.7414,-1.708,-1.7253,-1.7542,-1.6195,-1.5695,-1.5657,-1.533,-1.5189,-1.4714,-1.1521,-1.252,-1.3755,-0.6115,-0.3269,-0.3088,-0.4919,-0.9738,-1.3805,-1.0583,-1.1665,-1.3615,-1.3294,-1.2913,-1.2498,-1.2184,-1.168,-1.1287,-1.1173,-1.1242,-1.1219,-1.0944,-1.1048,-1.0987,-1.047,-1.0285,-1.0135,-0.9919,0.0,-0.8252,0.0,0.0,0.0,0.0,-0.8223,-0.7589,0.0,0.0,0.0,0.0,0.0,-0.6435,-0.6745,-0.6631,-0.6645,-0.6796,-0.7219,-0.7662,-0.8088,-0.8188,-0.8375,-0.8633,-0.9053,-0.9473,-0.9873,-0.9873,-0.9941,-1.0001,-0.9686,-0.9417,-0.9136,-0.8278,-0.7921,-0.7829,-0.7238,-0.6647,-0.6136,-2.0312,-2.0285,-2.0171,-1.9866,-1.9778,-1.967,-1.935,-1.9305,-1.9305,-1.9305,-1.9305,-1.9308,-1.9381,-1.9326,-1.9308,-1.9381,0.0,0.0,-1.9305,-1.9117,-1.9001,-1.8966,-1.8752,-1.8489,-1.8208,-1.8734,-1.8878,-1.8642,-1.9099,-1.9305,-1.932,-1.9335,-1.9438,-1.9609,-1.9423,-1.9169,-1.8859,-1.8672,-1.8745,-1.8934,-1.8126,-1.8241,-1.8722,-1.7125,-1.6503,-1.6388,-1.5503,-1.5189,-1.5183,-1.5183,-1.5059,-1.4357,-1.1212,-0.9109,-0.8621,-1.2774,-1.4231,-1.4387,-1.387,-1.3721,-1.3553,-1.284,-1.2633,-1.238,-1.1542,-1.1318,-1.1242,-1.0991,-1.1141,-1.1219,-1.0968,-1.092,-1.0811,-1.0508,-1.0173,-0.9931,-0.9905,-0.9742,-0.9411,0.0,0.0,0.0,-0.8368,-0.7467,-0.6734,0.0,0.0,0.0,0.0,0.0,-0.508,-0.5615,-0.5497,-0.5466,-0.5485,-0.5935,-0.6615,-0.7493,-0.8422,-0.8882,-0.8892,-0.924,-0.9701,-1.0195,-1.0147,-0.9934,-0.9592,-0.952,-0.9217,-0.8734,-0.8168,-0.7929,-0.7829,-0.7238,-0.6689,-0.6264,0.0,0.0,-2.0003,-1.9824,-1.972,-1.9564,-1.9335,-1.9305,-1.9305,-1.9305,-1.9305,-1.9528,-2.0152,-1.9675,-1.9546,-2.017,-1.9656,-1.9305,-1.9305,-1.9261,-1.9066,-1.8715,-1.8825,-1.8679,-1.8208,-1.8734,-1.9034,-1.913,-1.9243,-1.938,-1.9527,-1.9638,-1.9713,-1.975,-1.9695,-1.97,-1.9717,-1.9563,-1.9296,-1.8977,-1.878,-1.8414,-1.7895,-1.6869,-1.6503,-1.6388,-1.5503,-1.5133,-1.5042,-1.5042,-1.5018,-1.4809,-1.3854,-1.3207,-1.2297,-0.9753,-1.1599,-1.4441,-1.411,-1.3941,-1.3766,-1.3458,-1.2985,-1.2455,-1.1818,-1.149,-1.1273,-1.1219,-1.1265,-1.1273,-1.1219,-1.1219,-1.115,-1.1024,-1.0705,-1.0311,-0.9957,-0.8126,-0.7257,0.0,-0.8132,-0.7618,-0.6945,-0.6129,-0.5432,0.0,0.0,-0.3675,-0.241,-0.291,-0.38,-0.5044,-0.4904,-0.493,-0.5186,-0.5602,-0.597,-0.6314,-0.7151,-0.7562,-0.754,-0.7545,-0.818,-0.9291,-0.878,-0.8927,-0.9556,-0.8846,-0.8659,-0.8734,-0.7885,-0.7683,-0.7829,-0.7238,-0.6937,-0.6768,-2.0312,-2.0134,-1.9962,-1.9813,-1.9695,-1.9527,-1.932,-1.9305,-1.9305,-1.9305,-1.9305,-1.9601,-2.0411,-1.9785,-1.962,-2.0429,-1.9767,-1.9305,-1.9305,-1.9305,-1.9196,-1.893,-1.9049,-1.8948,-1.8566,-1.893,-1.9198,-1.9305,-1.9305,-1.9394,-1.9596,-1.9572,-1.9645,-1.979,-1.9632,-1.9707,-1.9901,-1.9774,-1.9612,-1.9424,-1.9068,-1.8858,-1.8628,-1.7413,-1.7195,-1.7394,-1.6115,-1.5635,-1.5529,-1.5128,-1.4938,-1.4849,-1.4729,-1.4606,-1.4004,-1.1361,-1.2355,-1.427,-1.4051,-1.3899,-1.3661,-1.3244,-1.2767,-1.2296,-1.1897,-1.1659,-1.1445,-1.1173,-1.1219,-1.1182,-1.0736,-1.0784,-1.0831,-1.0643,-0.9581,-0.8918,-0.9331,-0.8046,-0.7097,-0.7282,-0.7025,-0.649,-0.5654,-0.4834,-0.4221,-0.3918,-0.3032,0.0,-0.1947,-0.2014,-0.2614,-0.3854,-0.417,-0.4426,-0.461,-0.5405,-0.5845,-0.5913,-0.6518,-0.6937,-0.7111,-0.7022,-0.7525,-0.8429,-0.8197,-0.8228,-0.8447,-0.8063,-0.782,-0.7635,-0.7249,-0.7185,-0.7297,-0.7058,-0.6852,-0.6598,-2.0312,-2.0153,-2.0,-1.979,-1.9682,-1.9527,-1.932,-1.9305,-1.9305,-1.9305,-1.9305,-1.9656,-2.0592,-1.9858,-1.9675,-2.0594,-1.995,-1.9418,-1.9323,-1.9274,-1.9243,-1.9243,-1.9243,-1.9182,-1.9001,-1.9198,-1.9305,-1.9305,-1.9305,-1.9394,-1.9601,-1.9442,-1.949,-1.9762,-1.9462,-1.9504,-1.9762,-1.9662,-1.9738,-1.9907,-1.9231,-1.9364,-1.9783,-1.8108,-1.8031,-1.8544,-1.6673,-1.613,-1.6127,-1.5255,-1.483,-1.4677,-1.4677,-1.4581,-1.4488,-1.4464,-1.427,-1.4038,-1.3941,-1.3739,-1.341,-1.2764,-1.2416,-1.2169,-1.1854,-1.1747,-1.1571,-1.1085,-1.1118,-1.0996,-1.0198,-1.0235,-1.031,-1.0046,-0.8026,-0.7019,-0.8525,0.0,-0.753,-0.612,-0.5754,-0.529,-0.4471,-0.3742,-0.3261,-0.3196,-0.217,-0.1811,-0.2456,-0.1878,-0.1878,-0.2663,-0.3475,-0.3956,-0.4091,-0.5282,-0.5859,-0.5828,-0.6213,-0.6582,-0.6901,-0.6893,-0.7197,-0.7761,-0.7879,-0.7645,-0.724,-0.7346,-0.6986,-0.6404,-0.6614,-0.6659,-0.662,-0.6867,-0.6626,-0.6162,-2.0312,-2.0269,-2.0116,-1.97,-1.9599,-1.9527,-1.932,-1.9305,-1.9305,-1.9305,-1.9305,-1.9892,-2.1418,-2.0207,-1.9913,-2.1455,-2.0813,-2.0042,-1.9326,-1.9134,-1.9052,-1.9052,-1.9052,-1.9035,-1.8984,-1.9198,-1.9305,-1.9305,-1.9305,-1.9394,-1.9614,-1.9569,-1.9582,-1.9636,-1.9569,-1.9582,-1.9636,-1.9596,-1.9695,-1.9824,-1.9692,-1.9711,-1.9654,-1.7972,-1.7928,-1.8478,-1.5986,-1.5543,-1.5997,-1.5057,-1.4656,-1.4533,-1.4533,-1.4511,-1.4464,-1.4295,-1.411,-1.3927,-1.3913,-1.3665,-1.3295,-1.2743,-1.2572,-1.2416,-1.1918,-1.1579,-1.1341,-1.1265,-1.1094,-1.092,-1.0777,-1.0556,-1.0409,-1.0485,-0.7972,-0.6574,-0.823,0.0,-0.6241,-0.5861,-0.5204,-0.4434,-0.3579,-0.3388,-0.3167,-0.2826,-0.2593,-0.2183,-0.154,-0.2117,-0.256,-0.2696,-0.3171,-0.3751,-0.4505,-0.5446,-0.5734,-0.5404,-0.5797,-0.6029,-0.609,-0.5984,-0.6555,-0.7602,-0.6826,-0.7011,-0.7792,-0.6826,-0.6557,-0.6687,-0.6425,-0.6409,-0.6593,-0.664,-0.6373,-0.5965,-2.0312,-2.0312,-2.0199,-1.9877,-1.9612,-1.9413,-1.9305,-1.9305,-1.9305,-1.9305,-1.9675,-2.0427,-2.1674,-2.1123,-2.1125,-2.2336,-2.1552,-2.0695,-1.9989,-2.0136,-1.9867,-1.9038,-1.9381,-1.9469,-1.9184,-1.9243,-1.9305,-1.9305,-1.9305,-1.9394,-1.9601,-1.9499,-1.9499,-1.9601,-1.9485,-1.9442,-1.9442,-1.9442,-1.9536,-1.9695,-1.9695,-1.9695,-1.9601,-1.8833,-1.8831,-1.8953,-1.6838,-1.634,-1.6493,-1.5148,-1.4603,-1.4488,-1.4488,-1.4441,-1.4307,-1.4232,-1.4289,-1.4322,-1.4025,-1.3868,-1.3648,-1.3066,-1.2659,-1.2276,-1.1876,-1.1534,-1.1265,-1.1103,-1.0845,-1.0594,-1.0398,-1.0223,-1.0059,-0.988,-0.8501,-0.7378,-0.7139,-0.6414,-0.5623,-0.4872,-0.4268,-0.3644,-0.3035,-0.2973,-0.2911,-0.2723,-0.2693,-0.2526,-0.2083,-0.2456,-0.2696,-0.2696,-0.3105,-0.3621,-0.428,-0.4877,-0.5106,-0.4922,-0.5365,-0.5453,-0.5201,-0.5411,-0.5544,-0.5671,-0.5628,-0.5679,-0.5823,-0.5401,-0.5251,-0.5302,-0.5246,-0.535,-0.5529,-0.5657,-0.5431,-0.5084,-2.0312,-2.0312,-2.0208,-1.9896,-1.9585,-1.9346,-1.9305,-1.9455,-1.9583,-1.9583,-2.0299,-2.1125,-2.1987,-2.1913,-2.2116,-2.2942,-2.2245,-2.1462,-2.0765,-2.1442,-2.1094,-1.9413,-1.9902,-1.9973,-1.9504,-1.935,-1.9274,-1.9227,-1.9227,-1.9323,-1.9456,-1.9289,-1.9353,-1.9527,-1.9365,-1.9305,-1.9305,-1.9305,-1.938,-1.9527,-1.9527,-1.9527,-1.9509,-1.9323,-1.9406,-1.9378,-1.7671,-1.7231,-1.7216,-1.5514,-1.4859,-1.4744,-1.4507,-1.432,-1.4211,-1.4315,-1.4593,-1.4755,-1.4156,-1.3989,-1.3852,-1.3343,-1.27,-1.2128,-1.1854,-1.149,-1.115,-1.0944,-1.057,-1.0185,-0.9841,-0.979,-0.9633,-0.9197,0.0,-0.7988,-0.646,-0.5907,-0.5228,-0.4071,-0.3542,-0.313,-0.2746,-0.2712,-0.2712,-0.2712,-0.269,-0.2693,-0.2693,-0.2693,-0.2693,-0.2693,-0.3105,-0.3458,-0.3826,-0.4248,-0.4473,-0.4473,-0.4826,-0.4794,-0.4473,-0.4826,-0.4669,-0.4108,-0.4638,-0.4615,-0.4223,-0.4341,-0.429,-0.4123,-0.4342,-0.4494,-0.4641,-0.4821,-0.4657,-0.435,-2.0312,-2.0312,-2.0098,-1.9462,-1.9472,-1.9526,-1.9335,-1.9932,-2.0411,-2.0411,-2.1161,-2.2006,-2.2832,-2.2244,-2.2116,-2.2942,-2.2942,-2.2429,-2.1406,-2.2723,-2.2584,-2.047,-2.045,-2.0349,-2.0065,-1.9563,-1.9214,-1.9018,-1.9018,-1.9018,-1.9035,-1.9018,-1.9117,-1.932,-1.9305,-1.9305,-1.9305,-1.9305,-1.9305,-1.932,-1.932,-1.932,-1.9246,-1.8478,-1.8795,-1.9364,-1.7559,-1.7514,-1.8044,-1.6239,-1.5613,-1.5447,-1.4518,-1.4201,-1.4266,-1.4648,-1.4958,-1.5002,-1.4205,-1.3812,-1.3584,-1.3277,-1.27,-1.2128,-1.1854,-1.1347,-1.092,-1.0897,-1.0398,-0.9841,-0.9502,-0.9422,-0.9316,-0.8899,0.0,0.0,-0.6996,-0.5953,-0.4922,-0.4081,-0.3588,-0.313,-0.2746,-0.2712,-0.2712,-0.2712,-0.2712,-0.2716,-0.2716,-0.2716,-0.2716,-0.2716,-0.3101,-0.3327,-0.3355,-0.3821,-0.4058,-0.4058,-0.4091,-0.4091,-0.4058,-0.4091,-0.4205,-0.4356,-0.4166,-0.4379,-0.4814,-0.4505,-0.4382,-0.4387,-0.4529,-0.4583,-0.4623,-0.4838,-0.4613,-0.4226,-2.0312,-2.0312,-2.0153,-1.9682,-1.96,-1.9708,-2.0,-2.0301,-2.0686,-2.1235,-2.2024,-2.2666,-2.2978,-2.3162,-2.34,-2.3712,-2.354,-2.3037,-2.2142,-2.2891,-2.2789,-2.1494,-2.1149,-2.0952,-2.0858,-1.9992,-1.9687,-1.993,-1.9129,-1.8843,-1.9002,-1.9002,-1.9035,-1.9117,-1.9243,-1.9305,-1.9305,-1.9305,-1.9305,-1.9305,-1.9305,-1.9305,-1.9286,-1.8959,-1.9077,-1.9265,-1.807,-1.7882,-1.8029,-1.6838,-1.6031,-1.5446,-1.5071,-1.4431,-1.3806,-1.3701,-1.3805,-1.3891,-1.3579,-1.3772,-1.3865,-1.3122,-1.2758,-1.2388,-1.1659,-1.1187,-1.0849,-1.0629,-1.0223,-0.979,-0.9449,-0.9408,-0.9209,-0.8578,0.0,-0.7043,-0.634,-0.5442,-0.4622,-0.4053,-0.3593,-0.3229,-0.3101,-0.2841,-0.2712,-0.2712,-0.2712,-0.2712,-0.2712,-0.2712,-0.2712,-0.2712,-0.2841,-0.294,-0.294,-0.3364,-0.3556,-0.3556,-0.3858,-0.3858,-0.3593,-0.3858,-0.3771,-0.3369,-0.3493,-0.3546,-0.3516,-0.3381,-0.3337,-0.3346,-0.3406,-0.3517,-0.3683,-0.3751,-0.3794,-0.3831,-2.0312,-2.0312,-2.018,-1.9866,-1.9645,-1.9662,-2.0058,-2.0574,-2.1125,-2.1729,-2.2721,-2.3345,-2.3232,-2.3725,-2.4036,-2.4036,-2.3753,-2.3332,-2.2914,-2.3084,-2.2912,-2.2242,-2.1754,-2.147,-2.1366,-2.0498,-2.0067,-2.012,-1.9245,-1.8813,-1.8752,-1.8752,-1.8825,-1.9019,-1.915,-1.9227,-1.9305,-1.9305,-1.9305,-1.9305,-1.9305,-1.9305,-1.9305,-1.9305,-1.9305,-1.9216,-1.8665,-1.8482,-1.8339,-1.7442,-1.6686,-1.603,-1.5566,-1.4881,-1.4048,-1.3048,-1.314,-1.3427,-1.2899,-1.329,-1.3651,-1.2976,-1.2651,-1.2275,-1.1465,-1.1094,-1.0801,-1.047,-1.0135,-0.9764,-0.9289,-0.9337,-0.9136,-0.8197,-0.7583,-0.691,-0.608,-0.5255,-0.4587,-0.4123,-0.3651,-0.3348,-0.3184,-0.2917,-0.273,-0.2716,-0.2712,-0.2712,-0.2712,-0.2712,-0.2712,-0.2712,-0.2712,-0.2712,-0.2712,-0.297,-0.3097,-0.3097,-0.3434,-0.3434,-0.313,-0.3434,-0.3303,-0.2785,-0.2992,-0.3004,-0.2795,-0.2721,-0.2528,-0.2266,-0.2243,-0.2167,-0.2045,-0.2114,-0.2423,-0.2804,-2.0312,-2.0312,-2.018,-1.9866,-1.9513,-1.9305,-1.9323,-2.0719,-2.1803,-2.1821,-2.3199,-2.4074,-2.3753,-2.3692,-2.3692,-2.3692,-2.3392,-2.3346,-2.3671,-2.3392,-2.3045,-2.2721,-2.2253,-2.185,-2.1529,-2.105,-2.0324,-1.9312,-1.9295,-1.8914,-1.8205,-1.8187,-1.8489,-1.8984,-1.9002,-1.9101,-1.9289,-1.9289,-1.9289,-1.9289,-1.9289,-1.9289,-1.9305,-1.9305,-1.9305,-1.9289,-1.9289,-1.9289,-1.913,-1.8073,-1.7687,-1.7429,-1.5872,-1.5518,-1.5233,-1.2879,-1.3177,-1.3915,-1.2259,-1.2284,-1.2801,-1.2801,-1.2306,-1.1718,-1.1378,-1.1094,-1.0801,-1.0483,-1.0148,-0.9686,-0.8937,-0.9173,-0.9074,-0.7734,-0.7569,-0.7287,-0.642,-0.5596,-0.4877,-0.4277,-0.3858,-0.3436,-0.2982,-0.291,-0.2849,-0.2726,-0.2712,-0.2712,-0.2712,-0.2712,-0.2712,-0.2712,-0.2712,-0.2712,-0.2712,-0.2712,-0.2712,-0.2712,-0.2712,-0.2712,-0.2712,-0.2712,-0.2764,-0.29,-0.2751,-0.2805,-0.2985,-0.2766,-0.2144,-0.1284,-0.1254,-0.0628,0.0293,0.0087,-0.0487,-0.1063,-2.0312,-2.0312,-2.018,-1.9866,-1.9645,-1.9643,-2.0076,-2.0574,-2.1308,-2.2501,-2.307,-2.3452,-2.3681,-2.3917,-2.3858,-2.3392,-2.3259,-2.3141,-2.3021,-2.2721,-2.2607,-2.2695,-2.2588,-2.2442,-2.234,-2.1523,-2.1122,-2.1188,-1.974,-1.899,-1.8949,-1.8429,-1.829,-1.845,-1.8825,-1.8931,-1.8807,-1.9017,-1.9102,-1.9102,-1.9102,-1.9182,-1.9305,-1.9305,-1.9305,-1.9274,-1.9134,-1.9102,-1.9014,-1.8503,-1.7861,-1.7024,-1.5627,-1.4777,-1.4116,-1.3174,-1.2724,-1.244,-1.1953,-1.2091,-1.2372,-1.2372,-1.244,-1.229,-1.1481,-1.1103,-1.0838,-1.065,-1.0525,-1.0334,-0.9943,-0.9667,-0.9176,-0.8142,-0.7441,-0.6939,-0.6699,-0.6006,-0.5542,-0.5589,-0.5056,-0.4662,-0.4713,-0.4475,-0.4058,-0.3503,-0.3007,-0.2712,-0.2712,-0.2712,-0.2712,-0.2712,-0.2712,-0.2712,-0.2712,-0.2712,-0.2683,-0.2693,-0.2693,-0.2693,-0.2693,-0.2693,-0.2809,-0.2982,-0.3082,-0.3079,-0.2921,-0.2065,-0.1065,-0.0,0.1065,0.1315,0.1123,0.2147,0.2224,0.1726,-2.0312,-2.0312,-2.0153,-1.9682,-1.954,-1.9596,-1.9966,-2.0592,-2.1382,-2.2391,-2.2959,-2.3331,-2.349,-2.3566,-2.3437,-2.3045,-2.274,-2.2558,-2.2546,-2.2126,-2.1946,-2.2091,-2.2382,-2.2537,-2.2537,-2.1946,-2.1481,-2.1207,-1.9952,-1.9124,-1.8687,-1.8555,-1.8375,-1.8225,-1.8845,-1.8943,-1.8604,-1.877,-1.8843,-1.8843,-1.8949,-1.9069,-1.9198,-1.9259,-1.9305,-1.9274,-1.9069,-1.9002,-1.8949,-1.8566,-1.7879,-1.697,-1.5759,-1.5076,-1.4577,-1.386,-1.3213,-1.2704,-1.246,-1.2286,-1.2205,-1.2205,-1.2372,-1.2366,-1.1637,-1.1326,-1.1195,-1.1089,-1.0875,-1.0666,-1.0366,-1.0003,-0.9407,-0.8307,-0.7813,-0.7357,-0.6779,-0.6159,-0.5825,-0.6003,-0.5452,-0.5156,-0.5341,-0.4894,-0.4303,-0.3582,-0.3267,-0.3037,-0.2805,-0.2771,-0.2771,-0.2771,-0.2771,-0.2771,-0.2771,-0.2771,-0.2744,-0.269,-0.2696,-0.2696,-0.2696,-0.232,-0.2213,-0.2357,-0.2962,-0.3213,-0.3151,-0.2223,-0.1028,0.0433,0.2321,0.2612,0.21,0.2924,0.3278,0.3175,-2.0312,-2.026,-2.0011,-1.9405,-1.9305,-1.9305,-1.9305,-2.0609,-2.1601,-2.1674,-2.2679,-2.3279,-2.3023,-2.2737,-2.2573,-2.2565,-2.196,-2.1739,-2.2158,-2.1498,-2.1075,-2.1075,-2.1735,-2.2107,-2.2107,-2.2175,-2.1515,-2.0103,-2.0035,-1.9343,-1.8132,-1.8724,-1.8728,-1.8305,-1.9001,-1.9007,-1.8528,-1.8547,-1.8566,-1.8603,-1.8825,-1.8949,-1.8984,-1.918,-1.9274,-1.9261,-1.9052,-1.8966,-1.8914,-1.8391,-1.7827,-1.7164,-1.6201,-1.6063,-1.5998,-1.4714,-1.4216,-1.3952,-1.3395,-1.2743,-1.2205,-1.2128,-1.2174,-1.216,-1.1808,-1.1665,-1.1603,-1.1644,-1.1216,-1.0746,-1.0483,-1.0278,-0.9695,-0.8286,-0.8302,-0.8028,-0.6747,-0.6163,-0.5837,-0.574,-0.5429,-0.5217,-0.5197,-0.4582,-0.3931,-0.3247,-0.3541,-0.3484,-0.2946,-0.291,-0.2913,-0.2927,-0.2903,-0.2903,-0.2927,-0.2917,-0.2832,-0.2716,-0.272,-0.2626,-0.2441,-0.1587,-0.1181,-0.1239,-0.2359,-0.3108,-0.3547,-0.3015,-0.17,0.0236,0.2432,0.3178,0.2947,0.2791,0.3071,0.3453,-2.0312,-1.9877,-1.9476,-1.9335,-1.9305,-1.9305,-1.9305,-1.9617,-2.006,-2.0703,-2.0898,-2.1071,-2.1373,-2.1572,-2.1649,-2.1541,-2.1377,-2.1334,-2.1441,-2.0703,-2.0255,-2.0255,-2.0407,-2.0491,-2.0491,-2.1126,-2.1262,-2.0923,-2.0314,-2.0162,-2.0433,-1.9993,-1.9391,-1.8773,-1.9137,-1.881,-1.7992,-1.8187,-1.829,-1.829,-1.8351,-1.8489,-1.8698,-1.8966,-1.9069,-1.9035,-1.8789,-1.8807,-1.8914,-1.8391,-1.7975,-1.7555,-1.6824,-1.6262,-1.5756,-1.4934,-1.3935,-1.3075,-1.2947,-1.2565,-1.2086,-1.1608,-1.2,-1.2422,-1.2099,-1.1375,-1.1033,-1.2015,-1.15,-1.1002,-1.1417,-1.0423,-0.9346,-0.8671,-0.7515,-0.6622,-0.6313,-0.5961,-0.5827,-0.6073,-0.62,-0.6191,-0.5989,-0.4878,-0.4092,-0.3825,-0.3467,-0.3134,-0.2913,-0.291,-0.2961,-0.3069,-0.2852,-0.2842,-0.3073,-0.2964,-0.2835,-0.2696,-0.2854,-0.212,-0.0573,-0.0392,-0.0293,-0.0307,-0.0547,-0.1778,-0.3598,-0.3443,-0.2062,0.0039,0.0571,0.1317,0.2142,0.2794,0.2968,0.2684,-2.0312,-1.9755,-1.9305,-1.9305,-1.9305,-1.9305,-1.9305,-1.962,-2.0023,-2.0429,-2.0517,-2.0646,-2.0877,-2.0802,-2.0686,-2.0637,-2.0297,-2.0247,-2.0602,-1.9908,-1.9486,-1.9486,-1.9799,-1.9664,-1.8954,-1.9705,-2.0094,-2.0094,-1.9688,-1.9688,-2.0094,-2.0044,-1.9621,-1.891,-1.9416,-1.8949,-1.7811,-1.7949,-1.8014,-1.8035,-1.8146,-1.829,-1.843,-1.8715,-1.8807,-1.877,-1.8508,-1.841,-1.8391,-1.8103,-1.7905,-1.7681,-1.7018,-1.6559,-1.6101,-1.5268,-1.4531,-1.3791,-1.3006,-1.2629,-1.2215,-1.1336,-1.1357,-1.1624,-1.1697,-1.1484,-1.1443,-1.1993,-1.1477,-1.1053,-1.135,-1.034,-0.9293,-0.8797,-0.7773,-0.6901,-0.6598,-0.6431,-0.64,-0.6543,-0.6722,-0.6524,-0.5819,-0.5117,-0.4466,-0.3839,-0.3713,-0.3471,-0.3124,-0.3078,-0.3268,-0.3624,-0.338,-0.3372,-0.3624,-0.3384,-0.3118,-0.2903,-0.2946,-0.2512,-0.1544,-0.0917,-0.0404,-0.0,-0.0,-0.0722,-0.1932,-0.2824,-0.193,-0.0,-0.0,0.0145,0.0362,0.0834,0.1175,0.1123,-2.0312,-1.9755,-1.9305,-1.9305,-1.9305,-1.9305,-1.9305,-1.9877,-2.0283,-2.0283,-2.0406,-2.0519,-2.0519,-2.009,-1.9824,-1.9874,-1.9273,-1.9164,-1.9765,-1.913,-1.8707,-1.8707,-1.9316,-1.9039,-1.7845,-1.8403,-1.8775,-1.8894,-1.8894,-1.8961,-1.9096,-1.9647,-1.9529,-1.891,-1.9479,-1.9007,-1.7811,-1.7811,-1.7811,-1.7833,-1.8057,-1.8125,-1.8166,-1.843,-1.8528,-1.8508,-1.827,-1.7975,-1.7726,-1.7772,-1.7726,-1.7519,-1.6917,-1.6712,-1.6522,-1.5551,-1.5148,-1.4704,-1.3307,-1.2813,-1.2391,-1.1248,-1.0871,-1.0804,-1.0941,-1.1383,-1.1761,-1.1807,-1.1319,-1.0867,-1.0857,-1.005,-0.9199,-0.8635,-0.8028,-0.7405,-0.6803,-0.681,-0.681,-0.6719,-0.681,-0.6465,-0.5389,-0.5216,-0.4687,-0.3628,-0.391,-0.3916,-0.3472,-0.3347,-0.3607,-0.421,-0.3889,-0.3786,-0.4045,-0.3712,-0.341,-0.3118,-0.3116,-0.3162,-0.3256,-0.2166,-0.1259,-0.0439,-0.0139,-0.0,-0.0109,-0.1621,-0.1531,-0.0474,-0.0469,-0.0898,-0.1542,-0.1542,-0.1072,-0.0721,-2.0312,-1.9755,-1.9305,-1.9305,-1.9305,-1.9305,-1.9305,-1.9381,-1.9455,-1.9455,-1.9147,-1.8923,-1.8923,-1.8982,-1.9124,-1.9361,-1.9086,-1.8944,-1.9046,-1.8369,-1.7963,-1.7963,-1.8048,-1.7991,-1.7811,-1.7912,-1.8268,-1.8894,-1.8894,-1.9232,-1.9849,-1.966,-1.9336,-1.8894,-1.8701,-1.8309,-1.7811,-1.7811,-1.7811,-1.7811,-1.7856,-1.7839,-1.7883,-1.8146,-1.8249,-1.8249,-1.8208,-1.7849,-1.7399,-1.7636,-1.7358,-1.6866,-1.6474,-1.6382,-1.6215,-1.5374,-1.4703,-1.414,-1.3557,-1.2969,-1.232,-1.1465,-1.1572,-1.1491,-0.9984,-1.0077,-1.0701,-1.1589,-1.1067,-1.038,-1.0302,-0.9491,-0.8635,-0.8077,-0.7112,-0.6215,-0.5604,-0.6002,-0.613,-0.5604,-0.6002,-0.6044,-0.5346,-0.4822,-0.4199,-0.3388,-0.3569,-0.3792,-0.4053,-0.3637,-0.37,-0.4349,-0.3625,-0.3274,-0.3427,-0.3433,-0.3382,-0.3279,-0.3456,-0.3456,-0.3293,-0.3276,-0.2952,-0.225,-0.0697,-0.0,-0.0036,-0.0275,-0.1148,-0.2338,-0.2336,-0.2398,-0.25,-0.25,-0.2423,-0.2386,-2.0312,-1.9755,-1.9305,-1.9305,-1.9305,-1.9305,-1.9305,-1.9305,-1.9259,-1.915,-1.8825,-1.8547,-1.8391,-1.8327,-1.833,-1.8449,-1.8353,-1.8285,-1.8285,-1.798,-1.7811,-1.7811,-1.7811,-1.7811,-1.7811,-1.7811,-1.7963,-1.8285,-1.8285,-1.8579,-1.911,-1.8965,-1.8783,-1.8626,-1.828,-1.7996,-1.7789,-1.7595,-1.7635,-1.7811,-1.7811,-1.7681,-1.7549,-1.7861,-1.7866,-1.7715,-1.7715,-1.7516,-1.7256,-1.6954,-1.6693,-1.6358,-1.5764,-1.5564,-1.5374,-1.4481,-1.4244,-1.4086,-1.2966,-1.2713,-1.2555,-1.1691,-1.1455,-1.1217,-1.0435,-1.0236,-1.0303,-1.0474,-1.0176,-0.9834,-0.9815,-0.9191,-0.8521,-0.7995,-0.7196,-0.6428,-0.5873,-0.6301,-0.6556,-0.6289,-0.6215,-0.5959,-0.5351,-0.4739,-0.4144,-0.3526,-0.3541,-0.3683,-0.3867,-0.3648,-0.3806,-0.4387,-0.3888,-0.3723,-0.3933,-0.3715,-0.3556,-0.3476,-0.3459,-0.3463,-0.3483,-0.3447,-0.3334,-0.3142,-0.2016,-0.0948,-0.0076,-0.1081,-0.1971,-0.2706,-0.2699,-0.2703,-0.2703,-0.2703,-0.2696,-0.27]},{"header":{"parameterUnit":"m.s-1","parameterCategory":1,"la1":30.6,"la2":28.766,"lo1":-90.7593,"lo2":-88.6598,"dy":0.0162,"dx":0.0183,"nx":116,"ny":114,"refTime":"2023-07-25T06:00:00:Z","depth":0,"parameterNumber":3,"parameterNumberName":"V-component_of_WINDS"},"data":[0.0,0.0,0.0,0.0,0.0,0.0,0.0,0.0,0.0,0.0,0.0,0.0,0.0,0.0,0.0,0.0,0.0,0.0,0.0,0.0,0.0,0.0,0.0,0.0,0.0,0.0,0.0,0.0,0.0,0.0,0.0,0.0,0.0,0.0,0.0,0.0,0.0,0.0,0.0,0.0,0.0,0.0,0.0,0.0,0.0,0.0,0.0,0.0,0.0,0.0,0.0,0.0,0.0,0.0,0.0,0.0,0.0,0.0,0.0,0.0,0.0,0.0,0.0,0.0,0.0,0.0,0.0,0.0,0.0,0.0,0.0,0.0,0.0,0.0,0.0,0.0,0.0,0.0,0.0,0.0,0.0,0.0,0.0,0.0,0.0,0.0,0.0,0.0,0.0,0.0,0.0,0.0,0.0,0.0,0.0,0.0,0.0,0.0,0.0,0.0,0.0,0.0,0.0,0.0,0.0,0.0,0.0,0.0,0.0,0.0,0.0,0.0,0.0,0.0,0.0,0.0,0.0,0.0,0.0,0.0,0.0,0.0,0.0,0.0,0.0,0.0,0.0,0.0,0.0,0.0,0.0,0.0,0.0,0.0,0.0,0.0,0.0,0.0,0.0,0.0,0.0,0.0,0.0,0.0,0.0,0.0,0.0,0.0,0.0,0.0,0.0,0.0,0.0,0.0,0.0,0.0,0.0,0.0,0.0,0.0,0.0,0.0,0.0,0.0,0.0,0.0,0.0,0.0,0.0,0.0,0.0,0.0,0.0,0.0,0.0,0.0,0.0,0.0,0.0,0.0,0.0,0.0,0.0,0.0,0.0,0.0,0.0,0.0,0.0,0.0,0.0,0.0,0.0,0.0,0.0,0.0,0.0,0.0,0.0,0.0,0.0,0.0,0.0,0.0,0.0,0.0,0.0,0.0,0.0,0.0,0.0,0.0,0.0,0.0,0.0,0.0,0.0,0.0,0.0,0.0,0.0,0.0,0.0,0.0,0.0,0.0,0.0,0.0,0.0,0.0,0.0,0.0,0.0,0.0,0.0,0.0,0.0,0.0,0.0,0.0,0.0,0.0,0.0,0.0,0.0,0.0,0.0,0.0,0.0,0.0,0.0,0.0,0.0,0.0,0.0,0.0,0.0,0.0,0.0,0.0,0.0,0.0,0.0,0.0,0.0,0.0,0.0,0.0,0.0,0.0,0.0,0.0,0.0,0.0,0.0,0.0,0.0,0.0,0.0,0.0,0.0,0.0,0.0,0.0,0.0,0.0,0.0,0.0,0.0,0.0,0.0,0.0,0.0,0.0,0.0,0.0,0.0,0.0,0.0,0.0,0.0,0.0,0.0,0.0,0.0,0.0,0.0,0.0,0.0,0.0,0.0,0.0,0.0,0.0,0.0,0.0,0.0,0.0,0.0,0.0,0.0,0.0,0.0,0.0,0.0,0.0,0.0,0.0,0.0,0.0,0.0,0.0,0.0,0.0,0.0,0.0,0.0,0.0,0.0,0.0,0.0,0.0,0.0,0.0,0.0,0.0,0.0,0.0,0.0,0.0,0.0,0.0,0.0,0.0,0.0,0.0,0.0,0.0,0.0,0.0,0.0,0.0,0.0,0.0,0.0,0.0,0.0,0.0,0.0,0.0,0.0,0.0,0.0,0.0,0.0,0.0,0.0,0.0,0.0,0.0,0.0,0.0,0.0,0.0,0.0,0.0,0.0,0.0,0.0,0.0,0.0,0.0,0.0,0.0,0.0,0.0,0.0,0.0,0.0,0.0,0.0,0.0,0.0,0.0,0.0,0.0,0.0,0.0,0.0,0.0,0.0,0.0,0.0,0.0,0.0,0.0,0.0,0.0,0.0,0.0,0.0,0.0,0.0,0.0,0.0,0.0,0.0,0.0,0.0,0.0,0.0,0.0,0.0,0.0,0.0,0.0,0.0,0.0,0.0,0.0,0.0,0.0,0.0,0.0,0.0,0.0,0.0,0.0,0.0,0.0,0.0,0.0,0.0,0.0,0.0,0.0,0.0,0.0,0.0,0.0,0.0,0.0,0.0,0.0,0.0,0.0,0.0,0.0,0.0,0.0,0.0,0.0,0.0,0.0,0.0,0.0,0.0,0.0,0.0,0.0,0.0,0.0,0.0,0.0,0.0,0.0,0.0,0.0,0.0,0.0,0.0,0.0,0.0,0.0,0.0,0.0,0.0,0.0,0.0,0.0,0.0,0.0,0.0,0.0,0.0,0.0,0.0,0.0,0.0,0.0,0.0,0.0,0.0,0.0,0.0,0.0,0.0,0.0,0.0,0.0,0.0,0.0,0.0,0.0,0.0,0.0,0.0,0.0,0.0,0.0,0.0,0.0,0.0,0.0,0.0,0.0,0.0,0.0,0.0,0.0,0.0,0.0,0.0,0.0,0.0,0.0,0.0,0.0,0.0,0.0,0.0,0.0,0.0,0.0,0.0,0.0,0.0,0.0,0.0,0.0,0.0,0.0,0.0,0.0,0.0,0.0,0.0,0.0,0.0,0.0,0.0,0.0,0.0,0.0,0.0,0.0,0.0,0.0,0.0,0.0,0.0,0.0,0.0,0.0,0.0,0.0,0.0,0.0,0.0,0.0,0.0,0.0,0.0,0.0,0.0,0.0,0.0,0.0,0.0,0.0,0.0,0.0,0.0,0.0,0.0,0.0,0.0,0.0,0.0,0.0,0.0,0.0,0.0,0.0,0.0,0.0,0.0,0.0,0.0,0.0,0.0,0.0,0.0,0.0,0.0,0.0,0.0,0.0,0.0,0.0,0.0,0.0,0.0,0.0,0.0,0.0,0.0,0.0,0.0,0.0,0.0,0.0,0.0,0.0,0.0,0.0,0.0,0.0,0.0,0.0,0.0,0.0,0.0,0.0,0.0,0.0,0.0,0.0,0.0,0.0,0.0,0.0,0.0,0.0,0.0,0.0,0.0,0.0,0.0,0.0,0.0,0.0,0.0,0.0,0.0,0.0,0.0,0.0,0.0,0.0,0.0,0.0,0.0,0.0,0.0,0.0,0.0,0.0,0.0,0.0,0.0,0.0,0.0,0.0,0.0,0.0,0.0,0.0,0.0,0.0,0.0,0.0,0.0,0.0,0.0,0.0,0.0,0.0,0.0,0.0,0.0,0.0,0.0,0.0,0.0,0.0,0.0,0.0,0.0,0.0,0.0,0.0,0.0,0.0,0.0,0.0,0.0,0.0,0.0,0.0,0.0,0.0,0.0,0.0,0.0,0.0,0.0,0.0,0.0,0.0,0.0,0.0,0.0,0.0,0.0,0.0,0.0,0.0,0.0,0.0,0.0,0.0,0.0,0.0,0.0,0.0,0.0,0.0,0.0,0.0,0.0,0.0,0.0,0.0,0.0,0.0,0.0,0.0,0.0,0.0,0.0,0.0,0.0,0.0,0.0,0.0,0.0,0.0,0.0,0.0,0.0,0.0,0.0,0.0,0.0,0.0,0.0,0.0,0.0,0.0,0.0,0.0,0.0,0.0,0.0,0.0,0.0,0.0,0.0,0.0,0.0,0.0,0.0,0.0,0.0,0.0,0.0,0.0,0.0,0.0,0.0,0.0,0.0,0.0,0.0,0.0,0.0,0.0,0.0,0.0,0.0,0.0,0.0,0.0,0.0,0.0,0.0,0.0,0.0,0.0,0.0,0.0,0.0,0.0,0.0,0.0,0.0,0.0,0.0,0.0,0.0,0.0,0.0,0.0,0.0,0.0,0.0,0.0,0.0,0.0,0.0,0.0,0.0,0.0,0.0,0.0,0.0,0.0,0.0,0.0,0.0,0.0,0.0,0.0,0.0,0.0,0.0,0.0,0.0,0.0,0.0,0.0,0.0,0.0,0.0,0.0,0.0,0.0,0.0,0.0,0.0,0.0,0.0,0.0,0.0,0.0,0.0,0.0,0.0,0.0,0.0,0.0,0.0,0.0,0.0,0.0,0.0,0.0,0.0,0.0,0.0,0.0,0.0,0.0,0.0,0.0,0.0,0.0,0.0,0.0,0.0,0.0,0.0,0.0,0.0,0.0,0.0,0.0,0.0,0.0,0.0,0.0,0.0,0.0,0.0,0.0,0.0,0.0,0.0,0.0,0.0,0.0,0.0,0.0,0.0,0.0,0.0,0.0,0.0,0.0,0.0,0.0,0.0,0.0,0.0,0.0,0.0,0.0,0.0,0.0,0.0,0.0,0.0,0.0,0.0,0.0,0.0,0.0,0.0,0.0,0.0,0.0,0.0,0.0,0.0,0.0,0.0,0.0,0.0,0.0,0.0,0.0,0.0,0.0,0.0,0.0,0.0,0.0,0.0,0.0,0.0,0.0,0.0,0.0,0.0,0.0,0.0,0.0,0.0,0.0,0.0,0.0,0.0,0.0,0.0,0.0,0.0,0.0,0.0,0.0,0.0,0.0,0.0,0.0,0.0,0.0,0.0,0.0,0.0,0.0,0.0,0.0,0.0,0.0,0.0,0.0,0.0,0.0,0.0,0.0,0.0,0.0,0.0,0.0,0.0,0.0,0.0,0.0,0.0,0.0,0.0,0.0,0.0,0.0,0.0,0.0,0.0,0.0,0.0,0.0,0.0,0.0,0.0,0.0,0.0,0.0,0.0,0.0,0.0,0.0,0.0,0.0,0.0,0.0,0.0,0.0,0.0,0.0,0.0,0.0,0.0,0.0,0.0,0.0,0.0,0.0,0.0,0.0,0.0,0.0,0.0,0.0,0.0,0.0,0.0,0.0,0.0,0.0,0.0,0.0,0.0,0.0,0.0,0.0,0.0,0.0,0.0,0.0,0.0,0.0,0.0,0.0,0.0,0.0,0.0,0.0,0.0,0.0,0.0,0.0,0.0,0.0,0.0,0.0,0.0,0.0,0.0,0.0,0.0,0.0,0.0,0.0,0.0,0.0,0.0,0.0,0.0,0.0,0.0,0.0,0.0,0.0,0.0,0.0,0.0,0.0,0.0,0.0,0.0,0.0,0.0,0.0,0.0,0.0,0.0,0.0,0.0,0.0,0.0,0.0,0.0,0.0,0.0,0.0,0.0,0.0,0.0,0.0,0.0,0.0,0.0,0.0,0.0,0.0,0.0,0.0,0.0,0.0,0.0,0.0,0.0,0.0,0.0,0.0,0.0,0.0,0.0,0.0,0.0,0.0,0.0,0.0,0.0,0.0,0.0,0.0,0.0,0.0,0.0,0.0,0.0,0.0,0.0,0.0,0.0,0.0,0.0,0.0,0.0,0.0,0.0,0.0,0.0,0.0,0.0,0.0,0.0,0.0,0.0,0.0,0.0,0.0,0.0,0.0,0.0,0.0,0.0,0.0,0.0,0.0,0.0,0.0,0.0,0.0,0.0,0.0,0.0,0.0,0.0,0.0,0.0,0.0,0.0,0.0,0.0,0.0,0.0,0.0,0.0,0.0,0.0,0.0,0.0,0.0,0.0,0.0,0.0,0.0,0.0,0.0,0.0,0.0,0.0,0.0,0.0,0.0,0.0,0.0,0.0,0.0,0.0,0.0,0.0,0.0,0.0,0.0,0.0,0.0,0.0,0.0,0.0,0.0,0.0,0.0,0.0,0.0,0.0,0.0,0.0,0.0,0.0,0.0,0.0,0.0,0.0,0.0,0.0,0.0,0.0,0.0,0.0,0.0,0.0,0.0,0.0,0.0,0.0,0.0,0.0,0.0,0.0,0.0,0.0,0.0,0.0,0.0,0.0,0.0,0.0,0.0,0.0,0.0,0.0,0.0,0.0,0.0,0.0,0.0,0.0,0.0,0.0,0.0,0.0,0.0,0.0,0.0,0.0,0.0,0.0,0.0,0.0,0.0,0.0,0.0,0.0,0.0,0.0,0.0,0.0,0.0,0.0,0.0,0.0,0.0,0.0,0.0,0.0,0.0,0.0,0.0,0.0,0.0,0.0,0.0,0.0,0.0,0.0,0.0,0.0,0.0,0.0,0.0,0.0,0.0,0.0,0.0,0.0,0.0,0.0,0.0,0.0,0.0,0.0,0.0,0.0,0.0,0.0,0.0,0.0,0.0,0.0,0.0,0.0,0.0,0.0,0.0,0.0,0.0,0.0,0.0,-2.3621,0.0,0.0,0.0,0.0,0.0,0.0,0.0,0.0,0.0,0.0,0.0,0.0,0.0,0.0,0.0,0.0,0.0,0.0,0.0,0.0,0.0,0.0,0.0,0.0,0.0,0.0,0.0,0.0,0.0,0.0,0.0,0.0,0.0,0.0,0.0,0.0,0.0,0.0,0.0,0.0,0.0,0.0,0.0,0.0,0.0,0.0,0.0,0.0,0.0,0.0,0.0,0.0,0.0,0.0,0.0,0.0,0.0,0.0,0.0,0.0,0.0,0.0,0.0,0.0,0.0,0.0,0.0,0.0,0.0,0.0,0.0,0.0,0.0,0.0,0.0,0.0,0.0,0.0,0.0,0.0,0.0,0.0,0.0,0.0,0.0,0.0,0.0,0.0,0.0,0.0,0.0,0.0,0.0,0.0,0.0,0.0,0.0,0.0,0.0,0.0,0.0,0.0,0.0,0.0,0.0,0.0,0.0,0.0,0.0,0.0,0.0,0.0,0.0,0.0,0.0,0.0,-2.4044,0.0,0.0,0.0,0.0,0.0,0.0,0.0,0.0,0.0,0.0,0.0,0.0,0.0,0.0,0.0,0.0,0.0,0.0,0.0,0.0,0.0,0.0,0.0,0.0,0.0,0.0,0.0,0.0,0.0,0.0,0.0,0.0,0.0,0.0,0.0,0.0,0.0,0.0,0.0,0.0,0.0,0.0,0.0,0.0,0.0,0.0,0.0,0.0,0.0,0.0,0.0,0.0,0.0,0.0,0.0,0.0,0.0,0.0,0.0,0.0,0.0,0.0,0.0,0.0,0.0,0.0,0.0,0.0,0.0,0.0,0.0,0.0,0.0,0.0,0.0,0.0,0.0,0.0,0.0,0.0,0.0,0.0,0.0,0.0,0.0,0.0,0.0,0.0,0.0,0.0,0.0,0.0,0.0,0.0,0.0,0.0,0.0,0.0,0.0,0.0,0.0,0.0,0.0,0.0,0.0,0.0,0.0,0.0,-2.8782,-2.9158,-2.9906,-2.9775,-2.8952,-2.7567,-2.6155,-2.4471,-2.2833,-2.4205,0.0,0.0,0.0,0.0,0.0,0.0,0.0,0.0,0.0,0.0,0.0,0.0,0.0,0.0,0.0,0.0,0.0,0.0,0.0,0.0,0.0,0.0,0.0,0.0,0.0,0.0,0.0,0.0,0.0,0.0,0.0,0.0,0.0,0.0,0.0,0.0,0.0,0.0,0.0,0.0,0.0,0.0,0.0,0.0,0.0,0.0,0.0,0.0,0.0,0.0,0.0,0.0,0.0,0.0,0.0,0.0,0.0,0.0,0.0,0.0,0.0,0.0,0.0,0.0,0.0,0.0,0.0,0.0,0.0,0.0,0.0,0.0,0.0,0.0,0.0,0.0,0.0,0.0,0.0,0.0,0.0,0.0,0.0,0.0,0.0,0.0,-2.2997,-2.2997,0.0,0.0,0.0,0.0,0.0,0.0,0.0,0.0,0.0,0.0,0.0,0.0,0.0,-2.8552,-2.9155,-2.9155,-2.9514,-3.0209,-3.0209,-3.0546,-3.1133,-3.0433,-2.9991,-2.9752,-2.885,0.0,-2.4407,-2.4614,0.0,0.0,0.0,0.0,0.0,0.0,0.0,0.0,0.0,0.0,0.0,0.0,0.0,0.0,0.0,0.0,0.0,0.0,0.0,0.0,0.0,0.0,0.0,0.0,0.0,0.0,0.0,0.0,0.0,0.0,0.0,0.0,0.0,0.0,0.0,0.0,0.0,0.0,0.0,0.0,0.0,0.0,0.0,0.0,0.0,0.0,0.0,0.0,0.0,0.0,0.0,0.0,0.0,0.0,0.0,0.0,0.0,0.0,0.0,0.0,0.0,0.0,0.0,0.0,0.0,0.0,0.0,0.0,0.0,0.0,0.0,0.0,0.0,0.0,0.0,0.0,0.0,0.0,0.0,0.0,0.0,0.0,0.0,0.0,0.0,-2.3786,-2.4006,-2.3125,-2.4116,-2.4857,0.0,0.0,0.0,0.0,0.0,0.0,0.0,0.0,0.0,-2.9351,-3.0146,-3.0714,-3.1066,-3.1066,-3.1451,-3.2191,-3.2191,-3.2547,-3.3229,-3.273,-3.2264,-3.1792,-3.1265,-2.9793,-2.7693,-2.634,-2.5208,-2.4321,0.0,0.0,0.0,0.0,-2.4483,-2.4869,0.0,0.0,0.0,0.0,0.0,0.0,0.0,0.0,0.0,0.0,0.0,0.0,0.0,0.0,0.0,-2.156,0.0,0.0,0.0,0.0,0.0,0.0,0.0,0.0,0.0,0.0,0.0,0.0,0.0,0.0,0.0,0.0,0.0,0.0,0.0,0.0,0.0,0.0,0.0,0.0,0.0,0.0,0.0,0.0,0.0,0.0,0.0,0.0,0.0,0.0,0.0,0.0,0.0,0.0,0.0,0.0,0.0,0.0,0.0,0.0,0.0,0.0,0.0,0.0,0.0,0.0,0.0,0.0,0.0,0.0,0.0,0.0,0.0,0.0,0.0,0.0,0.0,-2.4412,-2.4795,-2.3199,-2.4961,-2.6058,0.0,0.0,0.0,0.0,0.0,0.0,-2.9526,-3.1118,-3.2033,-3.1946,-3.2627,-3.3105,-3.3346,-3.3013,-3.3337,-3.4321,-3.4164,-3.4677,-3.5684,-3.4936,-3.4276,-3.3725,-3.3141,-3.2049,-3.0508,-2.8384,-2.6576,-2.5126,-2.5126,-2.4997,-2.4814,-2.4814,-2.5181,-2.5695,0.0,0.0,0.0,0.0,0.0,0.0,0.0,0.0,0.0,0.0,0.0,0.0,0.0,0.0,-2.2324,-2.4045,-2.4327,-2.4545,0.0,0.0,0.0,0.0,0.0,0.0,0.0,0.0,0.0,0.0,0.0,0.0,0.0,0.0,0.0,0.0,0.0,0.0,0.0,0.0,0.0,0.0,0.0,0.0,0.0,0.0,0.0,0.0,0.0,0.0,0.0,0.0,0.0,0.0,0.0,0.0,0.0,0.0,0.0,0.0,0.0,0.0,0.0,0.0,0.0,0.0,0.0,0.0,0.0,0.0,0.0,0.0,0.0,0.0,0.0,0.0,0.0,0.0,0.0,0.0,0.0,-2.3199,-2.6426,0.0,0.0,0.0,0.0,-3.0584,-3.1336,-3.1804,-3.1822,-3.3419,-3.4566,-3.5039,-3.5404,-3.5891,-3.6486,-3.5206,-3.5259,-3.6546,-3.6007,-3.6718,-3.8413,-3.6377,-3.5457,-3.5413,-3.4227,-3.3049,-3.1805,-3.0538,-2.9072,-2.7622,-2.7622,-2.7145,-2.6484,-2.6484,-2.6502,-2.6539,0.0,0.0,0.0,0.0,0.0,0.0,0.0,0.0,0.0,0.0,0.0,0.0,0.0,-2.2424,-2.3569,-2.5031,-2.682,-2.71,-2.5358,0.0,0.0,0.0,0.0,0.0,0.0,0.0,0.0,0.0,0.0,0.0,0.0,0.0,0.0,0.0,0.0,0.0,0.0,0.0,0.0,0.0,0.0,0.0,0.0,0.0,0.0,0.0,0.0,0.0,0.0,0.0,0.0,0.0,0.0,0.0,0.0,0.0,0.0,0.0,0.0,0.0,0.0,0.0,0.0,0.0,0.0,0.0,0.0,0.0,0.0,0.0,0.0,0.0,0.0,0.0,0.0,0.0,0.0,0.0,0.0,-2.8356,-3.0595,0.0,-3.1574,-3.2175,-3.2988,-3.3902,-3.4637,-3.5076,-3.521,-3.6768,-3.7289,-3.6476,-3.7542,-3.7609,-3.6499,-3.6496,-3.6336,-3.5983,-3.6145,-3.6562,-3.7175,-3.6556,-3.5984,-3.5507,-3.4867,-3.4019,-3.3122,-3.269,-3.1256,-2.9292,-2.8778,-2.8411,-2.8081,-2.7567,-2.7695,-2.8081,0.0,0.0,0.0,0.0,0.0,0.0,0.0,0.0,0.0,0.0,0.0,-2.0505,-2.1796,-2.3176,-2.4706,-2.6409,-2.8232,-2.8297,-2.5821,0.0,0.0,0.0,0.0,0.0,0.0,0.0,0.0,0.0,0.0,0.0,0.0,0.0,0.0,0.0,0.0,0.0,0.0,0.0,0.0,0.0,0.0,0.0,-2.7909,0.0,0.0,0.0,0.0,0.0,0.0,0.0,0.0,0.0,0.0,0.0,0.0,0.0,0.0,0.0,0.0,0.0,0.0,0.0,0.0,0.0,0.0,0.0,0.0,0.0,0.0,0.0,0.0,0.0,0.0,0.0,0.0,0.0,0.0,0.0,-3.1017,-3.2082,-3.4137,-3.5276,-3.4892,-3.5284,-3.5886,-3.6749,-3.7316,-3.7658,-3.7785,-3.9065,-3.9337,-3.832,-3.8843,-3.8631,-3.7469,-3.7245,-3.6792,-3.6122,-3.6481,-3.6624,-3.6499,-3.6361,-3.5858,-3.5097,-3.4757,-3.4202,-3.3606,-3.3734,-3.2852,-3.1311,-3.0228,-2.9641,-2.9329,-2.8503,-2.8539,-2.892,0.0,0.0,0.0,0.0,0.0,0.0,0.0,0.0,0.0,0.0,-1.917,-2.0208,-2.2211,-2.377,-2.5651,-2.8134,-2.8369,-2.7767,-2.6439,-2.3863,0.0,0.0,0.0,0.0,0.0,0.0,0.0,0.0,0.0,0.0,0.0,0.0,0.0,0.0,0.0,0.0,0.0,0.0,0.0,0.0,0.0,0.0,-3.0801,0.0,0.0,0.0,0.0,0.0,0.0,0.0,0.0,0.0,0.0,0.0,0.0,0.0,0.0,0.0,0.0,0.0,0.0,0.0,0.0,0.0,0.0,0.0,0.0,0.0,0.0,0.0,0.0,0.0,0.0,0.0,0.0,0.0,-2.914,-3.1898,-3.3954,-3.3982,-3.6824,-3.8181,-3.6622,-3.8077,-3.9085,-3.9085,-3.9316,-3.9481,-3.9441,-4.0206,-4.0612,-4.0577,-3.939,-3.8988,-3.9492,-3.7487,-3.6753,-3.7208,-3.7228,-3.7023,-3.6636,-3.5894,-3.5133,-3.44,-3.399,-3.3597,-3.3243,-3.3634,-3.3807,-3.3642,-3.2082,-3.098,-3.0191,-2.9384,-2.903,-2.8994,0.0,0.0,0.0,0.0,0.0,0.0,0.0,0.0,0.0,0.0,-2.0224,-2.1612,-2.2525,-2.4652,-2.652,-2.7724,-2.7396,-2.6547,-2.5198,0.0,0.0,0.0,0.0,0.0,0.0,0.0,0.0,0.0,0.0,0.0,0.0,0.0,0.0,0.0,0.0,0.0,0.0,0.0,0.0,0.0,0.0,0.0,-3.0903,0.0,0.0,0.0,0.0,0.0,0.0,0.0,0.0,0.0,0.0,0.0,0.0,0.0,0.0,0.0,0.0,0.0,0.0,0.0,0.0,0.0,0.0,0.0,0.0,0.0,0.0,0.0,0.0,0.0,0.0,0.0,0.0,-3.2485,-3.2485,-3.478,-3.6973,-3.828,-3.9731,-4.0564,-4.0334,-4.0749,-4.1042,-4.1042,-4.1091,-4.0944,-4.0506,-4.0715,-4.0575,-4.0035,-4.0197,-4.0053,-3.9589,-3.8947,-3.8251,-3.7487,-3.7664,-3.7148,-3.615,-3.6685,-3.6193,-3.483,-3.4724,-3.4284,-3.3634,-3.3734,-3.3807,-3.3752,-3.3311,-3.2651,-3.1843,-3.1035,-3.0008,-2.8994,0.0,0.0,0.0,0.0,0.0,0.0,0.0,0.0,0.0,0.0,-2.0048,-2.1444,-2.1819,-2.3705,-2.5345,-2.6261,-2.5743,-2.4882,-2.3712,0.0,0.0,0.0,0.0,0.0,0.0,0.0,0.0,0.0,0.0,0.0,0.0,0.0,0.0,0.0,0.0,0.0,0.0,0.0,0.0,0.0,0.0,0.0,-3.4117,-3.092,-2.955,-2.9073,-2.719,-2.7259,-2.7988,-2.6026,0.0,0.0,0.0,0.0,0.0,0.0,0.0,0.0,0.0,0.0,0.0,0.0,0.0,0.0,0.0,0.0,0.0,0.0,0.0,0.0,0.0,0.0,0.0,0.0,-3.3752,-3.5715,-3.6388,-3.7731,-3.9202,-4.0694,-4.1282,-4.1627,-4.18,-4.1578,-4.1446,-4.1446,-4.1196,-4.0938,-4.0577,-4.0577,-4.0388,-3.9959,-4.0262,-4.0315,-4.0028,-3.9889,-3.9441,-3.8744,-3.8742,-3.7949,-3.6447,-3.6606,-3.5976,-3.4677,-3.4379,-3.4091,-3.3807,-3.3807,-3.3807,0.0,0.0,0.0,0.0,0.0,-3.0099,-2.8994,0.0,0.0,0.0,0.0,0.0,0.0,0.0,0.0,0.0,0.0,0.0,-2.0323,-2.046,-2.1665,-2.2951,-2.4193,-2.367,-2.3035,0.0,0.0,0.0,0.0,0.0,0.0,0.0,0.0,0.0,0.0,0.0,0.0,0.0,0.0,0.0,0.0,0.0,0.0,0.0,0.0,0.0,0.0,0.0,0.0,-3.8299,-3.4233,-3.3339,-3.3886,-3.1093,-2.9854,-2.94,-2.8821,0.0,0.0,0.0,0.0,0.0,0.0,0.0,0.0,0.0,0.0,0.0,0.0,0.0,0.0,0.0,0.0,0.0,0.0,0.0,0.0,0.0,0.0,0.0,0.0,-3.6816,-3.8528,-4.0053,-4.0287,-4.0635,-4.1591,-4.1707,-4.1664,-4.1621,-4.1133,-4.0827,-4.0827,-4.0368,-4.007,-4.007,0.0,0.0,0.0,0.0,-4.0316,-4.0907,-4.0594,-4.0438,-4.042,-4.0078,-3.8969,-3.7175,-3.6283,-3.5245,-3.4195,-3.3525,-3.3433,-3.3734,-3.3734,-3.3762,-3.3715,-3.2926,-3.2559,-3.2284,-3.076,-2.9696,-2.8994,0.0,0.0,0.0,0.0,0.0,0.0,0.0,0.0,0.0,-1.7927,-1.9229,-2.0005,-1.9171,-2.0288,-2.141,-2.2188,-2.165,-2.1774,0.0,0.0,0.0,0.0,0.0,0.0,0.0,0.0,0.0,0.0,0.0,0.0,0.0,0.0,0.0,0.0,0.0,0.0,0.0,0.0,0.0,0.0,0.0,0.0,-3.6985,-3.5514,-3.4044,-3.2578,-3.0768,-3.1193,-3.2453,-3.1133,-3.1477,-3.2064,-3.0218,0.0,0.0,0.0,0.0,0.0,0.0,0.0,0.0,0.0,0.0,0.0,0.0,0.0,0.0,0.0,0.0,0.0,0.0,0.0,0.0,-3.6826,-3.8293,-3.9481,-4.0587,-4.0752,-4.0829,-4.1052,-4.1087,-4.092,-4.0466,-4.0336,-4.0237,-4.0237,-4.0171,-4.007,-4.007,-4.007,-4.0514,-4.1464,-4.1437,-4.1912,-4.2923,-4.1759,-4.1196,-4.127,0.0,0.0,-3.721,-3.738,-3.6088,-3.3718,-3.3592,-3.3444,-3.3302,-3.3302,-3.3522,-3.3715,-3.2926,-3.221,-3.1513,-3.0558,-2.9696,-2.8994,0.0,0.0,0.0,0.0,0.0,0.0,0.0,0.0,0.0,0.0,-1.9254,-1.9808,-1.9261,-1.9794,-2.0468,-2.1141,-2.1002,0.0,0.0,0.0,0.0,0.0,0.0,0.0,0.0,0.0,0.0,0.0,0.0,0.0,0.0,0.0,0.0,0.0,0.0,0.0,0.0,0.0,0.0,0.0,0.0,0.0,-3.6165,-3.6179,-3.5298,-3.3825,-3.1998,-3.2062,-3.2833,-3.2154,-3.2436,-3.2933,-3.2046,-3.0448,-2.8538,0.0,0.0,0.0,0.0,0.0,0.0,0.0,0.0,0.0,0.0,0.0,0.0,0.0,0.0,-3.2958,0.0,0.0,-3.7288,-3.8913,-4.0052,-4.0777,-4.0897,-4.0655,-4.0497,-4.0497,-4.0497,-4.0417,-4.0121,-4.007,-4.007,-4.007,-4.007,-4.007,-4.007,-4.007,-4.0336,-4.0938,-4.1196,-4.1603,-4.219,-4.1815,-4.1755,-4.21,-4.1232,-3.9962,-3.8383,-3.7826,-3.656,-3.4712,-3.4107,-3.3946,-3.4058,-3.3658,-3.3606,-3.3752,-3.3366,-3.2706,-3.1953,-3.1549,-3.0889,-3.0136,0.0,0.0,0.0,0.0,0.0,0.0,0.0,0.0,0.0,0.0,0.0,-1.945,-1.9316,-1.9301,-1.9621,0.0,0.0,0.0,0.0,0.0,0.0,0.0,0.0,0.0,0.0,0.0,0.0,0.0,0.0,0.0,0.0,0.0,0.0,0.0,0.0,0.0,0.0,0.0,0.0,0.0,0.0,0.0,-3.5455,-3.5991,-3.5845,-3.5013,-3.2938,-3.1967,-3.171,-3.2171,-3.2297,-3.2317,-3.2797,-3.2425,-3.1241,-2.823,-2.7469,0.0,0.0,0.0,0.0,0.0,0.0,0.0,0.0,0.0,-3.2007,-3.2876,-3.4214,-3.5489,-3.6353,-3.8081,-3.968,-4.0556,-4.14,-4.1664,-4.0853,-4.0504,-4.024,-4.0104,-4.007,-4.007,-4.007,-4.007,-4.007,-4.007,-4.007,-4.007,-4.007,-4.007,-4.0171,-4.0237,-4.0655,-4.0949,-4.1087,-4.1446,-4.1937,-4.2519,-4.1683,-4.0713,-3.9587,-3.8192,-3.6949,-3.577,-3.4606,-3.4341,-3.4699,-3.4043,-3.3752,-3.368,-3.368,-3.335,-3.2816,-3.2669,-3.21,-3.1311,0.0,0.0,0.0,0.0,0.0,0.0,0.0,0.0,0.0,0.0,0.0,0.0,0.0,0.0,0.0,0.0,0.0,0.0,0.0,0.0,0.0,0.0,0.0,0.0,0.0,0.0,0.0,0.0,0.0,0.0,0.0,0.0,0.0,0.0,0.0,0.0,0.0,0.0,0.0,0.0,0.0,0.0,-3.4557,-3.4182,-3.4022,-3.3668,-3.1475,-3.0017,-2.9313,-3.1117,-3.1794,-3.2235,-3.452,-3.4726,-3.3541,-3.0598,0.0,-2.659,-2.5524,-2.5423,-2.6179,-2.8535,-2.8708,-2.9833,0.0,0.0,-3.5663,-3.7185,-3.8213,-3.885,-3.8987,-3.9381,-3.9915,-4.0804,-4.1163,-4.1036,-4.0306,-4.0697,-4.0832,-4.0155,-4.007,-4.007,-4.007,-4.007,-4.007,-4.007,-4.007,-4.007,-4.007,-4.007,-4.0336,-4.078,-4.0856,-4.1178,-4.1707,-4.1206,-4.1296,-4.1895,-4.1253,-4.0548,-3.9772,-3.8903,-3.75,-3.5562,-3.4547,-3.3979,-3.3819,-3.3679,-3.3498,-3.3273,-3.3273,-3.3439,-3.3587,-3.2871,-3.21,-3.1384,0.0,0.0,0.0,0.0,0.0,0.0,0.0,0.0,0.0,0.0,0.0,0.0,0.0,0.0,0.0,0.0,0.0,0.0,0.0,0.0,0.0,0.0,0.0,0.0,0.0,0.0,0.0,0.0,0.0,0.0,0.0,0.0,0.0,0.0,0.0,0.0,0.0,0.0,0.0,0.0,0.0,0.0,-3.3246,-3.2213,-3.1134,-2.9992,-2.8703,-2.8051,0.0,0.0,-2.9543,-3.1083,-3.257,-3.2831,-3.207,-2.9516,-2.8738,0.0,-2.8315,-2.8535,0.0,0.0,-3.1927,-3.4059,-3.7119,-3.7661,-3.7917,-3.9443,-4.0044,-4.0227,-3.9865,-4.0237,-4.0521,0.0,-4.09,-4.0933,-4.0189,-4.0358,-4.0273,-3.9529,-3.9445,-3.9614,-4.0037,-4.007,-4.007,-4.007,-4.007,-4.007,-4.007,-4.007,-4.0204,-4.0417,-4.0449,-4.0546,-4.0814,-4.0546,-4.0703,-4.1251,-4.1041,-4.0279,-3.9163,-3.8833,-3.7575,-3.5599,-3.5591,-3.5102,-3.4287,-3.4393,-3.4068,-3.355,-3.355,-3.3652,-3.3697,-3.2908,-3.2687,-3.2651,0.0,0.0,0.0,0.0,0.0,0.0,0.0,0.0,0.0,0.0,0.0,0.0,0.0,0.0,0.0,0.0,0.0,0.0,0.0,0.0,0.0,0.0,0.0,0.0,0.0,0.0,0.0,0.0,0.0,0.0,0.0,0.0,0.0,0.0,0.0,0.0,0.0,0.0,0.0,0.0,0.0,0.0,-3.1539,-3.0013,-2.8203,-2.6437,-2.6153,-2.5909,0.0,0.0,-2.6733,-2.8427,-2.9698,-3.0335,-3.026,-2.8619,-2.8924,-2.9702,-2.9279,0.0,0.0,-3.2389,-3.489,-3.7364,-3.8232,-3.8933,-3.9652,-4.047,-4.0528,-4.0334,-4.0171,-4.0356,-4.0473,-4.0155,-4.0713,-4.0933,-4.0189,-4.007,-3.9817,-3.9089,-3.8819,-3.8988,-3.9715,-3.9783,-3.9868,-4.0054,-4.007,-4.007,-4.007,-4.007,-4.007,-4.007,-4.007,-4.007,-4.007,-4.007,-4.0286,-4.0703,-4.0703,-4.0014,-3.8756,-3.837,-3.7315,-3.582,-3.6229,-3.5826,-3.4849,-3.4778,-3.4365,-3.3756,-3.367,-3.3707,-3.3697,-3.2908,-3.3109,-3.3623,0.0,0.0,0.0,0.0,0.0,0.0,0.0,0.0,0.0,0.0,0.0,0.0,0.0,0.0,0.0,0.0,0.0,0.0,0.0,0.0,0.0,0.0,0.0,0.0,0.0,0.0,0.0,0.0,0.0,0.0,0.0,0.0,0.0,0.0,0.0,0.0,0.0,0.0,0.0,0.0,0.0,0.0,-2.9445,-2.747,-2.5465,-2.3804,-2.4448,0.0,0.0,0.0,-2.3592,-2.3937,-2.6491,-2.8126,0.0,-2.8958,-2.9011,0.0,0.0,0.0,-3.1987,-3.5387,-3.7062,-3.837,-4.0371,-4.0979,-4.0951,-4.0273,-3.9489,-3.9193,-3.9952,-3.9506,-3.9226,-3.9969,-4.0713,-4.0933,-4.0189,-4.007,-3.9817,-3.9089,-3.8379,-3.8227,0.0,-3.9022,-3.9326,-4.002,-4.007,-4.007,-4.007,-4.007,-4.007,-4.007,-4.007,-4.007,-4.007,-4.007,-4.0121,-4.0121,-4.0121,-3.9731,-3.8952,-3.7513,-3.6666,-3.6333,-3.5837,-3.5506,-3.5208,-3.4463,-3.3927,-3.3578,-3.3301,-3.3465,-3.3697,-3.2908,-3.3109,-3.3788,0.0,0.0,0.0,0.0,0.0,0.0,0.0,0.0,0.0,0.0,0.0,0.0,0.0,0.0,0.0,0.0,0.0,0.0,0.0,0.0,0.0,0.0,0.0,0.0,0.0,0.0,0.0,0.0,0.0,0.0,0.0,0.0,0.0,0.0,0.0,0.0,0.0,0.0,0.0,0.0,0.0,0.0,-2.738,-2.5375,-2.3655,-2.2308,0.0,0.0,0.0,0.0,0.0,0.0,-2.3951,0.0,0.0,-2.7029,-2.7824,-2.8636,0.0,0.0,-3.5413,-3.758,-3.9117,-4.0392,-4.1546,-4.1511,-4.0984,-4.024,-3.8439,-3.6904,-3.6701,-3.5679,-3.5463,-3.7103,-3.7937,-3.879,-3.9919,-4.007,-3.9631,-3.8413,-3.8481,0.0,0.0,0.0,0.0,-4.002,-4.007,-4.007,-4.007,-4.007,-4.007,-4.007,-4.007,-4.007,-4.007,-4.007,-4.007,-4.007,-3.9106,-3.8244,-3.7499,-3.6468,-3.5949,-3.5898,-3.6054,-3.5965,-3.5656,-3.5226,-3.5172,-3.5333,-3.4652,-3.4485,-3.4633,-3.4945,-3.4871,-3.4449,0.0,0.0,0.0,0.0,0.0,0.0,0.0,0.0,0.0,0.0,0.0,0.0,0.0,0.0,0.0,0.0,0.0,0.0,0.0,0.0,0.0,0.0,0.0,0.0,0.0,0.0,0.0,0.0,0.0,0.0,0.0,0.0,0.0,0.0,0.0,0.0,0.0,0.0,0.0,0.0,0.0,0.0,-2.5001,-2.3236,-2.2024,0.0,0.0,0.0,0.0,0.0,0.0,0.0,0.0,-2.3744,-2.5203,-2.6353,-2.7994,-3.0057,0.0,-3.5453,-3.7601,-3.9343,-4.0696,-4.1644,-4.1863,-4.1339,-4.0392,-3.8925,-3.6621,-3.4594,-3.3952,-3.2513,-3.216,-3.4496,-3.548,-3.6604,-3.8707,-3.9176,-3.9056,-3.8379,-3.8481,-3.8514,0.0,0.0,0.0,-4.002,-4.007,-4.007,-4.007,-4.007,-4.007,-4.007,-4.007,-4.007,-4.007,-4.007,-3.9952,-3.9681,-3.8481,-3.7499,-3.6755,-3.5977,-3.5622,-3.5622,-3.6182,-3.6284,-3.6078,-3.5967,-3.6127,-3.6389,-3.5732,-3.5477,-3.5532,-3.6083,-3.5954,-3.533,0.0,0.0,0.0,0.0,0.0,0.0,0.0,0.0,0.0,0.0,0.0,0.0,0.0,0.0,0.0,0.0,0.0,0.0,0.0,0.0,0.0,0.0,0.0,0.0,0.0,0.0,0.0,0.0,0.0,0.0,0.0,0.0,0.0,0.0,0.0,0.0,0.0,0.0,0.0,0.0,0.0,0.0,-2.2484,-2.118,0.0,0.0,0.0,0.0,0.0,0.0,0.0,0.0,0.0,0.0,-2.7671,-2.7148,-2.955,-3.273,-3.4252,-3.6332,-3.8582,-4.0679,-4.1745,-4.21,-4.1322,-4.0527,-3.9126,-3.6404,-3.3974,-3.2176,0.0,0.0,-2.9438,-3.2289,-3.3412,-3.4678,-3.6804,-3.7649,-3.8261,0.0,0.0,0.0,0.0,0.0,0.0,-4.002,0.0,-4.007,-4.007,-4.007,-4.007,-4.007,-4.007,-4.007,-4.007,-4.0121,-3.9765,-3.8988,-3.8292,-3.7547,-3.6755,-3.5977,-3.5622,-3.5622,-3.6182,-3.6416,-3.6429,-3.6631,-3.6723,-3.6754,-3.6486,-3.6358,-3.6358,-3.6413,-3.6395,-3.6358,0.0,0.0,0.0,0.0,0.0,0.0,0.0,0.0,0.0,0.0,0.0,0.0,0.0,0.0,0.0,0.0,0.0,0.0,0.0,0.0,0.0,0.0,0.0,0.0,0.0,0.0,0.0,0.0,0.0,0.0,0.0,0.0,0.0,0.0,0.0,0.0,0.0,0.0,0.0,0.0,0.0,0.0,-2.115,0.0,0.0,0.0,0.0,0.0,0.0,0.0,0.0,0.0,0.0,0.0,-2.8213,-3.026,-3.2307,-3.4387,-3.6468,-3.8667,-4.0493,-4.1068,-4.1745,-4.1965,-4.0679,-3.8673,-3.6434,-3.4076,-3.0384,-2.7332,0.0,0.0,0.0,-3.0035,-3.2414,0.0,-3.8052,-3.9125,0.0,0.0,0.0,-3.9394,-3.9039,-3.9478,0.0,0.0,-4.007,-4.007,-4.007,-4.007,-4.007,-4.007,-4.007,-4.007,-4.007,-4.0497,-4.012,-3.8988,-3.8677,-3.7877,-3.6755,-3.5977,-3.5622,-3.5622,-3.6182,-3.662,-3.6967,-3.6772,-3.7283,-3.8112,-3.7448,-3.7184,-3.7257,-3.7863,-3.7698,-3.7276,0.0,0.0,0.0,0.0,0.0,0.0,0.0,0.0,0.0,0.0,0.0,0.0,0.0,0.0,0.0,0.0,0.0,0.0,0.0,0.0,0.0,0.0,0.0,0.0,0.0,0.0,0.0,0.0,0.0,0.0,0.0,0.0,0.0,0.0,0.0,0.0,0.0,0.0,0.0,0.0,0.0,0.0,0.0,0.0,0.0,0.0,0.0,0.0,0.0,0.0,0.0,-2.5849,-2.7368,-2.9172,-3.114,-3.3152,0.0,-3.6806,-3.843,-4.0476,-4.2016,-4.1373,-4.1508,-4.1118,-3.8487,-3.6198,-3.3719,-3.0424,-2.7118,0.0,0.0,0.0,0.0,0.0,0.0,0.0,-3.6567,-3.8284,-3.9208,0.0,-3.9834,0.0,-3.9512,-3.9834,-4.007,0.0,-4.007,-4.007,-4.007,-4.007,-4.007,-4.007,-4.007,-4.0204,-4.0449,-4.0733,-4.0371,-3.9354,-3.9003,-3.8299,-3.7246,-3.6485,-3.6248,-3.6446,0.0,-3.702,-3.7506,-3.7561,-3.8031,-3.867,-3.8193,-3.823,-3.856,-3.8652,-3.8634,-3.856,0.0,0.0,0.0,0.0,0.0,0.0,0.0,0.0,0.0,0.0,0.0,0.0,0.0,0.0,0.0,0.0,0.0,0.0,0.0,0.0,0.0,0.0,0.0,0.0,0.0,0.0,0.0,0.0,0.0,0.0,0.0,0.0,0.0,0.0,0.0,0.0,0.0,0.0,0.0,0.0,0.0,0.0,0.0,0.0,0.0,0.0,0.0,0.0,0.0,0.0,-2.7006,-2.8318,-3.0384,-3.2769,-3.4962,-3.5825,-3.7449,-3.9157,-3.9884,-4.1559,-4.274,-4.1285,-4.0915,-3.9851,-3.564,-3.3371,-3.0876,-2.6433,0.0,-2.2809,-2.1633,0.0,-2.1886,-2.5119,0.0,-3.0131,-3.4239,-3.6525,-3.8294,-3.9766,-4.002,-4.007,-4.007,-4.007,-4.007,-4.007,-4.007,-4.007,-4.007,-4.007,-4.007,-4.007,-4.007,-4.0336,-4.078,-4.0856,-4.0545,-3.9813,-3.9255,-3.8594,-3.7872,-3.7026,-3.6842,-3.7266,-3.7202,-3.7433,-3.7877,-3.8574,-3.8854,-3.8872,-3.8982,-3.9441,-3.9974,-3.9276,-3.9386,-3.979,0.0,0.0,0.0,0.0,0.0,0.0,0.0,0.0,0.0,0.0,0.0,0.0,0.0,0.0,0.0,0.0,0.0,0.0,0.0,0.0,0.0,0.0,0.0,0.0,0.0,0.0,0.0,0.0,0.0,0.0,0.0,0.0,0.0,0.0,0.0,0.0,0.0,0.0,0.0,0.0,0.0,0.0,0.0,0.0,0.0,0.0,0.0,0.0,0.0,0.0,-2.7892,-2.9282,-3.2072,-3.4541,-3.6654,-3.8007,-3.8684,-3.9157,-3.9884,-4.0815,-4.1199,-3.9661,-3.9359,-3.8286,-3.404,-3.0758,0.0,0.0,0.0,-2.0337,-2.0085,-2.0857,0.0,-2.5886,0.0,0.0,0.0,0.0,-3.7533,0.0,0.0,0.0,0.0,0.0,0.0,0.0,0.0,-4.007,-4.007,-4.007,-4.007,-4.007,-4.007,-4.0171,-4.0254,-4.0703,-4.0586,-4.005,-3.9164,-3.8437,-3.7855,-3.6468,-3.5853,-3.5953,-3.6856,0.0,-3.745,-3.9028,-3.968,-3.9753,-4.0432,-4.0781,-4.0873,-4.0744,-4.0359,-3.9863,0.0,0.0,0.0,0.0,0.0,0.0,0.0,0.0,0.0,0.0,0.0,0.0,0.0,0.0,0.0,0.0,0.0,0.0,0.0,0.0,0.0,0.0,0.0,0.0,0.0,0.0,0.0,0.0,0.0,0.0,0.0,0.0,0.0,0.0,0.0,0.0,0.0,0.0,0.0,0.0,0.0,0.0,0.0,0.0,0.0,0.0,0.0,0.0,0.0,0.0,-2.6736,-2.8589,-3.2969,-3.5725,-3.7584,-3.8667,-3.9259,-3.9715,-4.046,-4.1204,-4.1523,-4.0381,-3.8773,-3.6352,-3.2183,0.0,0.0,0.0,0.0,-1.969,-1.969,0.0,0.0,0.0,0.0,0.0,0.0,0.0,0.0,0.0,0.0,0.0,0.0,0.0,0.0,0.0,0.0,-4.007,-4.007,-4.007,-4.007,-4.007,-4.0368,-4.0546,-4.0546,-4.078,-4.059,-3.9963,-3.9196,-3.8747,-3.843,-3.7313,-3.691,-3.7185,-3.7597,-3.7696,-3.7685,-3.9239,-3.99,-3.9974,-4.0799,-4.1368,-4.168,-4.1258,-4.0873,-4.0469,0.0,0.0,0.0,0.0,0.0,0.0,0.0,0.0,0.0,0.0,0.0,0.0,0.0,0.0,0.0,0.0,0.0,0.0,0.0,0.0,0.0,0.0,0.0,0.0,0.0,0.0,0.0,0.0,0.0,0.0,0.0,0.0,0.0,0.0,0.0,0.0,0.0,0.0,0.0,0.0,0.0,0.0,0.0,0.0,0.0,0.0,0.0,0.0,0.0,0.0,-2.5053,-2.7012,-3.2046,-3.5053,-3.6874,-3.777,-3.8667,-3.9563,-4.0493,-4.1271,-4.1677,-4.0929,-3.7987,-3.4322,-3.053,-2.685,0.0,0.0,-1.9782,-1.9854,-1.9854,0.0,0.0,0.0,0.0,0.0,0.0,0.0,0.0,0.0,0.0,0.0,0.0,0.0,0.0,0.0,0.0,0.0,-4.007,-4.007,-4.007,-4.007,-4.0497,-4.075,-4.075,-4.075,-4.0457,-3.9871,-3.9265,-3.8988,-3.8971,-3.8353,-3.8196,-3.8456,-3.8478,-3.838,-3.8348,-3.9619,-4.0249,-4.0487,-4.1313,-4.2011,-4.2488,-4.1864,-4.1405,-4.102,0.0,0.0,0.0,0.0,0.0,0.0,0.0,0.0,0.0,0.0,0.0,0.0,0.0,0.0,0.0,0.0,0.0,0.0,0.0,0.0,0.0,0.0,0.0,0.0,0.0,0.0,0.0,0.0,0.0,0.0,0.0,0.0,0.0,0.0,0.0,0.0,0.0,0.0,0.0,0.0,0.0,0.0,0.0,0.0,0.0,0.0,0.0,0.0,0.0,0.0,0.0,-2.4746,-2.7603,-3.0467,-3.3068,-3.4489,0.0,0.0,-3.8802,-3.9732,-4.0087,-3.9309,-3.6075,-3.2319,-2.9467,0.0,0.0,0.0,-2.0,-2.0246,-2.0246,-2.0679,0.0,0.0,0.0,0.0,0.0,0.0,0.0,0.0,0.0,0.0,0.0,0.0,0.0,0.0,0.0,0.0,-4.007,-4.007,-4.007,-4.007,-4.0171,-4.0154,-4.0154,-4.0154,-4.0137,-4.0052,-3.9342,-3.8988,-3.902,-3.8717,-3.8391,-3.801,-3.872,-3.9136,0.0,-4.0522,-4.1423,-4.2158,-4.2965,-4.3314,-4.3369,-4.3296,-4.2359,-4.1111,0.0,0.0,0.0,0.0,0.0,0.0,0.0,0.0,0.0,0.0,0.0,0.0,0.0,0.0,0.0,0.0,0.0,0.0,0.0,0.0,0.0,0.0,0.0,0.0,0.0,0.0,0.0,0.0,0.0,0.0,0.0,0.0,0.0,0.0,0.0,0.0,0.0,0.0,0.0,0.0,0.0,0.0,0.0,0.0,0.0,0.0,0.0,0.0,0.0,0.0,0.0,0.0,-2.3439,-2.5253,0.0,0.0,-3.356,-3.5091,-3.6554,-3.8169,-3.9093,-3.7916,-3.4593,-3.1059,-2.8697,0.0,0.0,-2.0268,-2.0193,-2.0382,-2.0665,-2.1086,-2.1626,0.0,0.0,0.0,0.0,0.0,0.0,0.0,0.0,0.0,0.0,0.0,0.0,0.0,0.0,0.0,-4.007,-4.007,-4.007,-4.007,-4.007,-4.007,-4.007,-3.9648,-3.9428,-3.9411,-3.8227,-3.7905,-3.8328,-3.8601,-3.858,-3.8481,-3.9854,-4.0273,0.0,-4.13,-4.1735,-4.1662,-4.2451,-4.2488,-4.2066,-4.2066,-4.135,-4.0377,0.0,0.0,0.0,0.0,0.0,0.0,0.0,0.0,0.0,0.0,0.0,0.0,0.0,0.0,0.0,0.0,0.0,0.0,0.0,0.0,0.0,0.0,0.0,0.0,0.0,0.0,0.0,0.0,0.0,0.0,0.0,0.0,0.0,0.0,0.0,0.0,0.0,0.0,0.0,0.0,0.0,0.0,0.0,0.0,0.0,0.0,0.0,0.0,0.0,0.0,0.0,0.0,0.0,0.0,0.0,0.0,-3.0649,-3.2408,-3.3792,-3.5728,-3.7075,-3.5937,-3.2626,-2.9259,0.0,0.0,-2.0369,-2.032,-2.0416,-2.0649,-2.1086,-2.1538,-2.1794,0.0,0.0,0.0,0.0,0.0,0.0,0.0,0.0,0.0,0.0,0.0,0.0,0.0,0.0,0.0,-4.007,-3.9868,-3.9749,-3.9749,-3.9749,-3.9749,-3.9749,-3.9039,-3.8768,-3.8971,-3.7719,-3.7499,-3.8227,-3.8808,-3.9145,-3.9415,-4.0788,-4.125,0.0,-4.1951,-4.1974,-4.1515,-4.2084,-4.1809,-4.1111,-4.1111,-4.0598,-3.99,0.0,0.0,0.0,0.0,0.0,0.0,0.0,0.0,0.0,0.0,0.0,0.0,0.0,0.0,0.0,0.0,0.0,0.0,0.0,0.0,0.0,0.0,0.0,0.0,0.0,0.0,0.0,0.0,0.0,0.0,0.0,0.0,0.0,0.0,0.0,0.0,0.0,0.0,0.0,0.0,0.0,0.0,0.0,0.0,0.0,0.0,0.0,0.0,0.0,0.0,0.0,0.0,0.0,0.0,0.0,0.0,-2.6954,-2.9311,-3.0505,-3.2194,-3.3554,-3.3032,-2.9888,-2.6671,0.0,0.0,-1.9818,-2.0227,-2.0665,-2.1118,-2.1521,-2.1974,-2.2282,-2.2282,0.0,0.0,0.0,0.0,0.0,0.0,0.0,0.0,0.0,0.0,0.0,0.0,0.0,0.0,-4.007,-3.9394,-3.9005,-3.9005,-3.9005,-3.9005,-3.9005,-3.8278,-3.8278,-3.8988,-3.8244,-3.8278,-3.902,-3.9537,-4.0193,-4.088,-4.1252,-4.1899,0.0,-4.2391,-4.2304,-4.2286,-4.2304,-4.1809,-4.1111,-4.1111,-4.0598,-3.99,0.0,0.0,0.0,0.0,0.0,0.0,0.0,0.0,0.0,0.0,0.0,0.0,0.0,0.0,0.0,0.0,0.0,0.0,0.0,0.0,0.0,0.0,0.0,0.0,0.0,0.0,0.0,0.0,0.0,0.0,0.0,0.0,0.0,0.0,0.0,0.0,0.0,0.0,0.0,0.0,0.0,0.0,0.0,0.0,0.0,0.0,0.0,0.0,0.0,0.0,0.0,0.0,0.0,0.0,0.0,0.0,0.0,0.0,-2.7272,-2.8882,-2.9958,-2.8867,-2.6974,-2.5133,-2.3948,-2.1644,-1.9803,-2.0212,-2.0682,-2.1118,-2.1521,-2.1974,-2.231,-2.231,0.0,0.0,0.0,0.0,0.0,0.0,0.0,0.0,0.0,0.0,0.0,0.0,0.0,0.0,-3.936,-3.9123,-3.8988,-3.8988,-3.8514,-3.8261,-3.8261,-3.7516,-3.7516,-3.8244,-3.7499,-3.7263,-3.7547,-3.8584,-3.918,0.0,-4.0846,-4.1574,-4.1847,-4.2154,-4.1644,-4.0653,-4.0653,-4.0175,-3.946,-3.946,-3.9313,-3.9001,0.0,0.0,0.0,0.0,0.0,0.0,0.0,0.0,0.0,0.0,0.0,0.0,0.0,0.0,0.0,0.0,0.0,0.0,0.0,0.0,0.0,0.0,0.0,0.0,0.0,0.0,0.0,0.0,0.0,0.0,0.0,0.0,0.0,0.0,0.0,0.0,0.0,0.0,0.0,0.0,0.0,0.0,-1.7852,0.0,0.0,0.0,0.0,0.0,0.0,0.0,0.0,0.0,0.0,0.0,0.0,0.0,0.0,0.0,0.0,-2.516,-2.6125,-2.5319,-2.4359,0.0,0.0,-2.0587,-1.9537,-2.0403,-2.0369,-2.0552,-2.1665,-2.1871,-2.1972,-2.226,0.0,0.0,0.0,0.0,0.0,0.0,0.0,0.0,0.0,0.0,0.0,0.0,0.0,0.0,-3.8616,-3.8311,-3.8159,-3.8159,-3.7719,-3.7483,-3.7483,-3.6721,-3.6721,-3.7483,-3.6705,-3.6502,-3.6835,-3.7638,-3.8364,-3.9056,-4.0249,-4.096,0.0,-4.1674,-4.1075,-3.99,-3.99,-3.9405,-3.8707,-3.8707,-3.8505,-3.8175,0.0,0.0,0.0,0.0,0.0,0.0,0.0,0.0,0.0,0.0,0.0,0.0,0.0,0.0,0.0,0.0,0.0,0.0,0.0,0.0,0.0,0.0,0.0,0.0,0.0,0.0,0.0,-1.9069,-1.9427,-1.9601,-1.9614,0.0,0.0,0.0,0.0,0.0,0.0,-1.8499,-1.7646,-1.6995,-1.7496,-1.7592,0.0,0.0,0.0,0.0,0.0,0.0,0.0,0.0,0.0,0.0,0.0,0.0,0.0,0.0,0.0,0.0,0.0,0.0,0.0,0.0,0.0,0.0,0.0,-1.957,0.0,-2.051,-1.9808,-1.9573,-2.1742,-2.1623,-2.1431,-2.2192,0.0,0.0,0.0,0.0,0.0,0.0,0.0,0.0,0.0,0.0,0.0,0.0,0.0,0.0,-3.7669,-3.6992,-3.6586,-3.6535,-3.6586,-3.6637,-3.6688,-3.5977,-3.5994,-3.6688,-3.6028,-3.6045,-3.678,-3.6831,-3.7784,0.0,-3.9443,-4.0056,-4.0936,-4.0987,-4.0543,-3.9808,-3.9808,-3.935,-3.8689,-3.8634,-3.8175,-3.7551,0.0,0.0,0.0,0.0,0.0,0.0,0.0,0.0,0.0,0.0,0.0,0.0,0.0,0.0,0.0,0.0,0.0,0.0,0.0,0.0,0.0,0.0,0.0,0.0,0.0,0.0,0.0,-1.9619,-1.9545,-1.9555,-1.9633,-2.0858,0.0,0.0,0.0,-2.0013,-1.8646,-1.809,-1.7742,-1.7517,-1.7536,-1.7717,0.0,0.0,0.0,0.0,-1.6815,-1.6738,0.0,0.0,0.0,0.0,0.0,0.0,0.0,0.0,-1.6862,-1.7011,-1.7496,0.0,-1.8808,-1.8871,0.0,0.0,0.0,0.0,0.0,0.0,0.0,0.0,0.0,0.0,0.0,0.0,0.0,0.0,0.0,0.0,0.0,0.0,0.0,0.0,0.0,0.0,0.0,0.0,0.0,-3.6535,-3.5351,-3.5131,-3.4776,-3.4218,-3.4742,-3.5301,-3.5893,-3.5707,-3.5707,-3.5893,-3.6315,-3.6491,-3.6517,-3.7085,-3.7798,-3.8624,-3.9009,-3.9319,-3.9549,-4.001,-3.9717,-3.8982,-3.8982,-3.8872,-3.8634,-3.801,-3.8046,-3.8157,0.0,0.0,0.0,0.0,0.0,0.0,0.0,0.0,0.0,0.0,0.0,0.0,0.0,0.0,0.0,0.0,0.0,0.0,0.0,0.0,0.0,0.0,0.0,0.0,0.0,0.0,0.0,0.0,0.0,-1.965,0.0,0.0,0.0,0.0,0.0,-1.9657,-1.836,-1.7674,-1.7151,-1.6777,-1.6612,0.0,0.0,0.0,0.0,0.0,-1.6866,-1.6686,0.0,-1.6738,-1.6789,-1.6767,0.0,0.0,0.0,0.0,-1.5821,-1.591,-1.6202,-1.6965,-1.7757,-1.8071,-1.8179,-1.8268,0.0,0.0,0.0,0.0,0.0,0.0,0.0,0.0,0.0,0.0,0.0,0.0,0.0,0.0,0.0,0.0,0.0,0.0,0.0,0.0,0.0,0.0,0.0,-3.4878,-3.4032,-3.3998,-3.3812,-3.3423,-3.3795,-3.4353,-3.5098,-3.5453,-3.5622,-3.5622,-3.6045,-3.6307,-3.6392,-3.679,-3.7416,-3.8149,-3.842,-3.8647,-3.8904,-3.9218,-3.9093,-3.8707,-3.8707,-3.8469,-3.8102,-3.7643,-3.7533,-3.7349,0.0,0.0,0.0,0.0,0.0,0.0,0.0,0.0,0.0,0.0,0.0,0.0,0.0,0.0,0.0,0.0,0.0,0.0,0.0,0.0,0.0,0.0,0.0,0.0,0.0,0.0,0.0,0.0,0.0,0.0,0.0,0.0,-2.0741,0.0,0.0,-1.8992,-1.8267,-1.7146,-1.6337,-1.5793,-1.547,0.0,0.0,0.0,0.0,0.0,0.0,0.0,0.0,-1.6265,-1.6406,-1.6374,-1.571,0.0,0.0,0.0,0.0,0.0,-1.5583,-1.6578,-1.7652,-1.8149,-1.8403,-1.8553,0.0,0.0,0.0,0.0,0.0,0.0,0.0,0.0,0.0,0.0,0.0,0.0,0.0,0.0,0.0,0.0,0.0,0.0,0.0,0.0,0.0,0.0,0.0,-3.3186,-3.3068,-3.3068,-3.3068,-3.3068,-3.3169,-3.3525,-3.415,-3.4912,-3.5334,-3.5453,-3.5334,-3.5608,-3.6243,-3.6139,-3.6591,-3.7464,0.0,0.0,-3.8394,-3.8346,-3.8414,-3.8505,-3.8377,-3.7918,-3.7323,-3.7165,-3.6762,-3.6174,0.0,0.0,0.0,0.0,0.0,0.0,0.0,0.0,0.0,0.0,0.0,0.0,0.0,0.0,0.0,0.0,0.0,0.0,0.0,0.0,0.0,0.0,0.0,0.0,0.0,0.0,0.0,0.0,0.0,0.0,-2.0841,-2.2256,-2.2081,-2.0479,-1.8934,-1.8172,-1.7951,-1.6324,-1.5922,-1.6297,-1.5422,0.0,0.0,0.0,0.0,0.0,0.0,0.0,0.0,-1.4333,-1.4652,-1.5,-1.4318,0.0,0.0,0.0,0.0,0.0,-1.4944,-1.5889,-1.6756,-1.6338,-1.7056,-1.7832,0.0,0.0,0.0,0.0,0.0,0.0,0.0,0.0,0.0,0.0,0.0,0.0,0.0,0.0,0.0,0.0,0.0,0.0,0.0,0.0,0.0,0.0,0.0,-3.2188,-3.1562,-3.1529,-3.1529,-3.1529,-3.2121,-3.251,-3.2628,-3.3372,-3.4049,-3.4658,-3.4049,-3.4345,-3.5469,-3.4827,-3.4841,-3.5366,0.0,-3.6403,-3.7065,-3.679,-3.7055,-3.7606,-3.6927,-3.6597,-3.6376,-3.5679,-3.5771,-3.6174,0.0,0.0,0.0,0.0,0.0,0.0,0.0,0.0,0.0,0.0,0.0,0.0,0.0,0.0,0.0,0.0,0.0,0.0,0.0,0.0,0.0,0.0,0.0,0.0,0.0,0.0,0.0,0.0,0.0,-2.0225,-2.0244,-2.0304,-2.0129,-1.9711,-1.799,-1.7296,-1.7326,-1.6091,-1.5759,-1.5992,0.0,0.0,0.0,0.0,0.0,0.0,0.0,0.0,0.0,0.0,-1.4004,-1.4139,-1.3466,0.0,0.0,0.0,0.0,0.0,-1.4154,-1.5216,-1.5979,-1.4962,-1.5964,-1.7223,0.0,0.0,0.0,0.0,0.0,0.0,0.0,0.0,0.0,0.0,0.0,0.0,0.0,0.0,0.0,0.0,0.0,0.0,0.0,0.0,0.0,0.0,0.0,0.0,-3.0023,-3.0395,-3.0412,-3.0006,-3.0878,-3.1103,-3.0535,-3.1423,-3.2667,-3.4281,-3.4167,-3.4574,-3.5403,-3.5049,-3.5166,-3.5661,0.0,-3.6054,-3.6136,-3.6266,-3.6369,-3.6455,-3.6355,-3.6009,-3.5569,-3.5137,-3.4981,-3.4945,0.0,0.0,0.0,0.0,0.0,0.0,0.0,0.0,0.0,0.0,0.0,0.0,0.0,0.0,0.0,0.0,0.0,0.0,0.0,0.0,0.0,0.0,0.0,0.0,0.0,0.0,-1.9054,-1.9993,-1.9979,-1.9879,-1.9715,-1.8552,-1.8229,0.0,-1.7152,-1.6537,-1.6493,-1.5924,-1.5582,-1.535,0.0,0.0,0.0,0.0,0.0,0.0,0.0,0.0,0.0,0.0,0.0,0.0,0.0,0.0,0.0,-1.2621,-1.2681,-1.2921,-1.3421,-1.4528,-1.5244,0.0,0.0,0.0,0.0,0.0,0.0,0.0,0.0,0.0,0.0,0.0,0.0,0.0,0.0,0.0,0.0,0.0,0.0,0.0,0.0,0.0,0.0,0.0,0.0,0.0,0.0,0.0,-2.9011,-2.9533,-2.9583,-2.9045,-2.9793,-2.9846,-2.9028,-3.0024,-3.1496,-3.3451,-3.382,-3.4323,-3.4914,-3.4637,-3.4749,-3.5126,-3.5232,-3.5187,-3.5069,-3.5535,-3.5488,-3.5224,-3.5564,-3.5312,-3.4715,-3.4715,-3.4339,-3.3899,0.0,0.0,0.0,0.0,0.0,0.0,0.0,0.0,0.0,0.0,0.0,0.0,0.0,0.0,0.0,0.0,0.0,0.0,0.0,0.0,0.0,0.0,0.0,0.0,0.0,-1.7529,-1.8268,-1.9993,-2.0299,-2.0362,-2.0137,-1.9111,-1.8235,-1.7489,-1.6674,-1.5971,-1.5432,-1.5616,-1.527,-1.4579,-1.4513,0.0,0.0,0.0,0.0,0.0,0.0,0.0,0.0,0.0,0.0,0.0,0.0,0.0,-1.2681,-1.2044,-1.2299,-1.2816,-1.2861,-1.3865,-1.4543,-1.322,0.0,0.0,0.0,0.0,0.0,0.0,0.0,0.0,0.0,0.0,0.0,0.0,0.0,0.0,0.0,0.0,0.0,0.0,0.0,0.0,0.0,0.0,0.0,0.0,0.0,0.0,-2.9011,-2.9025,-2.9025,-2.9011,-2.9062,-2.9062,-2.9011,-2.9841,-3.0627,-3.1421,-3.1832,-3.2435,-3.3132,-3.2086,-3.1629,-3.1693,-3.2128,-3.2708,-3.3406,-3.3817,-3.3972,-3.3945,-3.3972,-3.3935,-3.3899,-3.3899,-3.3844,-3.3807,0.0,0.0,0.0,0.0,0.0,0.0,0.0,0.0,0.0,0.0,0.0,0.0,0.0,0.0,0.0,0.0,0.0,0.0,0.0,0.0,0.0,0.0,0.0,-1.5786,-1.6804,-1.7214,-1.8231,-1.988,-1.9671,-1.9451,-1.9181,-1.8342,0.0,0.0,-1.6023,-1.5681,-1.5522,-1.5123,-1.5068,-1.5197,-1.4701,-1.4488,0.0,0.0,0.0,0.0,0.0,0.0,0.0,0.0,-1.1651,-1.1834,0.0,0.0,-1.2119,-1.1865,-1.1969,-1.2164,-1.2164,-1.3151,-1.3959,-1.3041,0.0,0.0,0.0,0.0,0.0,0.0,0.0,0.0,0.0,0.0,0.0,0.0,0.0,0.0,0.0,0.0,0.0,0.0,0.0,0.0,0.0,0.0,0.0,0.0,0.0,0.0,-2.7537,-2.7554,-2.7554,-2.7554,-2.8506,-2.8655,-2.7944,-2.92,-2.9852,-2.9863,-3.1003,-3.1596,-3.1684,-3.1448,-3.1253,-3.107,-3.1465,-3.1647,-3.1776,-3.2675,-3.261,-3.2019,-3.2747,-3.3366,-3.3807,-3.3807,-3.3807,-3.3807,0.0,0.0,0.0,0.0,0.0,0.0,0.0,0.0,0.0,0.0,0.0,0.0,0.0,0.0,0.0,0.0,0.0,0.0,0.0,0.0,0.0,0.0,0.0,-1.5632,-1.6357,-1.6823,-1.7803,-1.9355,-1.9115,-1.8627,-1.7933,0.0,0.0,0.0,0.0,0.0,-1.5655,-1.5105,-1.4995,-1.5178,-1.4618,-1.4375,0.0,0.0,0.0,0.0,0.0,0.0,0.0,0.0,-1.1089,0.0,0.0,0.0,0.0,0.0,-1.1822,-1.1704,-1.2037,-1.2777,-1.334,0.0,0.0,0.0,0.0,0.0,0.0,0.0,0.0,0.0,0.0,0.0,0.0,0.0,0.0,0.0,0.0,0.0,0.0,0.0,0.0,0.0,0.0,0.0,0.0,0.0,0.0,0.0,0.0,-2.6247,-2.6175,-2.6175,-2.7517,-2.7883,-2.7121,-2.8263,-2.8694,-2.8447,-2.9664,-3.0476,-3.0884,-3.0976,-3.0823,-3.0514,-3.0735,-3.0683,-3.0513,-3.1619,-3.181,-3.142,-3.1997,-3.2871,-3.3807,-3.3807,-3.3642,-3.3421,0.0,0.0,0.0,0.0,0.0,0.0,0.0,0.0,0.0,0.0,0.0,0.0,0.0,0.0,0.0,0.0,0.0,0.0,0.0,0.0,0.0,0.0,0.0,-1.5676,-1.6465,-1.6219,-1.686,-1.8392,-1.8778,-1.812,-1.6504,-1.7184,0.0,0.0,0.0,0.0,0.0,0.0,-1.5098,-1.4206,-1.4188,-1.4083,-1.3838,0.0,0.0,0.0,0.0,0.0,0.0,0.0,-1.0616,0.0,0.0,0.0,0.0,0.0,-1.1808,-1.1531,-1.2528,-1.2801,0.0,0.0,0.0,0.0,0.0,0.0,0.0,0.0,0.0,0.0,0.0,0.0,0.0,0.0,0.0,0.0,0.0,0.0,0.0,0.0,0.0,0.0,0.0,0.0,0.0,0.0,0.0,0.0,0.0,-2.5232,-2.5005,-2.5005,-2.6093,-2.6692,-2.6692,-2.701,-2.7193,-2.7211,-2.7616,-2.8828,-3.0756,-3.0348,-2.9965,-2.9583,-2.9602,-2.9602,-2.9656,-3.0523,-3.1556,-3.2496,-3.1696,-3.2357,-3.377,-3.377,-3.3275,-3.2596,0.0,0.0,0.0,0.0,0.0,0.0,0.0,0.0,0.0,0.0,0.0,0.0,0.0,0.0,0.0,0.0,0.0,0.0,0.0,0.0,0.0,0.0,0.0,0.0,0.0,0.0,-1.6414,-1.7333,-1.7285,-1.6987,0.0,0.0,0.0,-1.652,0.0,0.0,0.0,-1.5129,-1.4729,-1.4774,-1.4211,-1.3849,-1.3591,0.0,0.0,0.0,0.0,0.0,0.0,0.0,0.0,0.0,0.0,0.0,0.0,-1.1083,-1.1286,-1.1531,-1.2528,0.0,0.0,0.0,0.0,0.0,0.0,0.0,0.0,0.0,0.0,0.0,0.0,0.0,0.0,0.0,0.0,0.0,0.0,0.0,0.0,0.0,0.0,0.0,0.0,0.0,0.0,0.0,0.0,0.0,0.0,-2.4224,-2.4213,-2.4959,-2.5559,-2.5958,-2.6222,-2.6576,-2.6794,-2.6794,-2.69,-2.7406,-2.8294,-2.9016,-2.8996,-2.8413,-2.8658,-2.8631,-2.8431,-2.8928,-3.0034,-3.1365,-3.0771,-3.1182,-3.21,-3.21,-3.1953,-3.1751,0.0,0.0,0.0,0.0,0.0,0.0,0.0,0.0,0.0,0.0,0.0,0.0,0.0,0.0,0.0,0.0,0.0,0.0,0.0,0.0,0.0,0.0,0.0,0.0,0.0,-1.5397,-1.57,0.0,0.0,0.0,0.0,0.0,0.0,-1.6081,0.0,-1.649,0.0,0.0,-1.425,-1.446,-1.3973,-1.3598,-1.326,0.0,0.0,0.0,0.0,0.0,0.0,0.0,0.0,0.0,0.0,0.0,0.0,-1.0796,-1.1069,-1.1385,-1.2505,0.0,0.0,0.0,0.0,0.0,0.0,0.0,0.0,0.0,0.0,0.0,0.0,0.0,0.0,0.0,0.0,0.0,0.0,0.0,0.0,0.0,0.0,0.0,0.0,0.0,0.0,0.0,0.0,0.0,0.0,-2.3454,-2.3402,-2.4071,-2.4708,-2.5166,-2.5356,-2.5587,-2.5737,-2.5737,-2.5867,-2.5973,-2.6121,-2.746,-2.7894,-2.7638,-2.804,-2.7992,-2.7678,-2.8047,-2.899,-3.0176,-2.9863,-3.0348,-3.1206,-3.1206,-3.1082,-3.0907,0.0,0.0,0.0,0.0,0.0,0.0,0.0,0.0,0.0,0.0,0.0,0.0,0.0,0.0,0.0,0.0,0.0,0.0,0.0,0.0,0.0,0.0,0.0,0.0,0.0,0.0,0.0,0.0,0.0,0.0,0.0,0.0,-1.6817,-1.5438,0.0,-1.6025,0.0,-1.4217,-1.3768,-1.3586,-1.3555,-1.3295,-1.2906,-1.2293,0.0,0.0,0.0,0.0,0.0,0.0,0.0,0.0,0.0,0.0,0.0,-1.0715,-1.0971,-1.1117,0.0,0.0,0.0,0.0,0.0,0.0,0.0,0.0,0.0,0.0,0.0,0.0,0.0,0.0,0.0,0.0,0.0,0.0,0.0,0.0,0.0,0.0,0.0,0.0,0.0,0.0,0.0,0.0,0.0,0.0,-2.3257,-2.2914,-2.2669,-2.2695,-2.3706,-2.4268,-2.4293,-2.4293,-2.4293,-2.4293,-2.4598,-2.4598,-2.4335,-2.5877,-2.6745,-2.7065,-2.7431,-2.7379,-2.7095,-2.7513,-2.8156,-2.8894,-2.8963,-2.9707,-3.074,-3.074,-3.0454,-3.0099,0.0,0.0,0.0,0.0,0.0,0.0,0.0,0.0,0.0,0.0,0.0,0.0,0.0,0.0,0.0,0.0,0.0,0.0,0.0,0.0,0.0,0.0,0.0,0.0,0.0,0.0,0.0,0.0,0.0,0.0,0.0,0.0,0.0,-1.5424,0.0,-1.5843,-1.4889,-1.404,-1.3572,-1.3429,-1.321,-1.2962,-1.263,-1.2015,-1.1254,0.0,0.0,0.0,0.0,0.0,0.0,0.0,-0.7071,-0.7482,-0.822,-0.9031,-0.9816,0.0,0.0,0.0,0.0,0.0,0.0,0.0,0.0,0.0,0.0,0.0,0.0,0.0,0.0,0.0,0.0,0.0,0.0,0.0,0.0,0.0,0.0,0.0,0.0,0.0,0.0,0.0,0.0,0.0,0.0,0.0,-2.253,-2.2434,-2.2473,-2.2695,-2.2928,-2.3193,-2.3454,-2.3454,-2.3454,-2.3454,-2.3525,-2.3525,-2.3513,-2.5623,-2.6345,-2.5833,-2.5432,-2.5179,-2.5149,-2.575,-2.6526,-2.7352,-2.787,-2.8615,-2.9412,-2.9412,-2.935,-2.925,0.0,0.0,0.0,0.0,0.0,0.0,0.0,0.0,0.0,0.0,0.0,0.0,0.0,0.0,0.0,0.0,0.0,0.0,0.0,0.0,0.0,0.0,0.0,0.0,0.0,0.0,0.0,0.0,0.0,0.0,0.0,0.0,0.0,-1.4709,0.0,-1.515,-1.4142,-1.3565,-1.3278,-1.3173,-1.2746,-1.2408,-1.2092,-1.1292,-1.0508,-0.9741,-0.907,0.0,0.0,0.0,0.0,0.0,0.0,0.0,-0.7511,-0.8199,-0.9068,-1.0033,0.0,0.0,0.0,0.0,0.0,0.0,0.0,0.0,0.0,0.0,0.0,0.0,0.0,0.0,0.0,0.0,0.0,0.0,0.0,0.0,0.0,0.0,0.0,0.0,0.0,0.0,0.0,0.0,0.0,-2.231,-2.231,-2.231,-2.236,-2.25,-2.25,-2.2607,-2.2773,-2.2773,-2.2773,-2.2773,-2.289,-2.3045,-2.3248,-2.4846,-2.5243,-2.4725,-2.4764,-2.4671,-2.4537,-2.5056,-2.5522,-2.6043,-2.6928,-2.7399,-2.7614,-2.7997,-2.8017,-2.7915,0.0,0.0,0.0,0.0,0.0,0.0,0.0,0.0,0.0,0.0,0.0,0.0,0.0,0.0,0.0,0.0,0.0,0.0,0.0,0.0,0.0,0.0,0.0,0.0,0.0,0.0,0.0,0.0,0.0,0.0,0.0,0.0,0.0,-1.383,0.0,0.0,-1.3243,-1.3015,-1.2924,-1.2887,-1.2273,-1.1875,-1.1519,-1.0505,-0.9742,-0.91,-0.8512,-0.8033,-0.7637,-0.7237,0.0,0.0,0.0,0.0,-0.6966,-0.7692,-0.8481,-0.9345,0.0,0.0,0.0,0.0,0.0,0.0,0.0,0.0,0.0,0.0,0.0,0.0,0.0,0.0,0.0,0.0,0.0,0.0,0.0,0.0,0.0,0.0,0.0,0.0,0.0,0.0,0.0,0.0,0.0,-2.231,-2.231,-2.231,-2.231,-2.231,-2.231,-2.231,-2.231,-2.231,-2.231,-2.231,-2.251,-2.2789,-2.3056,-2.3731,-2.392,-2.3725,-2.4348,-2.4442,-2.4133,-2.4483,-2.4705,-2.5007,-2.6012,-2.6279,-2.6175,-2.685,-2.6886,-2.6704,0.0,0.0,0.0,0.0,0.0,0.0,0.0,0.0,0.0,0.0,0.0,0.0,0.0,0.0,0.0,0.0,0.0,0.0,-1.5391,0.0,0.0,-1.5328,-1.5377,0.0,0.0,0.0,0.0,0.0,0.0,0.0,0.0,0.0,0.0,-1.3395,0.0,0.0,0.0,-1.2668,-1.2649,-1.261,-1.1994,-1.1548,-1.1152,-1.0217,-0.9393,-0.8749,-0.84,-0.8033,-0.7637,-0.7237,-0.688,0.0,0.0,0.0,-0.6198,-0.6937,-0.7909,0.0,0.0,0.0,0.0,0.0,0.0,0.0,0.0,0.0,0.0,0.0,0.0,0.0,0.0,0.0,0.0,0.0,0.0,0.0,0.0,0.0,0.0,0.0,0.0,0.0,0.0,0.0,0.0,0.0,-2.2032,-2.231,-2.231,-2.231,-2.231,-2.231,-2.231,-2.231,-2.231,-2.231,-2.231,-2.231,-2.2349,-2.2377,-2.2415,-2.2518,-2.2681,-2.2842,-2.2737,-2.2655,-2.2626,-2.2882,-2.3571,-2.4509,-2.4968,-2.5701,-2.653,-2.664,-2.6643,-2.6631,0.0,0.0,0.0,0.0,0.0,0.0,0.0,0.0,0.0,0.0,0.0,0.0,0.0,0.0,0.0,-1.5345,-1.5314,-1.5319,-1.5342,-1.5384,-1.5364,-1.5306,-1.5369,-1.5293,0.0,0.0,0.0,0.0,0.0,0.0,0.0,-1.4051,-1.4075,0.0,0.0,0.0,0.0,0.0,-1.2092,-1.203,-1.1283,-1.0699,0.0,0.0,-0.9169,-0.8558,-0.837,-0.8308,-0.8184,-0.7375,-0.6952,-0.6665,-0.6091,0.0,0.0,0.0,0.0,0.0,0.0,0.0,0.0,0.0,0.0,0.0,0.0,0.0,0.0,0.0,0.0,0.0,0.0,0.0,0.0,0.0,0.0,0.0,0.0,0.0,0.0,0.0,0.0,0.0,0.0,0.0,0.0,0.0,-2.1675,-2.2032,-2.2282,-2.231,-2.231,-2.231,-2.231,-2.231,-2.231,-2.231,-2.231,-2.231,-2.231,-2.231,-2.231,-2.231,-2.236,-2.2463,-2.2349,-2.231,-2.2321,-2.2599,-2.3115,-2.3803,-2.459,-2.5041,-2.5309,-2.575,-2.564,-2.5328,0.0,0.0,0.0,0.0,0.0,0.0,0.0,0.0,0.0,0.0,0.0,0.0,0.0,0.0,0.0,0.0,-1.5174,-1.5191,-1.5266,-1.533,-1.5357,-1.5302,-1.5322,-1.5221,-1.4992,0.0,0.0,0.0,0.0,0.0,-1.3645,-1.3377,-1.3661,0.0,-1.3663,0.0,0.0,0.0,0.0,0.0,0.0,0.0,0.0,0.0,0.0,0.0,0.0,-0.8311,-0.8339,-0.7637,0.0,0.0,0.0,0.0,0.0,0.0,0.0,0.0,0.0,0.0,0.0,0.0,0.0,0.0,0.0,0.0,0.0,0.0,0.0,0.0,0.0,0.0,0.0,0.0,0.0,0.0,0.0,0.0,0.0,0.0,0.0,0.0,0.0,0.0,0.0,0.0,-2.1229,-2.1483,-2.1821,-2.1681,-2.1636,-2.1707,-2.1636,-2.158,-2.158,-2.1866,-2.2124,-2.231,-2.231,-2.231,-2.231,-2.231,-2.231,-2.231,-2.231,-2.231,-2.231,-2.2527,-2.2789,-2.317,-2.4098,-2.4299,-2.4167,-2.4831,-2.4704,-2.4281,0.0,0.0,0.0,0.0,0.0,0.0,0.0,0.0,0.0,0.0,0.0,0.0,0.0,-1.4918,-1.4926,-1.4922,-1.4866,-1.4919,-1.5197,-1.5272,-1.5295,-1.5293,-1.5243,0.0,-1.4907,0.0,0.0,0.0,0.0,0.0,-1.4049,-1.3398,-1.3213,-1.333,-1.2283,-1.1673,-1.1384,0.0,0.0,0.0,0.0,0.0,0.0,0.0,0.0,0.0,0.0,0.0,0.0,0.0,0.0,0.0,0.0,0.0,0.0,0.0,0.0,0.0,0.0,0.0,0.0,0.0,0.0,0.0,0.0,0.0,0.0,0.0,0.0,0.0,0.0,0.0,0.0,0.0,0.0,0.0,0.0,0.0,0.0,0.0,0.0,0.0,0.0,0.0,0.0,0.0,-2.0805,-2.0574,-2.0574,-1.9987,-1.9799,-2.0104,-1.9804,-1.965,-1.965,-2.0723,-2.16,-2.231,-2.231,-2.231,-2.231,-2.231,-2.231,-2.231,-2.231,-2.231,-2.231,-2.231,-2.249,-2.2772,-2.3129,-2.3473,-2.3774,-2.413,-2.4245,-2.4208,0.0,0.0,0.0,0.0,0.0,0.0,0.0,0.0,0.0,0.0,0.0,0.0,0.0,-1.4637,-1.4508,-1.4513,-1.4701,-1.4921,-1.5235,-1.5287,-1.5191,-1.4985,-1.4966,-1.4692,-1.4137,-1.4326,0.0,0.0,0.0,-1.3624,-1.3319,-1.2728,-1.2186,-1.171,-1.1779,-1.1643,-1.128,-1.0778,0.0,0.0,0.0,0.0,0.0,0.0,0.0,0.0,0.0,0.0,0.0,0.0,0.0,0.0,0.0,0.0,0.0,0.0,0.0,0.0,0.0,0.0,0.0,0.0,0.0,0.0,0.0,0.0,0.0,0.0,0.0,0.0,0.0,0.0,0.0,0.0,0.0,0.0,0.0,0.0,0.0,0.0,0.0,0.0,0.0,0.0,0.0,0.0,0.0,-1.9351,-1.9833,-1.964,-1.965,-1.9986,-1.987,-1.9814,-1.9814,-2.0735,-2.1339,-2.1583,-2.2073,-2.231,-2.231,-2.231,-2.231,-2.231,-2.231,-2.231,-2.231,-2.231,-2.2463,-2.2746,-2.3069,-2.3392,-2.3735,-2.4074,-2.419,-2.419,0.0,0.0,0.0,0.0,0.0,0.0,0.0,0.0,0.0,0.0,0.0,0.0,0.0,0.0,-1.501,-1.5327,-1.5357,-1.5468,-1.5691,-1.5349,-1.4983,-1.4671,-1.4532,-1.419,-1.3581,-1.3778,0.0,0.0,0.0,0.0,0.0,0.0,-1.1203,-1.0478,-1.0741,-1.0782,0.0,0.0,0.0,-0.9688,0.0,0.0,-0.7646,0.0,0.0,0.0,0.0,0.0,0.0,0.0,0.0,0.0,0.0,0.0,0.0,0.0,0.0,0.0,0.0,0.0,0.0,0.0,0.0,0.0,0.0,0.0,0.0,0.0,0.0,0.0,0.0,0.0,0.0,0.0,0.0,0.0,0.0,0.0,0.0,0.0,0.0,0.0,0.0,0.0,0.0,0.0,0.0,0.0,-1.8723,-1.8632,-1.8755,-1.9077,-1.9077,-1.9261,-1.9613,-2.0162,-2.0696,-2.1221,-2.1701,-2.2073,-2.231,-2.231,-2.231,-2.231,-2.231,-2.231,-2.231,-2.231,-2.2398,-2.2599,-2.3021,-2.3277,-2.3414,-2.3996,-2.4132,-2.4054,0.0,0.0,0.0,0.0,0.0,0.0,0.0,0.0,0.0,0.0,0.0,0.0,0.0,0.0,0.0,-1.7329,-1.6837,-1.6484,-1.6504,-1.5426,-1.4676,-1.4397,-1.3997,-1.3611,-1.3275,-1.3025,0.0,0.0,0.0,0.0,0.0,0.0,-1.0361,0.0,-0.9066,-0.8958,-0.9207,0.0,-0.9035,-0.9408,0.0,-0.86,-0.6774,0.0,0.0,0.0,-0.8386,-0.802,0.0,-0.7709,0.0,0.0,0.0,0.0,0.0,0.0,0.0,0.0,0.0,0.0,0.0,0.0,0.0,0.0,0.0,0.0,0.0,0.0,0.0,0.0,0.0,0.0,0.0,0.0,0.0,0.0,0.0,0.0,0.0,0.0,0.0,0.0,0.0,0.0,0.0,0.0,-1.7462,-1.7248,-1.7277,-1.697,-1.6952,-1.7296,-1.732,-1.7795,-1.886,-1.8877,-1.9638,-2.1136,-2.1187,-2.1566,-2.2276,-2.2293,-2.231,-2.231,-2.231,-2.231,-2.231,-2.231,-2.231,-2.2349,-2.294,-2.2996,-2.2848,-2.3816,-2.3996,-2.3774,0.0,0.0,0.0,0.0,0.0,0.0,0.0,0.0,0.0,0.0,0.0,0.0,0.0,0.0,0.0,-1.7298,-1.6642,-1.6269,-1.6418,-1.5415,-1.455,-1.3993,-1.3656,-1.3194,-1.2517,-1.2757,0.0,0.0,0.0,0.0,0.0,0.0,0.0,0.0,-0.849,-0.8011,-0.7337,-0.8368,0.0,0.0,-0.9659,-0.9064,0.0,0.0,0.0,0.0,0.0,-0.7591,-0.7506,0.0,-0.7829,-0.7606,0.0,0.0,0.0,0.0,0.0,0.0,-0.6656,0.0,0.0,0.0,0.0,0.0,0.0,0.0,0.0,0.0,0.0,0.0,0.0,0.0,0.0,0.0,0.0,0.0,0.0,0.0,0.0,0.0,0.0,0.0,0.0,0.0,0.0,0.0,-1.6285,-1.6314,-1.6552,-1.6962,-1.7183,-1.7296,-1.7526,-1.7805,-1.8115,-1.8623,-1.9096,-1.9536,-2.0679,-2.1322,-2.1515,-2.2073,-2.231,-2.231,-2.231,-2.231,-2.231,-2.231,-2.231,-2.2338,-2.2704,-2.2923,-2.3117,-2.3649,-2.3937,-2.4074,0.0,0.0,0.0,0.0,0.0,0.0,0.0,0.0,0.0,0.0,0.0,0.0,0.0,0.0,0.0,-1.839,-1.7219,-1.6486,-1.6517,-1.5136,-1.3971,-1.3158,-1.2989,-1.2415,-1.1432,-1.2092,0.0,0.0,0.0,0.0,0.0,0.0,0.0,0.0,0.0,0.0,0.0,0.0,0.0,0.0,-0.9131,0.0,0.0,-0.7603,-0.7162,0.0,0.0,0.0,-0.7731,-0.7461,-0.7507,0.0,0.0,0.0,0.0,0.0,0.0,0.0,0.0,0.0,0.0,0.0,0.0,0.0,-0.9218,-0.9678,-0.985,0.0,0.0,0.0,0.0,0.0,0.0,0.0,0.0,0.0,0.0,0.0,0.0,0.0,0.0,0.0,0.0,-1.5004,-1.5394,-1.5394,-1.5649,-1.597,-1.6274,-1.6799,-1.715,-1.7296,-1.7635,-1.7811,-1.7811,-1.8234,-1.8589,-1.891,-2.0111,-2.0873,-2.1237,-2.1972,-2.231,-2.231,-2.231,-2.231,-2.2293,-2.1972,-2.2023,-2.2349,-2.2755,-2.2947,-2.3069,-2.3692,-2.3937,-2.4016,0.0,0.0,0.0,0.0,0.0,0.0,0.0,0.0,0.0,0.0,0.0,0.0,0.0,0.0,0.0,0.0,-1.7961,-1.6748,-1.6439,-1.4638,0.0,-1.2186,-1.2066,-1.1483,-1.0349,-1.1136,-1.1686,0.0,0.0,0.0,0.0,0.0,0.0,0.0,0.0,0.0,0.0,0.0,0.0,-0.7676,-0.8456,-0.8881,0.0,0.0,-0.6899,-0.7551,-0.7369,-0.7631,-0.791,-0.6914,-0.6712,0.0,0.0,0.0,0.0,0.0,-0.4869,0.0,0.0,0.0,0.0,0.0,0.0,0.0,-0.8322,-0.9127,-0.9264,-0.7856,0.0,0.0,0.0,0.0,0.0,0.0,0.0,0.0,0.0,0.0,0.0,0.0,0.0,0.0,-1.369,-1.4288,-1.4707,-1.4782,-1.5424,-1.597,-1.6274,-1.6607,-1.6952,-1.7296,-1.7635,-1.7811,-1.7811,-1.7811,-1.8132,-1.8792,-1.9536,-2.0264,-2.0983,-2.1718,-2.2029,-2.2029,-2.2029,-2.2029,-2.2006,-2.1329,-2.1576,-2.2388,-2.2853,-2.2951,-2.2923,-2.3816,-2.3976,-2.3795,-0.9393,0.0,0.0,0.0,0.0,0.0,0.0,0.0,0.0,0.0,0.0,0.0,0.0,0.0,0.0,0.0,0.0,-1.5624,-1.4684,-1.348,-1.2491,-1.1757,-1.1247,-1.0808,-1.0378,-1.0251,-1.013,0.0,0.0,0.0,0.0,0.0,0.0,0.0,0.0,0.0,0.0,0.0,0.0,-0.7148,-0.8156,0.0,-0.8098,-0.6092,-0.5938,-0.6812,-0.6774,-0.665,-0.6524,-0.6524,-0.5481,-0.4447,0.0,0.0,0.0,0.0,0.0,0.0,0.0,0.0,0.0,0.0,0.0,0.0,-0.6952,-0.7643,-0.7638,0.0,0.0,0.0,0.0,0.0,0.0,0.0,0.0,0.0,0.0,0.0,0.0,0.0,0.0,0.0,-1.3011,-1.36,-1.4229,-1.4752,-1.5424,-1.597,-1.6274,-1.6607,-1.6952,-1.7296,-1.7635,-1.7811,-1.7811,-1.7811,-1.7879,-1.8031,-1.8758,-1.9198,-1.9367,-2.0103,-2.0441,-2.0441,-2.0441,-2.0441,-2.0441,-2.0272,-2.1191,-2.2583,-2.2086,-2.2547,-2.3522,-2.3732,-2.3917,-2.4113,-0.9409,0.0,0.0,0.0,0.0,0.0,0.0,0.0,0.0,0.0,0.0,0.0,0.0,0.0,0.0,0.0,0.0,0.0,0.0,0.0,0.0,-1.0187,-0.9864,-0.9279,-0.8427,-0.8638,0.0,0.0,0.0,0.0,0.0,0.0,0.0,0.0,0.0,0.0,0.0,0.0,-0.6871,-0.7059,-0.7821,0.0,-0.7595,-0.4843,-0.4135,-0.4663,-0.5103,-0.5567,-0.6222,-0.769,-0.5881,0.0,0.0,-0.5589,-0.5009,0.0,-0.4238,-0.3965,0.0,0.0,0.0,-0.4297,0.0,0.0,0.0,-0.7409,-0.7874,0.0,0.0,0.0,0.0,0.0,0.0,0.0,0.0,0.0,0.0,0.0,0.0,0.0,0.0,0.0,-1.2284,-1.2897,-1.357,-1.4259,-1.4603,-1.5079,-1.5774,-1.612,-1.6605,-1.728,-1.7635,-1.7811,-1.7811,-1.7811,-1.7811,-1.7811,-1.8555,-1.8894,-1.8927,-1.9647,-2.0002,-2.0002,-2.0002,-2.0002,-1.9993,-1.975,-2.0517,-2.1774,-2.1388,-2.1768,-2.252,-2.2677,-2.3104,-2.3602,-0.943,0.0,0.0,0.0,0.0,0.0,0.0,0.0,0.0,0.0,0.0,0.0,0.0,0.0,0.0,0.0,0.0,0.0,0.0,0.0,0.0,0.0,-0.8797,-0.7935,-0.6261,-0.6926,-0.714,0.0,0.0,0.0,0.0,0.0,0.0,0.0,0.0,0.0,0.0,0.0,0.0,-0.7246,0.0,-0.7501,-0.683,-0.3408,-0.251,-0.318,-0.3878,-0.4408,-0.5222,-0.8214,-0.6206,-0.2768,-0.4591,-0.5138,0.0,0.0,0.0,0.0,0.0,0.0,0.0,0.0,0.0,-0.5691,0.0,0.0,0.0,0.0,0.0,0.0,0.0,0.0,0.0,0.0,0.0,0.0,0.0,0.0,0.0,0.0,0.0,0.0,-1.1583,-1.2194,-1.2914,-1.363,-1.3675,-1.416,-1.522,-1.5511,-1.614,-1.716,-1.744,-1.7659,-1.7811,-1.7811,-1.7811,-1.7811,-1.8403,-1.8691,-1.8707,-1.9292,-1.9579,-1.9579,-1.9579,-1.9579,-1.9553,-1.9212,-1.9629,-2.0483,-2.0687,-2.101,-2.1423,-2.1697,-2.2208,-2.2776,-0.8461,0.0,0.0,0.0,0.0,0.0,0.0,0.0,0.0,0.0,0.0,0.0,0.0,0.0,0.0,0.0,0.0,0.0,-1.0169,0.0,0.0,0.0,0.0,0.0,-0.5663,-0.5762,-0.5551,0.0,0.0,0.0,0.0,0.0,0.0,0.0,-0.5334,0.0,0.0,0.0,-0.6708,0.0,-0.7666,-0.6781,0.0,-0.1596,-0.2179,-0.4835,-0.4931,-0.3114,-0.1298,0.0,-0.4611,-0.2305,0.0,-0.4818,-0.4117,-0.4296,0.0,0.0,0.0,0.0,0.0,0.0,-0.5008,0.0,0.0,0.0,-0.6837,-0.7102,0.0,0.0,0.0,0.0,0.0,0.0,0.0,0.0,0.0,0.0,0.0,0.0,0.0,0.0,0.0,-1.1414,-1.229,-1.3198,-1.3267,-1.3816,-1.5071,-1.5147,-1.5686,-1.6737,-1.6813,-1.7134,-1.7772,-1.7811,-1.7811,-1.7811,-1.7873,-1.7929,-1.7929,-1.8014,-1.8042,-1.8042,-1.8042,-1.8042,-1.807,-1.8254,-1.8525,-1.896,-1.9901,-2.088,-2.1751,-2.1785,-2.1858,-2.195,-0.8409,0.0,0.0,0.0,0.0,0.0,0.0,0.0,0.0,0.0,0.0,0.0,0.0,0.0,0.0,0.0,0.0,-0.9733,0.0,0.0,0.0,0.0,0.0,0.0,0.0,-0.4702,-0.3998,0.0,-0.3014,0.0,0.0,0.0,0.0,0.0,-0.4776,0.0,-0.5086,0.0,0.0,0.0,0.0,0.0,0.0,-0.4886,-0.3502,-0.2403,-0.4397,-0.4183,-0.2938,0.0,-0.3505,0.0,0.0,0.0,0.0,0.0,0.0,0.0,0.0,0.0,0.0,0.0,0.0,0.0,-0.6475,0.0,-0.6771,0.0,0.0,0.0,0.0,0.0,0.0,0.0,-0.6447,0.0,0.0,0.0,0.0,0.0,0.0,0.0,0.0,0.0,-1.094,-1.1263,-1.1514,-1.2257,-1.3753,-1.4116,-1.4821,-1.6018,-1.6479,-1.6851,-1.7151,-1.7279,-1.7484,-1.7811,-1.7484,-1.7501,-1.7811,-1.7811,-1.7811,-1.7811,-1.7811,-1.7811,-1.7833,-1.8082,-1.827,-1.8445,-1.9219,-1.9861,-2.0352,-2.0352,-2.0629,-2.1068,0.0,0.0,0.0,0.0,0.0,0.0,0.0,0.0,0.0,0.0,0.0,0.0,-1.0855,-0.9655,0.0,0.0,-0.8475,-0.8406,0.0,0.0,-0.9004,0.0,0.0,0.0,0.0,0.0,-0.3527,-0.2636,-0.2493,0.0,0.0,0.0,0.0,0.0,0.0,-0.414,-0.4151,0.0,0.0,-0.5944,-0.679,-0.7127,-0.7157,-0.7539,-0.4495,-0.0321,-0.2801,-0.3693,-0.3327,-0.0837,-0.2097,0.0,-0.4308,0.0,0.0,0.0,0.0,0.0,-0.3575,0.0,0.0,0.0,0.0,0.0,0.0,0.0,0.0,0.0,0.0,0.0,0.0,0.0,0.0,0.0,0.0,0.0,0.0,0.0,0.0,0.0,0.0,0.0,0.0,-0.9754,-0.9725,-1.0076,-1.0144,-1.0956,-1.2799,-1.3355,-1.412,-1.5255,-1.6001,-1.6512,-1.6699,-1.7048,-1.7424,-1.7811,-1.749,-1.7487,-1.7811,-1.7878,-1.7905,-1.7922,-1.7833,-1.7856,-1.7927,-1.8103,-1.8249,-1.8351,-1.8807,-1.9117,-1.9305,-1.9305,-1.9675,-2.0186,0.0,-0.8926,0.0,0.0,0.0,0.0,0.0,0.0,0.0,0.0,0.0,0.0,0.0,0.0,0.0,0.0,0.0,-0.7909,-0.8381,0.0,-0.9629,0.0,0.0,-0.8113,0.0,0.0,-0.4742,-0.3743,-0.331,0.0,0.0,0.0,0.0,0.0,0.0,-0.3849,-0.4419,-0.4966,-0.5237,-0.5467,-0.7056,-0.7666,-0.7666,0.0,-0.4495,-0.001,-0.0126,0.0,0.0,-0.0039,-0.0091,0.0,0.0,0.0,0.0,0.0,0.0,0.0,0.0,0.0,0.0,-0.4391,0.0,0.0,0.0,0.0,-0.6397,0.0,0.0,0.0,0.0,0.0,0.0,0.0,0.0,0.0,0.0,0.0,0.0,0.0,0.0,0.0,0.0,-0.8493,-0.8907,-1.0458,-0.9811,-1.0391,-1.2769,-1.3224,-1.3768,-1.4511,-1.5257,-1.5967,-1.6699,-1.7405,-1.7777,-1.7811,-1.8044,-1.8023,-1.7811,-1.8078,-1.8187,-1.8166,-1.7905,-1.7949,-1.8187,-1.8187,-1.8351,-1.8604,-1.8896,-1.9117,-1.9305,-1.9305,-1.9323,-1.9341,0.0,0.0,0.0,0.0,0.0,0.0,0.0,-1.0494,0.0,0.0,0.0,0.0,0.0,-0.7433,-0.6929,0.0,0.0,-0.7422,-0.7977,-0.8714,0.0,0.0,0.0,-0.818,0.0,0.0,-0.4644,-0.3726,-0.3124,-0.278,0.0,0.0,0.0,0.0,0.0,-0.3072,0.0,0.0,0.0,0.0,0.0,-0.6747,-0.7326,0.0,-0.1518,0.0,0.0,0.0,0.0,0.0,0.0,-0.024,-0.1627,-0.3009,-0.4019,-0.3506,-0.3747,-0.421,0.0,0.0,-0.4548,-0.4608,0.0,0.0,0.0,0.0,0.0,0.0,0.0,0.0,0.0,0.0,0.0,0.0,0.0,0.0,0.0,0.0,0.0,0.0,0.0,0.0,0.0,0.0,0.0,-0.7891,-0.6311,-0.5042,-0.4395,-0.9897,-1.3589,-1.4714,-1.5308,-1.595,-1.6699,-1.7062,-1.7454,-1.7811,-1.7542,-1.7538,-1.7811,-1.7883,-1.7927,-1.7927,-1.7856,-1.7856,-1.7949,-1.8125,-1.8249,-1.8371,-1.8843,-1.9035,-1.9117,-1.9243,-1.9305,-1.9393,-0.6289,0.0,0.0,0.0,0.0,0.0,0.0,0.0,0.0,0.0,-0.8877,0.0,-0.7677,0.0,-0.666,0.0,-0.6857,-0.7156,-0.7752,-0.8427,0.0,-0.8857,-0.8673,0.0,0.0,0.0,0.0,-0.4468,-0.3821,-0.3245,0.0,0.0,0.0,0.0,0.0,0.0,0.0,0.0,-0.3173,0.0,0.0,-0.626,0.0,0.0,-0.1596,0.0,0.0,0.0,0.0,0.0,0.0,0.0,0.0,-0.1573,-0.3347,-0.301,-0.3786,-0.4696,-0.4638,-0.4774,0.0,-0.5183,-0.5304,0.0,-0.5562,0.0,-0.5831,0.0,0.0,0.0,0.0,0.0,0.0,0.0,0.0,0.0,0.0,-0.5731,0.0,0.0,0.0,0.0,0.0,0.0,-0.6093,-0.6564,-0.4545,-0.2335,0.0,-0.6618,-1.1794,-1.4798,-1.5264,-1.5853,-1.6699,-1.7079,-1.7471,-1.7811,-1.7559,-1.7555,-1.7811,-1.7905,-1.7949,-1.7927,-1.7856,-1.7839,-1.7949,-1.8125,-1.8249,-1.8391,-1.8825,-1.9035,-1.9117,-1.9243,-1.9305,-1.9408,0.0,0.0,0.0,0.0,-0.85,0.0,0.0,0.0,-0.9069,0.0,-0.8333,-0.7677,-0.7063,-0.676,-0.6667,-0.6775,-0.6872,-0.714,-0.7747,-0.8156,0.0,0.0,-0.8357,-0.7956,-0.7435,0.0,0.0,0.0,0.0,0.0,0.0,0.0,0.0,0.0,-0.1981,0.0,-0.2589,-0.1677,-0.08,-0.0296,-0.3683,-0.595,-0.7345,-0.7598,-0.465,-0.035,-0.0088,0.0,0.0,0.0,0.0,0.0,0.0,0.0,-0.0438,-0.2676,-0.4269,-0.5311,-0.5385,-0.5667,-0.5957,-0.601,-0.6225,0.0,0.0,0.0,-0.6212,0.0,0.0,0.0,0.0,0.0,0.0,0.0,0.0,0.0,0.0,0.0,0.0,0.0,0.0,0.0,0.0,-0.6059,-0.6011,-0.6483,-0.4571,0.0,0.0,-0.398,-0.8904,-1.4656,-1.5097,-1.5737,-1.6728,-1.7456,-1.7811,-1.7811,-1.8057,-1.8057,-1.7811,-1.8061,-1.8166,-1.8166,-1.7905,-1.7949,-1.8187,-1.8187,-1.8351,-1.8604,-1.8896,-1.9117,-1.9305,-1.9305,-1.9305,-1.932,-0.4652,-0.4652,-0.513,0.0,-0.8372,-0.9279,0.0,0.0,0.0,0.0,-0.8267,-0.8003,-0.709,-0.676,-0.6599,-0.6635,-0.6795,0.0,0.0,0.0,0.0,-0.8437,-0.84,-0.807,-0.7491,-0.7173,0.0,-0.5766,0.0,0.0,-0.2662,0.0,0.0,0.0,0.0,0.0,-0.1637,-0.1397,-0.08,-0.0081,-0.0995,-0.1605,-0.2393,0.0,-0.6878,-0.5224,-0.1381,0.0,0.0,0.0,0.0,0.0,0.0,0.0,-0.012,-0.0724,-0.2979,-0.5295,-0.5308,-0.5967,-0.6588,-0.6406,-0.6428,-0.6488,0.0,0.0,0.0,0.0,0.0,0.0,0.0,0.0,0.0,0.0,0.0,0.0,0.0,0.0,0.0,-0.6165,0.0,0.0,-0.5778,-0.5124,-0.493,-0.5449,-0.4917,0.0,0.0,0.0,-1.2076,-1.4015,-1.5289,-1.633,-1.7133,-1.758,-1.7811,-1.7811,-1.7861,-1.7878,-1.7811,-1.7861,-1.7905,-1.7905,-1.7833,-1.7856,-1.7927,-1.8103,-1.8249,-1.8351,-1.8807,-1.9117,-1.9305,-1.9305,-1.9305,-1.9305,-0.4186,0.0,0.0,-0.5716,0.0,0.0,-0.7923,-0.8837,0.0,-0.8065,-0.7976,0.0,-0.7278,-0.6954,-0.6727,-0.66,-0.6863,0.0,-0.7817,0.0,0.0,-0.8916,-0.875,-0.8338,-0.7614,-0.7634,0.0,-0.5622,0.0,0.0,-0.2447,0.0,0.0,0.0,0.0,-0.1669,0.0,-0.1167,-0.045,0.0,0.0,0.0,0.0,-0.323,-0.573,-0.7024,-0.1848,0.0,0.0,0.0,0.0,0.0,0.0,0.0,-0.0151,-0.0912,-0.2005,-0.3406,-0.5304,-0.5799,-0.5961,-0.681,-0.7022,-0.7027,-0.7005,-0.668,-0.641,0.0,-0.6956,-0.7372,0.0,0.0,0.0,0.0,0.0,0.0,0.0,0.0,0.0,0.0,-0.6165,0.0,-0.602,-0.5192,-0.5222,-0.6622,-0.6329,0.0,0.0,0.0,-1.2981,-1.4618,-1.4845,-1.5619,-1.706,-1.6983,-1.7163,-1.7572,-1.7572,-1.7658,-1.7811,-1.7811,-1.7811,-1.7811,-1.7811,-1.7811,-1.7833,-1.8082,-1.8187,-1.8249,-1.8789,-1.9117,-1.9305,-1.9305,-1.9305,-1.9305,0.0,0.0,0.0,0.0,0.0,0.0,0.0,-0.7964,0.0,-0.7855,0.0,-0.7453,-0.7453,-0.7174,-0.6921,-0.6667,0.0,-0.7486,-0.8235,-0.8225,-0.8619,-0.9573,-0.9228,-0.86,-0.7733,-0.8201,-0.7458,0.0,0.0,0.0,0.0,0.0,0.0,0.0,0.0,0.0,0.0,-0.1506,-0.0423,0.0,0.0,0.0,0.0,0.0,-0.2782,-0.61,-0.1605,0.0,0.0,0.0,0.0,0.0,0.0,0.0,-0.0295,-0.1817,-0.1518,-0.142,-0.474,-0.5134,-0.508,-0.7177,-0.7627,-0.7473,-0.7228,-0.6826,-0.6568,-0.6845,-0.7318,-0.777,-0.8109,0.0,0.0,0.0,0.0,0.0,0.0,0.0,0.0,0.0,0.0,0.0,-0.6687,-0.5835,-0.6095,-0.8152,0.0,0.0,0.0,0.0,-1.2524,-1.5186,-1.4194,-1.4546,-1.6435,-1.612,-1.6322,-1.71,-1.7247,-1.7439,-1.7743,-1.7789,-1.7811,-1.7811,-1.7811,-1.7811,-1.7833,-1.8082,-1.8249,-1.8351,-1.8807,-1.9117,-1.9305,-1.9305,-1.9305,-1.9305,0.0,0.0,0.0,0.0,0.0,-0.6213,-0.6882,-0.6942,-0.7053,-0.751,-0.7288,-0.7101,-0.7101,-0.7054,-0.7001,-0.6947,-0.7114,0.0,0.0,0.0,0.0,-0.9573,-0.9228,-0.8637,-0.7789,-0.779,-0.6827,0.0,0.0,0.0,0.0,0.0,0.0,0.0,0.0,0.0,-0.3931,-0.4248,0.0,0.0,0.0,0.0,0.0,0.0,-0.0564,-0.1226,-0.0321,0.0,0.0,0.0,0.0,0.0,0.0,0.0,-0.0059,-0.0367,-0.2311,-0.3901,-0.1727,-0.3566,-0.6376,-0.7434,-0.7187,-0.685,-0.7463,-0.7285,-0.7078,-0.7395,-0.8056,-0.8656,-0.8947,0.0,0.0,0.0,0.0,0.0,0.0,0.0,0.0,0.0,0.0,-0.6185,0.0,-0.641,0.0,0.0,0.0,0.0,0.0,0.0,-1.1995,0.0,-1.4352,-1.5152,0.0,0.0,-1.6433,-1.6064,-1.6904,-1.7344,-1.7392,-1.7681,-1.7811,-1.7811,-1.7811,-1.7811,-1.7833,-1.8082,-1.845,-1.8878,-1.8966,-1.9117,-1.9305,-1.9305,-1.9305,-1.9305,0.0,0.0,0.0,0.0,0.0,0.0,0.0,-0.6332,-0.6679,-0.7397,-0.7341,-0.7255,-0.7255,-0.7114,-0.6979,-0.6979,-0.7052,-0.7433,-0.8226,-0.8392,-0.8773,-0.9535,-0.9618,-0.9178,-0.8136,-0.7725,-0.6848,-0.5359,0.0,0.0,0.0,0.0,0.0,0.0,0.0,-0.2849,0.0,0.0,0.0,-0.2594,-0.0746,0.0,0.0,0.0,0.0,0.0,0.0,0.0,0.0,0.0,0.0,0.0,0.0,0.0,0.0,0.0,-0.1216,-0.2438,-0.1946,-0.3459,-0.5509,-0.7027,-0.7262,-0.7225,-0.7618,-0.7532,-0.7441,-0.7732,-0.8091,-0.8585,-0.9465,-0.9936,0.0,0.0,0.0,0.0,0.0,0.0,0.0,0.0,0.0,0.0,0.0,0.0,0.0,0.0,0.0,0.0,0.0,0.0,-1.1822,0.0,0.0,0.0,-1.4557,0.0,-1.5919,-1.6328,-1.6987,-1.7392,-1.7549,-1.7726,-1.7811,-1.7811,-1.7811,-1.7811,-1.7833,-1.8082,-1.843,-1.8807,-1.8949,-1.9117,-1.9305,-1.9305,-1.9305,-1.9305,0.0,-0.4678,0.0,0.0,-0.4888,0.0,-0.5851,-0.6197,-0.6594,-0.7297,-0.7412,-0.7412,-0.7412,-0.7161,-0.6979,-0.6979,-0.6979,-0.7273,-0.787,-0.8275,-0.8837,-0.9478,-0.9922,-0.9573,-0.837,-0.7883,-0.7048,0.0,0.0,0.0,0.0,0.0,0.0,0.0,0.0,0.0,0.0,0.0,-0.4502,-0.3938,-0.1129,0.0,0.0,0.0,0.0,0.0,0.0,0.0,0.0,0.0,0.0,0.0,0.0,0.0,0.0,0.0,0.0,-0.0642,-0.3595,-0.4424,-0.491,-0.6767,-0.7337,-0.7492,-0.7676,-0.766,-0.7712,-0.8083,-0.8358,-0.8816,-0.9709,-1.0321,0.0,0.0,0.0,0.0,0.0,0.0,0.0,0.0,0.0,0.0,-0.6731,0.0,0.0,0.0,0.0,0.0,-1.1176,0.0,0.0,0.0,0.0,-1.3315,-1.4541,0.0,-1.5487,-1.6575,-1.7069,-1.7455,-1.7704,-1.7766,-1.7811,-1.7811,-1.7811,-1.7833,-1.7922,-1.8166,-1.845,-1.8715,-1.8966,-1.9166,-1.9305,-1.935,-1.9365,-1.9365,0.0,0.0,0.0,0.0,0.0,0.0,-0.6292,-0.6693,-0.695,-0.7018,-0.7061,-0.7061,-0.7061,-0.7041,-0.6979,-0.6979,-0.6979,-0.7273,-0.787,-0.7961,-0.8439,-0.9439,-0.9558,-0.9154,-0.824,-0.8173,-0.7325,0.0,0.0,-0.4795,0.0,0.0,0.0,0.0,0.0,0.0,0.0,-0.318,-0.194,-0.047,-0.0134,0.0,0.0,0.0,0.0,0.0,0.0,0.0,0.0,0.0,0.0,0.0,0.0,0.0,0.0,0.0,0.0,-0.1069,-0.5984,-0.6798,-0.6473,-0.7424,-0.713,-0.6804,-0.755,-0.766,-0.7808,-0.8579,-0.9742,-1.0377,-0.9597,-1.067,-1.1111,0.0,0.0,0.0,0.0,0.0,-0.9419,0.0,0.0,0.0,0.0,-0.6688,0.0,0.0,-0.8405,0.0,0.0,0.0,0.0,-1.3604,-1.3887,-1.395,-1.3813,-1.5009,-1.5711,-1.5895,-1.6848,-1.732,-1.7368,-1.7658,-1.7811,-1.7811,-1.7811,-1.7949,-1.8187,-1.845,-1.8715,-1.8984,-1.9198,-1.9274,-1.932,-1.9499,-1.9569,-1.9596,0.0,0.0,0.0,0.0,0.0,0.0,0.0,-0.6724,-0.6979,-0.6979,-0.6979,-0.6979,-0.6979,-0.6979,-0.6979,-0.6979,-0.6979,-0.7105,-0.7363,-0.7704,-0.8234,-0.8999,-0.9319,-0.9094,-0.8215,-0.8384,-0.7755,0.0,0.0,0.0,0.0,0.0,0.0,0.0,0.0,-0.3847,-0.4199,-0.3667,-0.2421,-0.0784,-0.0784,-0.047,0.0,0.0,0.0,0.0,0.0,0.0,0.0,0.0,0.0,0.0,0.0,0.0,0.0,0.0,0.0,-0.0791,-0.4434,-0.631,-0.7225,-0.7314,-0.7454,-0.7659,-0.7993,-0.8382,-0.8767,-0.9081,-0.9919,-1.042,-0.9856,-1.0706,-1.1307,-1.0723,0.0,0.0,0.0,0.0,0.0,0.0,0.0,0.0,0.0,0.0,0.0,0.0,0.0,0.0,0.0,0.0,0.0,-1.3025,0.0,-1.4525,-1.4309,-1.5627,-1.6423,-1.6693,-1.6858,-1.716,-1.7579,-1.7294,-1.7371,-1.7811,-1.7811,-1.7878,-1.7992,-1.843,-1.866,-1.8807,-1.9164,-1.9305,-1.9305,-1.938,-1.9499,-1.9596,-0.3961,0.0,-0.4235,0.0,-0.5288,-0.5753,-0.6443,-0.6804,-0.6979,-0.6979,-0.6979,-0.6979,-0.6979,-0.6979,-0.6979,-0.6979,-0.6979,-0.6979,-0.6979,-0.7572,-0.816,-0.8675,-0.9199,0.0,-0.8605,-0.8663,-0.8149,-0.7001,-0.6636,0.0,0.0,0.0,0.0,0.0,-0.4306,-0.4188,-0.4559,-0.4057,-0.3151,-0.2024,-0.1875,-0.1414,-0.076,-0.0489,-0.0384,-0.0384,-0.0384,-0.0218,-0.004,-0.0298,-0.0212,0.0,0.0,0.0,0.0,0.0,0.0,-0.0571,-0.3198,-0.5762,-0.7656,-0.7481,-0.7898,-0.8319,-0.8421,-0.9008,-0.9595,-0.9803,-1.021,-1.043,-1.0032,-1.0703,-1.1248,-1.1121,0.0,0.0,0.0,-1.1416,0.0,0.0,-1.1132,-1.0543,-1.123,-1.0894,0.0,0.0,0.0,0.0,0.0,0.0,0.0,0.0,0.0,0.0,-1.5529,-1.6455,-1.716,-1.7562,-1.7059,-1.7152,-1.7794,-1.7253,-1.7304,-1.7811,-1.7811,-1.7811,-1.7833,-1.829,-1.8489,-1.8528,-1.9033,-1.9214,-1.923,-1.9335,-1.9495,-1.9656,-0.3822,-0.3917,-0.426,-0.5125,-0.541,-0.5837,-0.6855,-0.6985,-0.6979,-0.6979,-0.6979,-0.6979,-0.6979,-0.6979,-0.6979,-0.6979,-0.6979,-0.6979,-0.6979,-0.7572,-0.816,0.0,0.0,-0.9478,-0.9469,-0.8958,-0.8439,-0.787,0.0,0.0,-0.6179,0.0,-0.5513,-0.5882,-0.5716,-0.5412,-0.4921,-0.3937,-0.3603,-0.3731,-0.3248,-0.2917,-0.255,-0.1641,-0.129,-0.129,-0.129,-0.0734,-0.0132,-0.0999,-0.0714,0.0,0.0,0.0,0.0,0.0,0.0,-0.0571,-0.3198,-0.5762,-0.7783,-0.8205,-0.828,-0.8393,-0.8706,-0.931,-1.0008,-1.0739,-1.0897,-1.068,-1.0024,-1.0666,-1.0893,-0.9624,0.0,0.0,0.0,-1.0518,0.0,-1.3525,-0.9561,-0.8151,-1.1918,-1.144,0.0,0.0,0.0,0.0,0.0,0.0,0.0,-1.6525,-1.643,0.0,-1.7471,-1.7489,-1.7733,-1.8187,-1.7448,-1.7342,-1.7811,-1.7794,-1.7794,-1.7811,-1.7811,-1.7811,-1.7833,-1.8082,-1.8208,-1.8249,-1.8789,-1.9001,-1.9052,-1.9456,-1.9682,-1.9813,-0.3656,-0.3687,-0.4047,-0.5111,-0.532,-0.5739,-0.6823,-0.6979,-0.6979,-0.6979,-0.6979,-0.6979,-0.6979,-0.6979,-0.6979,0.0,-0.6979,-0.6979,0.0,-0.7189,-0.7731,-0.8675,-0.8521,-0.8756,-0.9478,-0.8594,-0.8077,-0.7919,0.0,0.0,0.0,-0.6173,-0.5739,-0.5513,-0.5874,-0.5219,-0.3889,-0.439,-0.4057,-0.3184,-0.3038,-0.294,-0.2874,-0.2415,-0.2252,-0.2252,-0.2252,-0.2069,-0.1777,-0.1412,-0.1537,-0.1634,-0.0391,0.0,0.0,0.0,-0.172,-0.3522,-0.3113,-0.5048,-0.7216,-0.7413,-0.805,-0.8679,-0.8789,-0.9532,-1.0284,-1.0508,-1.0556,-1.0551,-1.0588,-1.0637,-1.0707,-1.0699,-1.1125,0.0,-1.1395,0.0,-0.9635,-1.2149,-1.1276,-1.0961,-1.2186,-1.2277,0.0,0.0,0.0,0.0,0.0,0.0,0.0,0.0,-1.7004,0.0,-1.6692,-1.717,-1.7169,-1.6628,-1.5886,-1.5534,-1.5559,-1.6069,-1.6576,-1.7033,-1.7033,-1.7337,-1.7833,-1.8082,-1.8187,-1.8249,-1.8789,-1.9002,-1.9035,-1.9308,-1.9509,-1.9682,-0.3581,-0.3581,-0.3968,-0.5091,-0.5303,-0.569,-0.681,-0.6979,-0.6979,-0.6979,-0.6979,-0.6979,-0.6979,-0.6979,0.0,-0.6979,-0.6979,-0.6979,-0.6979,-0.7196,-0.7655,-0.8357,-0.8275,-0.8602,-0.9478,-0.8439,0.0,-0.8193,-0.7398,-0.6979,-0.6979,-0.6647,-0.6173,-0.5653,-0.6258,-0.5439,-0.372,-0.4685,-0.4301,-0.3031,-0.3012,-0.3042,-0.3093,-0.2856,-0.2768,-0.2761,-0.2703,-0.2712,-0.2595,-0.2032,-0.2434,-0.2924,-0.1468,-0.0999,-0.1109,-0.179,-0.3568,-0.5127,-0.441,-0.5533,-0.705,-0.7598,-0.8266,-0.8915,-0.9307,-0.9932,-1.0434,-1.0556,-1.0483,-1.0508,-1.0849,-1.0715,-1.075,-1.1227,-1.1423,-1.1557,-1.1768,0.0,-1.0055,0.0,0.0,0.0,0.0,-1.3033,-1.3277,0.0,0.0,0.0,0.0,0.0,-1.6232,-1.6591,-1.7162,-1.7198,-1.6613,-1.7008,-1.6813,-1.6046,-1.54,-1.5031,-1.4952,-1.568,-1.6407,-1.7101,-1.7101,-1.7219,-1.741,-1.7565,-1.7711,-1.7835,-1.8271,-1.8662,-1.9018,-1.923,-1.9442,-1.9609,-0.3581,-0.3622,-0.4012,-0.5091,-0.5346,-0.5733,-0.6852,-0.6979,-0.6979,-0.6979,-0.6979,-0.7027,-0.7054,-0.7034,-0.7027,-0.7054,0.0,0.0,-0.6979,-0.753,-0.787,-0.7953,-0.8398,-0.8918,-0.9478,-0.8439,-0.8111,-0.8594,-0.7523,-0.6979,-0.6937,-0.6894,-0.6598,-0.6136,-0.6641,-0.5906,-0.4267,-0.4872,-0.4414,-0.3296,-0.3155,-0.3175,-0.3259,-0.2981,-0.291,-0.289,-0.2734,-0.2712,-0.2746,-0.2746,-0.327,-0.3847,-0.3057,-0.2807,-0.3095,-0.4649,-0.5215,-0.5522,-0.6579,-0.6841,-0.7168,-0.8378,-0.8723,-0.9078,-1.0122,-1.0371,-1.0483,-1.0801,-1.0619,-1.0508,-1.0825,-1.0873,-1.0954,-1.1219,-1.1549,-1.1783,-1.1805,-1.1662,-1.1831,0.0,0.0,0.0,-1.4066,-1.3681,-1.3883,0.0,0.0,0.0,0.0,0.0,-1.6113,-1.6904,-1.7046,-1.7076,-1.7008,-1.6877,-1.6581,-1.616,-1.5674,-1.5462,-1.5479,-1.6248,-1.6974,-1.7659,-1.7754,-1.7381,-1.6699,-1.674,-1.6887,-1.7141,-1.7418,-1.8127,-1.9018,-1.923,-1.9427,-1.9569,0.0,0.0,-0.4434,-0.5173,-0.5701,-0.6215,-0.6894,-0.6979,-0.6979,-0.6979,-0.6979,-0.7108,-0.7335,-0.7161,-0.7114,-0.7341,-0.7154,-0.6979,-0.6979,-0.7154,-0.7607,-0.848,-0.8234,-0.8513,-0.9478,-0.8439,-0.7739,-0.7391,-0.7147,-0.6768,-0.6392,-0.591,-0.5653,-0.5524,-0.5647,-0.5187,-0.4371,-0.5014,-0.4544,-0.3389,-0.3269,-0.3206,-0.3115,-0.2974,-0.291,-0.289,-0.2734,-0.2907,-0.3163,-0.3163,-0.3364,-0.3658,-0.3907,-0.4291,-0.4476,-0.3526,-0.4222,-0.5435,-0.6098,-0.6427,-0.6751,-0.7345,-0.8153,-0.9008,-0.9829,-1.021,-1.0421,-1.0508,-1.0458,-1.0421,-1.0508,-1.0508,-1.0581,-1.0739,-1.1085,-1.1452,-1.1762,-1.0307,-1.0081,0.0,-1.2951,-1.3328,-1.3778,-1.4011,-1.4337,0.0,0.0,-1.5307,-1.5655,-1.5511,-1.598,-1.7165,-1.7246,-1.6913,-1.6202,-1.6042,-1.5554,-1.4697,-1.4265,-1.4074,-1.4107,-1.5051,-1.5713,-1.6174,-1.714,-1.724,-1.672,-1.7084,-1.7179,-1.7141,-1.7505,-1.8211,-1.9018,-1.923,-1.932,-1.938,-0.3581,-0.4096,-0.47,-0.5216,-0.5787,-0.6392,-0.6937,-0.6979,-0.6979,-0.6979,-0.6979,-0.7134,-0.7479,-0.7201,-0.7141,-0.7486,-0.7194,-0.6979,-0.6979,-0.6979,-0.7273,-0.7889,-0.7648,-0.7897,-0.8756,-0.7938,-0.7321,-0.6979,-0.6979,-0.6725,-0.6179,-0.6124,-0.5819,-0.5303,-0.5862,-0.5604,-0.487,-0.5437,-0.4981,-0.3864,-0.375,-0.3708,-0.3663,-0.3464,-0.3459,-0.346,-0.3279,-0.3288,-0.3407,-0.3319,-0.3621,-0.4048,-0.4398,-0.4852,-0.5097,-0.4135,-0.4712,-0.5765,-0.6183,-0.6518,-0.6961,-0.7685,-0.849,-0.9224,-0.9764,-1.0046,-1.026,-1.0556,-1.0508,-1.0519,-1.0973,-1.0926,-1.0879,-1.1118,-1.032,-1.0259,-1.1943,-1.1126,-1.1087,-1.3069,-1.3496,-1.3761,-1.4083,-1.4447,-1.4719,-1.4883,-1.5069,0.0,-1.5306,-1.5298,-1.5623,-1.6369,-1.6271,-1.596,-1.544,-1.5159,-1.4743,-1.4188,-1.3899,-1.3913,-1.4263,-1.4806,-1.5344,-1.5936,-1.6994,-1.687,-1.597,-1.6624,-1.6675,-1.6374,-1.6974,-1.7783,-1.8642,-1.913,-1.935,-1.9438,-0.3581,-0.41,-0.4709,-0.5303,-0.583,-0.6392,-0.6937,-0.6979,-0.6979,-0.6979,-0.6979,-0.7154,-0.7495,-0.7228,-0.7161,-0.7547,-0.7261,-0.7068,-0.6985,-0.7063,-0.7147,-0.7147,-0.7147,-0.7363,-0.787,-0.7321,-0.6979,-0.6979,-0.6979,-0.6725,-0.6227,-0.6647,-0.638,-0.548,-0.6465,-0.6337,-0.548,-0.5964,-0.5567,-0.4504,-0.4396,-0.4426,-0.4522,-0.4222,-0.4121,-0.4154,-0.3926,-0.3761,-0.3686,-0.3557,-0.4043,-0.4698,-0.4698,-0.4985,-0.5309,-0.5372,-0.5765,-0.6213,-0.6427,-0.685,-0.7433,-0.8529,-0.9062,-0.9422,-0.9816,-0.9944,-1.0148,-1.0705,-1.0643,-1.0712,-1.1527,-1.1468,-1.14,-1.1659,-0.9608,-0.9065,-1.2175,0.0,-1.3176,-1.3908,-1.4064,-1.4245,-1.4625,-1.4868,-1.5021,-1.5035,-1.5197,-1.5303,-1.5292,-1.5295,-1.5295,-1.5297,-1.5053,-1.4894,-1.4877,-1.4414,-1.4232,-1.4245,-1.4038,-1.4278,-1.4884,-1.5038,-1.5522,-1.6271,-1.6993,-1.6584,-1.5437,-1.612,-1.6066,-1.5655,-1.6371,-1.7235,-1.8188,-1.8867,-1.9243,-1.9396,-0.3581,-0.3711,-0.4184,-0.5556,-0.6039,-0.6392,-0.6937,-0.6979,-0.6979,-0.6979,-0.6979,-0.7191,-0.7796,-0.7355,-0.7248,-0.7809,-0.7575,-0.7295,-0.7034,-0.7489,-0.7746,-0.7746,-0.7746,-0.7787,-0.7912,-0.7321,-0.6979,-0.6979,-0.6979,-0.6725,-0.6184,-0.6264,-0.6221,-0.605,-0.6264,-0.6221,-0.605,-0.6179,-0.5787,-0.5173,-0.5139,-0.5144,-0.5129,-0.469,-0.4387,-0.4181,-0.4023,-0.402,-0.4137,-0.4318,-0.4762,-0.5182,-0.5182,-0.5246,-0.5372,-0.5703,-0.6098,-0.6457,-0.6488,-0.7038,-0.7792,-0.8595,-0.8844,-0.9062,-0.9738,-1.011,-1.0347,-1.0458,-1.0667,-1.0873,-1.1015,-1.1173,-1.131,-1.1293,-0.9628,-0.9345,-1.2259,0.0,-1.3854,-1.3977,-1.4297,-1.4616,-1.4908,-1.4973,-1.5061,-1.5248,-1.5289,-1.5294,-1.5294,-1.5303,-1.5295,-1.5291,-1.508,-1.4906,-1.4737,-1.4374,-1.4282,-1.4453,-1.4257,-1.4203,-1.4347,-1.5192,-1.5825,-1.6303,-1.679,-1.7031,-1.7097,-1.6896,-1.6646,-1.6447,-1.6739,-1.7371,-1.8115,-1.8243,-1.8379,-1.8495,-0.3581,-0.3581,-0.3972,-0.5048,-0.5996,-0.6732,-0.6979,-0.6979,-0.6979,-0.6979,-0.7161,-0.7435,-0.7835,-0.7636,-0.7689,-0.813,-0.8165,-0.7892,-0.7325,-0.7982,-0.828,-0.7934,-0.8127,-0.7965,-0.7412,-0.7147,-0.6979,-0.6979,-0.6979,-0.6725,-0.6227,-0.6477,-0.6477,-0.6227,-0.652,-0.6647,-0.6647,-0.6647,-0.6301,-0.5787,-0.5787,-0.5787,-0.576,-0.5534,-0.54,-0.5256,-0.4908,-0.4801,-0.4768,-0.4631,-0.4922,-0.5309,-0.5309,-0.5435,-0.5672,-0.5859,-0.6512,-0.7298,-0.7774,-0.8128,-0.8528,-0.9363,-0.9325,-0.9251,-0.979,-1.016,-1.0458,-1.0629,-1.0893,-1.1164,-1.1347,-1.1505,-1.1623,-1.1775,-1.1129,-1.1254,-1.3148,-1.3754,-1.4095,-1.4352,-1.4644,-1.4893,-1.5088,-1.5121,-1.5153,-1.5247,-1.5272,-1.5301,-1.5308,-1.5292,-1.5291,-1.5291,-1.5094,-1.4938,-1.4804,-1.4577,-1.4519,-1.4603,-1.4446,-1.4392,-1.4485,-1.4866,-1.5233,-1.5582,-1.6116,-1.6263,-1.6109,-1.6379,-1.616,-1.5732,-1.6265,-1.6969,-1.7671,-1.7671,-1.8334,-1.9141,-0.3581,-0.3581,-0.3928,-0.5053,-0.6081,-0.6803,-0.6979,-0.7081,-0.7128,-0.7128,-0.7388,-0.7689,-0.8003,-0.7922,-0.8049,-0.835,-0.8539,-0.84,-0.7816,-0.8609,-0.8737,-0.7843,-0.8092,-0.7968,-0.7341,-0.7139,-0.7063,-0.7189,-0.7189,-0.6985,-0.6605,-0.7021,-0.6901,-0.6392,-0.681,-0.6979,-0.6979,-0.6979,-0.6768,-0.6392,-0.6392,-0.6392,-0.6386,-0.6325,-0.6259,-0.6156,-0.5784,-0.5557,-0.5346,-0.4966,-0.508,-0.5403,-0.5424,-0.5641,-0.5959,-0.6262,-0.7236,-0.8348,-0.8932,-0.9084,-0.9256,-1.0009,-0.9789,-0.9475,-0.9816,-1.021,-1.0581,-1.0849,-1.1187,-1.1512,-1.1833,-1.1876,-1.2003,-1.2316,0.0,-1.2972,-1.3775,-1.4,-1.4268,-1.468,-1.4897,-1.5049,-1.5183,-1.5189,-1.5189,-1.5189,-1.5253,-1.5272,-1.5272,-1.5272,-1.5272,-1.5272,-1.5094,-1.4977,-1.4928,-1.4813,-1.4747,-1.4747,-1.4635,-1.4645,-1.4747,-1.4635,-1.4809,-1.5197,-1.5533,-1.5581,-1.5489,-1.5923,-1.5734,-1.5253,-1.6064,-1.6772,-1.7319,-1.7533,-1.8505,-1.9621,-0.3581,-0.3581,-0.4272,-0.6465,-0.6374,-0.6204,-0.6894,-0.7255,-0.7479,-0.7479,-0.7702,-0.8009,-0.831,-0.8096,-0.8049,-0.835,-0.8407,-0.8497,-0.8594,-0.9296,-0.9067,-0.7602,-0.7544,-0.7811,-0.8363,-0.7461,-0.728,-0.7829,-0.7829,-0.7829,-0.7787,-0.7829,-0.753,-0.6937,-0.6979,-0.6979,-0.6979,-0.6979,-0.6979,-0.6937,-0.6937,-0.6937,-0.691,-0.668,-0.6426,-0.6198,-0.6175,-0.5945,-0.5646,-0.5631,-0.5644,-0.5699,-0.5829,-0.5882,-0.6129,-0.7303,-0.8506,-0.942,-0.9181,-0.9316,-0.9645,-1.0096,-0.9789,-0.9475,-0.9816,-1.0398,-1.0873,-1.0897,-1.1347,-1.1833,-1.2107,-1.2169,-1.2251,-1.2533,0.0,0.0,-1.3511,-1.4023,-1.45,-1.484,-1.4946,-1.5049,-1.5183,-1.5189,-1.5189,-1.5189,-1.5189,-1.5209,-1.5209,-1.5209,-1.5209,-1.5209,-1.5075,-1.5007,-1.498,-1.4909,-1.4886,-1.4886,-1.4877,-1.4877,-1.4886,-1.4877,-1.5292,-1.5979,-1.5282,-1.5791,-1.7069,-1.6384,-1.6073,-1.6092,-1.6904,-1.7253,-1.7404,-1.8216,-1.8677,-1.8868,-0.3581,-0.3581,-0.41,-0.569,-0.5899,-0.6214,-0.7181,-0.7439,-0.758,-0.7729,-0.8016,-0.825,-0.8363,-0.843,-0.8517,-0.8631,-0.9036,-0.9249,-0.9115,-0.9953,-1.0087,-0.9346,-0.8706,-0.8465,-0.8746,-0.8537,-0.8154,-0.765,-0.8169,-0.8242,-0.7919,-0.7919,-0.7787,-0.753,-0.7147,-0.6979,-0.6979,-0.6979,-0.6979,-0.6979,-0.6979,-0.6979,-0.6972,-0.6901,-0.6803,-0.6681,-0.6488,-0.6376,-0.6252,-0.6046,-0.6034,-0.6084,-0.6128,-0.6387,-0.6846,-0.7831,-0.9008,-0.9954,-0.982,-1.0052,-1.0354,-1.0485,-1.0377,-1.0212,-1.0225,-1.057,-1.0944,-1.1103,-1.1505,-1.1876,-1.2149,-1.2205,-1.2332,-1.2778,0.0,-1.353,-1.3831,-1.4271,-1.466,-1.4867,-1.4965,-1.5028,-1.5075,-1.5146,-1.5189,-1.5189,-1.5189,-1.5189,-1.5189,-1.5189,-1.5189,-1.5189,-1.5146,-1.5127,-1.5127,-1.5018,-1.4954,-1.4954,-1.4919,-1.4919,-1.4965,-1.4919,-1.5123,-1.5517,-1.5129,-1.5358,-1.6025,-1.6254,-1.6043,-1.5742,-1.7125,-1.7681,-1.7707,-1.8032,-1.886,-1.9709,-0.3581,-0.3581,-0.3968,-0.5091,-0.5819,-0.6483,-0.7251,-0.7488,-0.7689,-0.7855,-0.827,-0.8612,-0.8802,-0.8989,-0.9106,-0.9106,-0.9718,-0.9964,-0.955,-1.0338,-1.0806,-1.0848,-0.9914,-0.9447,-0.9681,-0.9558,-0.9092,-0.8334,-0.8872,-0.8873,-0.8398,-0.8398,-0.8234,-0.7878,-0.7447,-0.7189,-0.6979,-0.6979,-0.6979,-0.6979,-0.6979,-0.6979,-0.6979,-0.6979,-0.6979,-0.6994,-0.6794,-0.6727,-0.672,-0.6608,-0.6615,-0.6722,-0.7053,-0.7705,-0.8399,-0.8596,-0.946,-1.035,-1.0169,-1.043,-1.0762,-1.0697,-1.0568,-1.0438,-1.0414,-1.0667,-1.0991,-1.1227,-1.1557,-1.1897,-1.2271,-1.2504,-1.2868,-1.3508,-1.404,-1.4405,-1.4499,-1.4839,-1.512,-1.5253,-1.5353,-1.5422,-1.5477,-1.5549,-1.5484,-1.5209,-1.5189,-1.5189,-1.5189,-1.5189,-1.5189,-1.5189,-1.5189,-1.5189,-1.5189,-1.5101,-1.5056,-1.5056,-1.5023,-1.5023,-1.5049,-1.5023,-1.5212,-1.5593,-1.5216,-1.5274,-1.5651,-1.6258,-1.619,-1.5874,-1.7631,-1.831,-1.8304,-1.8552,-1.938,-2.0276,-0.3581,-0.3581,-0.3968,-0.5091,-0.6246,-0.6979,-0.6985,-0.749,-0.7882,-0.7888,-0.8444,-0.9061,-0.9718,-0.9814,-0.9814,-0.9814,-1.0415,-1.0517,-0.9865,-1.0415,-1.1116,-1.1765,-1.0914,-1.0716,-1.1387,-1.0438,-0.9968,-1.0107,-1.0098,-0.9899,-0.9527,-0.9518,-0.8918,-0.7912,-0.7919,-0.7572,-0.7021,-0.7021,-0.7021,-0.7021,-0.7021,-0.7021,-0.6979,-0.6979,-0.6979,-0.7021,-0.7021,-0.7021,-0.7058,-0.7302,-0.7417,-0.7624,-0.8753,-1.0029,-1.0865,-0.9749,-1.0066,-1.0677,-1.0061,-1.0307,-1.0694,-1.0694,-1.028,-1.0008,-1.0335,-1.0667,-1.0991,-1.1242,-1.1571,-1.1961,-1.253,-1.3223,-1.3972,-1.4778,-1.5692,-1.6082,-1.55,-1.5692,-1.5951,-1.6102,-1.6227,-1.6342,-1.649,-1.6503,-1.6157,-1.5266,-1.5189,-1.5189,-1.5189,-1.5189,-1.5189,-1.5189,-1.5189,-1.5189,-1.5189,-1.5189,-1.5189,-1.5189,-1.5189,-1.5189,-1.5189,-1.5189,-1.5676,-1.6445,-1.5599,-1.5708,-1.651,-1.6528,-1.6561,-1.6787,-1.8512,-1.9169,-1.9197,-2.0,-2.0287,-2.0285,-0.3581,-0.3581,-0.3968,-0.5091,-0.5819,-0.6477,-0.7258,-0.7488,-0.7756,-0.819,-0.8397,-0.8827,-0.9688,-0.9361,-0.9458,-1.0415,-1.0661,-1.0914,-1.1166,-1.1891,-1.2147,-1.1814,-1.1509,-1.1496,-1.1692,-1.1565,-1.1113,-1.0334,-1.0551,-1.0418,-0.9917,-0.9645,-0.9319,-0.8999,-0.8234,-0.7987,-0.8177,-0.778,-0.7621,-0.7621,-0.7621,-0.7363,-0.6979,-0.6979,-0.6979,-0.7063,-0.7489,-0.7621,-0.7682,-0.8141,-0.8329,-0.8534,-0.9297,-0.9734,-0.9976,-0.9973,-1.0076,-1.0118,-0.9941,-0.9835,-0.9797,-0.9797,-1.0118,-1.0451,-1.0338,-1.0629,-1.1174,-1.2144,-1.2432,-1.2818,-1.3876,-1.44,-1.4901,-1.5557,-1.6141,-1.6448,-1.6273,-1.5958,-1.598,-1.6583,-1.6284,-1.6259,-1.6853,-1.6999,-1.6742,-1.5968,-1.5472,-1.5189,-1.5189,-1.5189,-1.5189,-1.5189,-1.5189,-1.5189,-1.5189,-1.5189,-1.5214,-1.5272,-1.5272,-1.5272,-1.5272,-1.5272,-1.5728,-1.649,-1.6233,-1.6612,-1.7453,-1.8125,-1.8055,-1.7617,-1.8759,-1.8802,-1.8364,-1.9216,-1.9149,-1.8788,-0.3581,-0.3581,-0.41,-0.569,-0.6161,-0.6557,-0.7218,-0.7495,-0.7782,-0.815,-0.8641,-0.9249,-1.0092,-1.0064,-1.0312,-1.1116,-1.103,-1.1309,-1.2178,-1.2455,-1.2416,-1.1994,-1.2153,-1.2236,-1.2236,-1.2416,-1.1968,-1.0864,-1.106,-1.082,-1.0199,-1.0074,-0.9873,-0.9487,-0.8989,-0.8733,-0.8675,-0.8357,-0.8193,-0.8193,-0.7995,-0.7704,-0.7321,-0.7105,-0.6979,-0.7063,-0.7704,-0.7919,-0.7995,-0.8756,-0.9307,-0.9748,-1.0088,-1.041,-1.0639,-1.0491,-1.037,-1.0288,-1.0,-0.9685,-0.9408,-0.9408,-0.9797,-1.033,-1.0804,-1.113,-1.1643,-1.2926,-1.331,-1.3652,-1.4533,-1.5185,-1.5812,-1.6482,-1.7045,-1.7331,-1.7209,-1.6922,-1.6916,-1.7433,-1.7162,-1.7132,-1.7606,-1.7796,-1.7587,-1.685,-1.6058,-1.5625,-1.5708,-1.5715,-1.5715,-1.5715,-1.5715,-1.5715,-1.5715,-1.5715,-1.5561,-1.5253,-1.5291,-1.5291,-1.5291,-1.5294,-1.5744,-1.6512,-1.6176,-1.6725,-1.7869,-1.8106,-1.8096,-1.8022,-1.8901,-1.8883,-1.8435,-1.8995,-1.9076,-1.8974,-0.3581,-0.3755,-0.4574,-0.6634,-0.6979,-0.6979,-0.6979,-0.745,-0.7809,-0.7835,-0.8933,-0.9941,-1.0614,-1.1213,-1.1626,-1.1809,-1.1492,-1.1742,-1.2793,-1.2412,-1.2168,-1.2168,-1.2549,-1.2764,-1.2764,-1.2803,-1.2422,-1.1665,-1.1626,-1.1224,-1.0469,-1.0811,-1.0488,-0.9631,-0.9944,-0.9632,-0.8837,-0.8797,-0.8756,-0.8724,-0.8234,-0.7995,-0.7912,-0.7314,-0.7063,-0.7154,-0.7746,-0.7953,-0.8077,-0.9119,-1.0137,-1.0935,-1.0979,-1.1617,-1.2165,-1.1239,-1.0958,-1.0852,-1.0232,-0.9734,-0.9408,-0.9475,-0.9511,-0.9935,-1.1503,-1.1922,-1.2334,-1.3634,-1.4163,-1.4523,-1.4833,-1.5752,-1.6707,-1.747,-1.8217,-1.8574,-1.8287,-1.8286,-1.8372,-1.8485,-1.8477,-1.8497,-1.8584,-1.8725,-1.8493,-1.7733,-1.6839,-1.6392,-1.6497,-1.6503,-1.6522,-1.6599,-1.6465,-1.6465,-1.6599,-1.6542,-1.6061,-1.5209,-1.5426,-1.5482,-1.5413,-1.5426,-1.5894,-1.6673,-1.5782,-1.6368,-1.7834,-1.7099,-1.726,-1.8065,-1.8789,-1.8994,-1.8873,-1.8956,-1.9387,-1.9838,-0.3581,-0.5048,-0.6422,-0.6894,-0.6979,-0.6979,-0.6979,-0.7092,-0.7301,-0.7535,-0.8179,-0.8944,-0.9853,-0.9604,-1.0095,-1.194,-1.2033,-1.207,-1.2317,-1.1953,-1.1753,-1.1753,-1.1841,-1.189,-1.189,-1.2197,-1.2275,-1.208,-1.1728,-1.1641,-1.1797,-1.1543,-1.1139,-1.0567,-1.0229,-1.0054,-0.9922,-0.9518,-0.9319,-0.9319,-0.9199,-0.8918,-0.8472,-0.7904,-0.7704,-0.7787,-0.8316,-0.8275,-0.8077,-0.9119,-0.9913,-1.0601,-1.1348,-1.144,-1.1343,-1.1879,-1.1436,-1.073,-1.0578,-0.9994,-0.9528,-1.0046,-1.034,-1.0657,-1.1282,-1.2039,-1.2975,-1.4318,-1.5055,-1.5639,-1.623,-1.7092,-1.7858,-1.8282,-1.8955,-1.9368,-1.9286,-1.8763,-1.8621,-1.9261,-1.8665,-1.8503,-1.9287,-1.9033,-1.8458,-1.7617,-1.7432,-1.7118,-1.6522,-1.6503,-1.6792,-1.7407,-1.6176,-1.6118,-1.7426,-1.6811,-1.608,-1.5291,-1.6612,-1.6958,-1.6396,-1.6343,-1.6794,-1.7575,-1.671,-1.6918,-1.7884,-1.7715,-1.7752,-1.7871,-1.7432,-1.7215,-1.7132,-1.7157,-1.683,-1.6482,-0.3581,-0.5432,-0.6979,-0.6979,-0.6979,-0.6979,-0.6979,-0.7141,-0.7288,-0.7486,-0.8342,-0.9138,-0.9624,-0.9922,-1.0597,-1.1795,-1.1719,-1.1689,-1.1895,-1.1494,-1.125,-1.125,-1.1489,-1.141,-1.0998,-1.1377,-1.1602,-1.1602,-1.1367,-1.1367,-1.1602,-1.1572,-1.1328,-1.0918,-1.0818,-1.0612,-1.0283,-1.0,-0.9883,-0.9843,-0.9597,-0.9319,-0.9039,-0.848,-0.8275,-0.8357,-0.8878,-0.9079,-0.9119,-0.9677,-1.0079,-1.0467,-1.1479,-1.1595,-1.1431,-1.1928,-1.1663,-1.1118,-1.0721,-1.0319,-1.0114,-1.0525,-1.1209,-1.188,-1.238,-1.3153,-1.4131,-1.5489,-1.6164,-1.6621,-1.6987,-1.7642,-1.8238,-1.8547,-1.8999,-1.9353,-1.9438,-1.9082,-1.899,-1.9415,-1.8982,-1.8947,-1.9645,-1.9435,-1.9154,-1.8871,-1.8458,-1.8068,-1.7715,-1.7683,-1.7848,-1.8217,-1.6991,-1.6953,-1.8217,-1.701,-1.6425,-1.6465,-1.7369,-1.7595,-1.7216,-1.6791,-1.6851,-1.7227,-1.6387,-1.6527,-1.7295,-1.6875,-1.6941,-1.7285,-1.6855,-1.6659,-1.6598,-1.66,-1.6286,-1.6055,-0.3581,-0.5432,-0.6979,-0.6979,-0.6979,-0.6979,-0.6979,-0.7235,-0.7432,-0.7432,-0.8662,-0.9514,-0.9514,-1.0682,-1.1445,-1.1359,-1.1071,-1.1064,-1.1469,-1.1045,-1.0801,-1.0801,-1.1152,-1.1047,-1.0303,-1.0625,-1.084,-1.0908,-1.0908,-1.0947,-1.1025,-1.1516,-1.1446,-1.0918,-1.1417,-1.114,-1.0283,-1.0283,-1.0283,-1.0244,-0.9804,-0.9637,-0.9558,-0.9039,-0.8837,-0.8878,-0.9359,-0.9913,-1.039,-1.0312,-1.039,-1.0736,-1.1627,-1.192,-1.1949,-1.2041,-1.2049,-1.1854,-1.1215,-1.1041,-1.1108,-1.1346,-1.2288,-1.3342,-1.413,-1.4702,-1.5397,-1.6553,-1.7101,-1.7392,-1.7375,-1.7854,-1.8351,-1.8623,-1.8913,-1.9166,-1.9346,-1.9365,-1.9365,-1.9376,-1.9365,-1.9462,-1.9767,-1.9813,-1.9905,-2.0065,-1.9435,-1.9035,-1.8962,-1.8984,-1.8997,-1.8992,-1.8103,-1.8005,-1.8828,-1.7461,-1.7145,-1.7914,-1.8133,-1.8164,-1.8009,-1.7326,-1.6945,-1.6772,-1.5956,-1.6016,-1.6621,-1.5757,-1.5903,-1.6692,-1.6536,-1.644,-1.6392,-1.6392,-1.6352,-1.6508,-0.3581,-0.5432,-0.6979,-0.6979,-0.6979,-0.6979,-0.6979,-0.7054,-0.7081,-0.7081,-0.8078,-0.8824,-0.8824,-1.0146,-1.082,-1.0349,-1.0689,-1.0937,-1.0996,-1.0605,-1.0371,-1.0371,-1.042,-1.044,-1.0283,-1.0342,-1.0547,-1.0908,-1.0908,-1.1103,-1.1518,-1.1989,-1.1733,-1.0908,-1.146,-1.1165,-1.0283,-1.0283,-1.0283,-1.0283,-1.0205,-1.0196,-1.0118,-0.9597,-0.9399,-0.9399,-0.9478,-1.0099,-1.0819,-1.0389,-1.0847,-1.17,-1.2246,-1.2401,-1.2555,-1.3365,-1.3239,-1.29,-1.3206,-1.2912,-1.2647,-1.3247,-1.3976,-1.4841,-1.6055,-1.6204,-1.6245,-1.6706,-1.7288,-1.771,-1.7665,-1.8135,-1.8623,-1.8914,-1.9277,-1.9564,-1.9707,-1.963,-1.9591,-1.9707,-1.963,-1.9617,-1.9778,-1.9893,-1.9754,-1.9215,-1.9738,-1.9737,-1.8866,-1.8931,-1.9257,-1.9821,-1.8436,-1.8105,-1.895,-1.8751,-1.8701,-1.8838,-1.96,-1.96,-1.8915,-1.8819,-1.8378,-1.7689,-1.6802,-1.6543,-1.6621,-1.5759,-1.5916,-1.6633,-1.5864,-1.5578,-1.5562,-1.5562,-1.5515,-1.5501,-0.3581,-0.5432,-0.6979,-0.6979,-0.6979,-0.6979,-0.6979,-0.6979,-0.7105,-0.7447,-0.8185,-0.8797,-0.9119,-1.0003,-1.0477,-1.0226,-1.0437,-1.0557,-1.0557,-1.0381,-1.0283,-1.0283,-1.0283,-1.0283,-1.0283,-1.0283,-1.0371,-1.0557,-1.0557,-1.0944,-1.1653,-1.1851,-1.1737,-1.1358,-1.1871,-1.141,-1.0322,-1.0572,-1.0544,-1.0283,-1.0283,-1.0467,-1.0649,-1.0157,-1.0108,-1.0331,-1.0331,-1.0629,-1.1046,-1.1328,-1.1743,-1.2271,-1.2995,-1.3234,-1.3305,-1.3682,-1.3816,-1.3782,-1.3544,-1.3515,-1.3582,-1.3748,-1.4596,-1.551,-1.6069,-1.6703,-1.7233,-1.7518,-1.7805,-1.8018,-1.7984,-1.8333,-1.8697,-1.8949,-1.9246,-1.9495,-1.9669,-1.9536,-1.9452,-1.9499,-1.9564,-1.9643,-1.9797,-1.9933,-1.9925,-1.9746,-2.0081,-2.0115,-1.9662,-1.9684,-1.9813,-1.9993,-1.8901,-1.8715,-1.955,-1.8677,-1.8728,-1.9715,-1.9619,-1.9638,-1.9754,-1.9304,-1.8907,-1.8525,-1.7698,-1.7357,-1.7363,-1.6488,-1.6346,-1.6617,-1.5707,-1.533,-1.533,-1.533,-1.5291,-1.5311]}]]